[[{"header":{"parameterUnit":"m.s-1","parameterCategory":1,"la1":31.0,"la2":29.5877,"lo1":-88.7671,"lo2":-86.6584,"dy":0.0162,"dx":0.0185,"nx":115,"ny":88,"refTime":"2023-06-09T12:00:00:Z","depth":0,"parameterNumber":2,"parameterNumberName":"U-component_of_WINDS"},"data":[0.0,0.0,0.0,0.0,0.0,0.0,0.0,0.0,0.0,0.0,0.0,0.0,0.0,0.0,0.0,0.0,0.0,0.0,0.0,0.0,0.0,0.0,0.0,0.0,0.0,0.0,0.0,0.0,0.0,0.0,0.0,0.0,0.0,0.0,0.0,0.0,0.0,0.0,0.0,0.0,0.0,0.0,0.0,0.0,0.0,0.0,0.0,0.0,0.0,0.0,0.0,0.0,0.0,0.0,0.0,0.0,0.0,0.0,0.0,0.0,0.0,0.0,0.0,0.0,0.0,0.0,0.0,0.0,0.0,0.0,0.0,0.0,0.0,0.0,0.0,0.0,0.0,0.0,0.0,0.0,0.0,0.0,0.0,0.0,0.0,0.0,0.0,0.0,0.0,0.0,0.0,0.0,0.0,0.0,0.0,0.0,0.0,0.0,0.0,0.0,0.0,0.0,0.0,0.0,0.0,0.0,0.0,0.0,0.0,0.0,0.0,0.0,0.0,0.0,0.0,0.0,0.0,0.0,0.0,0.0,0.0,0.0,0.0,0.0,0.0,0.0,0.0,0.0,0.0,0.0,0.0,0.0,0.0,0.0,0.0,0.0,0.0,0.0,0.0,0.0,0.0,0.0,0.0,0.0,0.0,0.0,0.0,0.0,0.0,0.0,0.0,0.0,0.0,0.0,0.0,0.0,0.0,0.0,0.0,0.0,0.0,0.0,0.0,0.0,0.0,0.0,0.0,0.0,0.0,0.0,0.0,0.0,0.0,0.0,0.0,0.0,0.0,0.0,0.0,0.0,0.0,0.0,0.0,0.0,0.0,0.0,0.0,0.0,0.0,0.0,0.0,0.0,0.0,0.0,0.0,0.0,0.0,0.0,0.0,0.0,0.0,0.0,0.0,0.0,0.0,0.0,0.0,0.0,0.0,0.0,0.0,0.0,0.0,0.0,0.0,0.0,0.0,0.0,0.0,0.0,0.0,0.0,0.0,0.0,0.0,0.0,0.0,0.0,0.0,0.0,0.0,0.0,0.0,0.0,0.0,0.0,0.0,0.0,0.0,0.0,0.0,0.0,0.0,0.0,0.0,0.0,0.0,0.0,0.0,0.0,0.0,0.0,0.0,0.0,0.0,0.0,0.0,0.0,0.0,0.0,0.0,0.0,0.0,0.0,0.0,0.0,0.0,0.0,0.0,0.0,0.0,0.0,0.0,0.0,0.0,0.0,0.0,0.0,0.0,0.0,0.0,0.0,0.0,0.0,0.0,0.0,0.0,0.0,0.0,0.0,0.0,0.0,0.0,0.0,0.0,0.0,0.0,0.0,0.0,0.0,0.0,0.0,0.0,0.0,0.0,0.0,0.0,0.0,0.0,0.0,0.0,0.0,0.0,0.0,0.0,0.0,0.0,0.0,0.0,0.0,0.0,0.0,0.0,0.0,0.0,0.0,0.0,0.0,0.0,0.0,0.0,0.0,0.0,0.0,0.0,0.0,0.0,0.0,0.0,0.0,0.0,0.0,0.0,0.0,0.0,0.0,0.0,0.0,0.0,0.0,0.0,0.0,0.0,0.0,0.0,0.0,0.0,0.0,0.0,0.0,0.0,0.0,0.0,0.0,0.0,0.0,0.0,0.0,0.0,0.0,0.0,0.0,0.0,0.0,0.0,0.0,0.0,0.0,0.0,0.0,0.0,0.0,0.0,0.0,0.0,0.0,0.0,0.0,0.0,0.0,0.0,0.0,0.0,0.0,0.0,0.0,0.0,0.0,0.0,0.0,0.0,0.0,0.0,0.0,0.0,0.0,0.0,0.0,0.0,0.0,0.0,0.0,0.0,0.0,0.0,0.0,0.0,0.0,0.0,0.0,0.0,0.0,0.0,0.0,0.0,0.0,0.0,0.0,0.0,0.0,0.0,0.0,0.0,0.0,0.0,0.0,0.0,0.0,0.0,0.0,0.0,0.0,0.0,0.0,0.0,0.0,0.0,0.0,0.0,0.0,0.0,0.0,0.0,0.0,0.0,0.0,0.0,0.0,0.0,0.0,0.0,0.0,0.0,0.0,0.0,0.0,0.0,0.0,0.0,0.0,0.0,0.0,0.0,0.0,0.0,0.0,0.0,0.0,0.0,0.0,0.0,0.0,0.0,0.0,0.0,0.0,0.0,0.0,0.0,0.0,0.0,0.0,0.0,0.0,0.0,0.0,0.0,0.0,0.0,0.0,0.0,0.0,0.0,0.0,0.0,0.0,0.0,0.0,0.0,0.0,0.0,0.0,0.0,0.0,0.0,0.0,0.0,0.0,0.0,0.0,0.0,0.0,0.0,0.0,0.0,0.0,0.0,0.0,0.0,0.0,0.0,0.0,0.0,0.0,0.0,0.0,0.0,0.0,0.0,0.0,0.0,0.0,0.0,0.0,0.0,0.0,0.0,0.0,0.0,0.0,0.0,0.0,0.0,0.0,0.0,0.0,0.0,0.0,0.0,0.0,0.0,0.0,0.0,0.0,0.0,0.0,0.0,0.0,0.0,0.0,0.0,0.0,0.0,0.0,0.0,0.0,0.0,0.0,0.0,0.0,0.0,0.0,0.0,0.0,0.0,0.0,0.0,0.0,0.0,0.0,0.0,0.0,0.0,0.0,0.0,0.0,0.0,0.0,0.0,0.0,0.0,0.0,0.0,0.0,0.0,0.0,0.0,0.0,0.0,0.0,0.0,0.0,0.0,0.0,0.0,0.0,0.0,0.0,0.0,0.0,0.0,0.0,0.0,0.0,0.0,0.0,0.0,0.0,0.0,0.0,0.0,0.0,0.0,0.0,0.0,0.0,0.0,0.0,0.0,0.0,0.0,0.0,0.0,0.0,0.0,0.0,0.0,0.0,0.0,0.0,0.0,0.0,0.0,0.0,0.0,0.0,0.0,0.0,0.0,0.0,0.0,0.0,0.0,0.0,0.0,0.0,0.0,0.0,0.0,0.0,0.0,0.0,0.0,0.0,0.0,0.0,0.0,0.0,0.0,0.0,0.0,0.0,0.0,0.0,0.0,0.0,0.0,0.0,0.0,0.0,0.0,0.0,0.0,0.0,0.0,0.0,0.0,0.0,0.0,0.0,0.0,0.0,0.0,0.0,0.0,0.0,0.0,0.0,0.0,0.0,0.0,0.0,0.0,0.0,0.0,0.0,0.0,0.0,0.0,0.0,0.0,0.0,0.0,0.0,0.0,0.0,0.0,0.0,0.0,0.0,0.0,0.0,0.0,0.0,0.0,0.0,0.0,0.0,0.0,0.0,0.0,0.0,0.0,0.0,0.0,0.0,0.0,0.0,0.0,0.0,0.0,0.0,0.0,0.0,0.0,0.0,0.0,0.0,0.0,0.0,0.0,0.0,0.0,0.0,0.0,0.0,0.0,0.0,0.0,0.0,0.0,0.0,0.0,0.0,0.0,0.0,0.0,0.0,0.0,0.0,0.0,0.0,0.0,0.0,0.0,0.0,0.0,0.0,0.0,0.0,0.0,0.0,0.0,0.0,0.0,0.0,0.0,0.0,0.0,0.0,0.0,0.0,0.0,0.0,0.0,0.0,0.0,0.0,0.0,0.0,0.0,0.0,0.0,0.0,0.0,0.0,0.0,0.0,0.0,0.0,0.0,0.0,0.0,0.0,0.0,0.0,0.0,0.0,0.0,0.0,0.0,0.0,0.0,0.0,0.0,0.0,0.0,0.0,0.0,0.0,0.0,0.0,0.0,0.0,0.0,0.0,0.0,0.0,0.0,0.0,0.0,0.0,0.0,0.0,0.0,0.0,0.0,0.0,0.0,0.0,0.0,0.0,0.0,0.0,0.0,0.0,0.0,0.0,0.0,0.0,0.0,0.0,0.0,0.0,0.0,0.0,0.0,0.0,0.0,0.0,0.0,0.0,0.0,0.0,0.0,0.0,0.0,0.0,0.0,0.0,0.0,0.0,0.0,0.0,0.0,0.0,0.0,0.0,0.0,0.0,0.0,0.0,0.0,0.0,0.0,0.0,0.0,0.0,0.0,0.0,0.0,0.0,0.0,0.0,0.0,0.0,0.0,0.0,0.0,0.0,0.0,0.0,0.0,0.0,0.0,0.0,0.0,0.0,0.0,0.0,0.0,0.0,0.0,0.0,0.0,0.0,0.0,0.0,0.0,0.0,0.0,0.0,0.0,0.0,0.0,0.0,0.0,0.0,0.0,0.0,0.0,0.0,0.0,0.0,0.0,0.0,0.0,0.0,0.0,0.0,0.0,0.0,0.0,0.0,0.0,0.0,-3.8201,0.0,0.0,0.0,0.0,0.0,0.0,0.0,0.0,0.0,0.0,0.0,0.0,0.0,0.0,0.0,0.0,0.0,0.0,0.0,0.0,0.0,0.0,0.0,0.0,0.0,0.0,0.0,0.0,0.0,0.0,0.0,0.0,0.0,0.0,0.0,0.0,0.0,0.0,0.0,0.0,0.0,0.0,0.0,0.0,0.0,0.0,0.0,0.0,0.0,0.0,0.0,0.0,0.0,0.0,0.0,0.0,0.0,0.0,0.0,0.0,0.0,0.0,0.0,0.0,0.0,0.0,0.0,0.0,0.0,0.0,0.0,0.0,0.0,0.0,0.0,0.0,0.0,0.0,0.0,0.0,0.0,0.0,0.0,0.0,0.0,0.0,0.0,0.0,0.0,0.0,0.0,0.0,0.0,0.0,0.0,0.0,0.0,0.0,0.0,0.0,0.0,0.0,0.0,0.0,0.0,0.0,0.0,0.0,0.0,0.0,-3.9189,-3.9206,-4.1198,-4.1186,-3.8951,0.0,0.0,0.0,0.0,0.0,0.0,0.0,0.0,0.0,0.0,0.0,0.0,0.0,0.0,0.0,0.0,0.0,0.0,0.0,0.0,0.0,0.0,0.0,0.0,0.0,0.0,0.0,0.0,0.0,0.0,0.0,0.0,0.0,0.0,0.0,0.0,0.0,0.0,0.0,0.0,0.0,0.0,0.0,0.0,0.0,0.0,0.0,0.0,0.0,0.0,0.0,0.0,0.0,0.0,0.0,0.0,0.0,0.0,0.0,0.0,0.0,0.0,0.0,0.0,0.0,0.0,0.0,0.0,0.0,0.0,0.0,0.0,0.0,0.0,0.0,0.0,0.0,0.0,0.0,0.0,0.0,0.0,0.0,0.0,0.0,0.0,0.0,0.0,0.0,0.0,0.0,0.0,0.0,0.0,0.0,0.0,0.0,0.0,0.0,0.0,0.0,0.0,0.0,0.0,0.0,0.0,0.0,0.0,0.0,0.0,0.0,0.0,-4.23,-4.2364,-4.0287,0.0,0.0,0.0,0.0,0.0,0.0,0.0,0.0,0.0,0.0,0.0,0.0,0.0,0.0,0.0,0.0,0.0,0.0,0.0,0.0,0.0,0.0,0.0,0.0,0.0,0.0,0.0,0.0,0.0,0.0,0.0,0.0,0.0,0.0,0.0,0.0,0.0,0.0,0.0,0.0,0.0,0.0,0.0,0.0,0.0,0.0,0.0,0.0,0.0,0.0,0.0,0.0,0.0,0.0,0.0,0.0,0.0,0.0,0.0,0.0,0.0,0.0,0.0,0.0,0.0,0.0,0.0,0.0,0.0,0.0,0.0,0.0,0.0,0.0,0.0,0.0,0.0,0.0,0.0,0.0,0.0,0.0,0.0,0.0,0.0,0.0,0.0,0.0,0.0,0.0,0.0,0.0,0.0,0.0,0.0,0.0,0.0,0.0,0.0,0.0,0.0,0.0,0.0,0.0,0.0,0.0,0.0,0.0,0.0,0.0,-3.9761,-4.2937,-4.3754,0.0,-4.1926,0.0,0.0,0.0,0.0,0.0,0.0,0.0,0.0,0.0,0.0,0.0,0.0,0.0,0.0,0.0,0.0,0.0,0.0,0.0,0.0,0.0,0.0,0.0,0.0,0.0,0.0,0.0,0.0,0.0,0.0,0.0,0.0,0.0,0.0,0.0,0.0,0.0,0.0,0.0,0.0,0.0,0.0,0.0,0.0,0.0,0.0,0.0,0.0,0.0,0.0,0.0,0.0,0.0,0.0,0.0,0.0,0.0,0.0,0.0,0.0,0.0,0.0,0.0,0.0,0.0,0.0,0.0,0.0,0.0,0.0,0.0,0.0,0.0,0.0,0.0,0.0,0.0,0.0,0.0,0.0,0.0,0.0,0.0,0.0,0.0,0.0,0.0,0.0,0.0,0.0,0.0,0.0,0.0,0.0,0.0,0.0,0.0,0.0,0.0,0.0,0.0,0.0,0.0,0.0,0.0,0.0,0.0,0.0,0.0,0.0,-4.0582,-4.4042,-4.3904,-4.3023,0.0,0.0,0.0,0.0,0.0,0.0,0.0,0.0,0.0,0.0,0.0,0.0,0.0,0.0,0.0,0.0,0.0,0.0,0.0,0.0,0.0,0.0,0.0,0.0,0.0,0.0,0.0,0.0,0.0,0.0,0.0,0.0,0.0,0.0,0.0,0.0,0.0,0.0,0.0,0.0,0.0,0.0,0.0,0.0,0.0,0.0,0.0,0.0,0.0,0.0,0.0,0.0,0.0,0.0,0.0,0.0,0.0,0.0,0.0,0.0,0.0,0.0,0.0,0.0,0.0,0.0,0.0,0.0,0.0,0.0,0.0,0.0,0.0,0.0,0.0,0.0,0.0,0.0,0.0,0.0,0.0,0.0,0.0,0.0,0.0,0.0,0.0,0.0,0.0,0.0,0.0,0.0,0.0,0.0,0.0,0.0,0.0,0.0,0.0,0.0,0.0,0.0,0.0,0.0,0.0,0.0,0.0,0.0,0.0,0.0,-4.034,-4.1964,-4.5287,-4.3934,-4.2459,-4.13,0.0,0.0,0.0,0.0,0.0,0.0,0.0,0.0,0.0,0.0,0.0,0.0,0.0,0.0,0.0,0.0,0.0,0.0,0.0,0.0,0.0,0.0,0.0,0.0,0.0,0.0,0.0,0.0,0.0,0.0,0.0,0.0,0.0,0.0,0.0,0.0,0.0,0.0,0.0,0.0,0.0,0.0,0.0,0.0,0.0,0.0,0.0,0.0,0.0,0.0,0.0,0.0,0.0,0.0,0.0,0.0,0.0,0.0,0.0,0.0,0.0,0.0,0.0,0.0,0.0,0.0,0.0,0.0,0.0,0.0,0.0,0.0,0.0,0.0,0.0,0.0,0.0,0.0,0.0,0.0,0.0,0.0,0.0,0.0,0.0,0.0,0.0,0.0,0.0,0.0,0.0,0.0,0.0,0.0,0.0,0.0,0.0,0.0,0.0,0.0,0.0,0.0,0.0,0.0,0.0,0.0,0.0,0.0,-4.5062,-4.3314,-4.4085,-4.7844,-4.4196,-4.2108,0.0,0.0,0.0,0.0,0.0,0.0,0.0,0.0,0.0,0.0,0.0,0.0,0.0,0.0,0.0,0.0,0.0,0.0,0.0,0.0,0.0,0.0,0.0,0.0,0.0,0.0,0.0,0.0,0.0,0.0,0.0,0.0,0.0,0.0,0.0,0.0,0.0,0.0,0.0,0.0,0.0,0.0,0.0,0.0,0.0,0.0,0.0,0.0,0.0,0.0,0.0,0.0,0.0,0.0,0.0,0.0,0.0,0.0,0.0,0.0,0.0,0.0,0.0,0.0,0.0,0.0,0.0,0.0,0.0,0.0,0.0,0.0,0.0,0.0,0.0,0.0,0.0,0.0,0.0,0.0,0.0,0.0,0.0,0.0,0.0,0.0,0.0,0.0,0.0,0.0,0.0,0.0,0.0,0.0,0.0,0.0,0.0,0.0,0.0,0.0,0.0,0.0,0.0,0.0,0.0,0.0,0.0,0.0,0.0,-4.0645,-4.3257,-4.5765,-4.8081,-4.5324,-4.3769,0.0,0.0,0.0,0.0,0.0,0.0,0.0,0.0,0.0,0.0,0.0,0.0,0.0,0.0,0.0,0.0,0.0,0.0,0.0,0.0,0.0,0.0,0.0,0.0,0.0,0.0,0.0,0.0,0.0,0.0,0.0,0.0,0.0,0.0,0.0,0.0,0.0,0.0,0.0,0.0,0.0,0.0,0.0,0.0,0.0,0.0,0.0,0.0,0.0,0.0,0.0,0.0,0.0,0.0,0.0,0.0,0.0,0.0,0.0,0.0,0.0,0.0,0.0,0.0,0.0,0.0,0.0,0.0,0.0,0.0,0.0,0.0,0.0,0.0,0.0,0.0,0.0,0.0,0.0,0.0,0.0,0.0,0.0,0.0,0.0,0.0,0.0,0.0,0.0,0.0,0.0,0.0,0.0,0.0,0.0,0.0,0.0,0.0,0.0,0.0,0.0,0.0,0.0,0.0,0.0,0.0,0.0,0.0,0.0,-4.0873,0.0,-4.8192,-4.859,-4.609,-4.4285,0.0,0.0,0.0,0.0,0.0,0.0,0.0,0.0,0.0,0.0,0.0,0.0,0.0,0.0,0.0,0.0,0.0,0.0,0.0,0.0,0.0,0.0,0.0,0.0,0.0,0.0,0.0,0.0,0.0,0.0,0.0,0.0,0.0,0.0,0.0,0.0,0.0,0.0,0.0,0.0,0.0,0.0,0.0,0.0,0.0,0.0,0.0,0.0,0.0,0.0,0.0,0.0,0.0,0.0,0.0,0.0,0.0,0.0,0.0,0.0,0.0,0.0,0.0,0.0,0.0,0.0,0.0,0.0,0.0,0.0,0.0,0.0,0.0,0.0,0.0,0.0,0.0,0.0,0.0,0.0,0.0,0.0,0.0,0.0,0.0,0.0,0.0,0.0,0.0,0.0,0.0,0.0,0.0,0.0,0.0,0.0,0.0,0.0,0.0,0.0,0.0,0.0,0.0,0.0,0.0,0.0,0.0,0.0,-3.9287,-4.6742,-5.019,-5.1104,-4.9644,-4.6473,-4.3567,0.0,0.0,0.0,0.0,0.0,0.0,0.0,0.0,0.0,0.0,0.0,0.0,0.0,0.0,0.0,0.0,0.0,0.0,0.0,0.0,0.0,0.0,0.0,0.0,0.0,0.0,0.0,0.0,0.0,0.0,0.0,0.0,0.0,0.0,0.0,0.0,0.0,0.0,0.0,0.0,0.0,0.0,0.0,0.0,0.0,0.0,0.0,0.0,0.0,0.0,0.0,0.0,0.0,0.0,0.0,0.0,0.0,0.0,0.0,0.0,0.0,0.0,0.0,0.0,0.0,0.0,0.0,0.0,0.0,0.0,0.0,0.0,0.0,0.0,0.0,0.0,0.0,0.0,0.0,0.0,0.0,0.0,0.0,0.0,0.0,0.0,0.0,0.0,0.0,0.0,0.0,0.0,0.0,0.0,0.0,0.0,0.0,0.0,0.0,0.0,0.0,0.0,0.0,0.0,0.0,0.0,0.0,0.0,0.0,-4.4449,-4.8863,-5.1537,-5.2071,-4.8391,-4.6271,0.0,0.0,0.0,0.0,0.0,0.0,0.0,0.0,0.0,0.0,0.0,0.0,0.0,0.0,0.0,0.0,0.0,0.0,0.0,0.0,0.0,0.0,0.0,0.0,0.0,0.0,0.0,0.0,0.0,0.0,0.0,0.0,0.0,0.0,0.0,0.0,0.0,0.0,0.0,0.0,0.0,0.0,0.0,0.0,0.0,0.0,0.0,0.0,0.0,0.0,0.0,0.0,0.0,0.0,0.0,0.0,0.0,0.0,0.0,0.0,0.0,0.0,0.0,0.0,0.0,0.0,0.0,0.0,0.0,0.0,0.0,0.0,0.0,0.0,0.0,0.0,0.0,0.0,0.0,0.0,0.0,0.0,0.0,0.0,0.0,0.0,0.0,0.0,0.0,0.0,0.0,0.0,0.0,0.0,0.0,0.0,0.0,0.0,0.0,0.0,0.0,0.0,0.0,0.0,0.0,0.0,0.0,0.0,0.0,-4.5688,-5.016,-5.2989,-5.379,-5.0083,-4.7753,-4.6997,0.0,0.0,0.0,0.0,0.0,0.0,0.0,0.0,0.0,0.0,0.0,0.0,0.0,0.0,0.0,0.0,0.0,0.0,0.0,0.0,0.0,0.0,0.0,0.0,0.0,0.0,0.0,0.0,0.0,0.0,0.0,0.0,0.0,0.0,0.0,0.0,0.0,0.0,0.0,0.0,0.0,0.0,0.0,0.0,0.0,0.0,0.0,0.0,0.0,0.0,0.0,0.0,0.0,0.0,0.0,0.0,0.0,0.0,0.0,0.0,0.0,0.0,0.0,0.0,0.0,0.0,0.0,0.0,0.0,0.0,0.0,0.0,0.0,0.0,0.0,0.0,0.0,0.0,0.0,0.0,0.0,0.0,0.0,0.0,0.0,0.0,0.0,0.0,0.0,0.0,0.0,0.0,0.0,0.0,0.0,0.0,0.0,0.0,0.0,0.0,0.0,0.0,0.0,0.0,0.0,0.0,0.0,0.0,-4.951,-5.3626,-5.5425,-5.4703,-5.1561,-4.831,0.0,0.0,0.0,0.0,0.0,0.0,0.0,0.0,0.0,0.0,0.0,0.0,0.0,0.0,0.0,0.0,0.0,0.0,0.0,0.0,0.0,0.0,0.0,0.0,0.0,0.0,0.0,0.0,0.0,0.0,0.0,0.0,0.0,0.0,0.0,0.0,0.0,0.0,0.0,0.0,0.0,0.0,0.0,0.0,0.0,0.0,0.0,0.0,0.0,0.0,0.0,0.0,0.0,0.0,0.0,0.0,0.0,0.0,0.0,0.0,0.0,0.0,0.0,0.0,0.0,0.0,0.0,0.0,0.0,0.0,0.0,0.0,0.0,0.0,0.0,0.0,0.0,0.0,0.0,0.0,0.0,0.0,0.0,0.0,0.0,0.0,0.0,0.0,0.0,0.0,0.0,0.0,0.0,0.0,0.0,0.0,0.0,0.0,0.0,0.0,0.0,0.0,0.0,0.0,0.0,0.0,0.0,0.0,0.0,-5.1192,-5.4799,-5.6876,-5.7192,-5.3524,-5.0506,0.0,0.0,0.0,0.0,0.0,0.0,0.0,0.0,0.0,0.0,0.0,0.0,0.0,0.0,0.0,0.0,0.0,0.0,0.0,0.0,0.0,0.0,0.0,0.0,0.0,0.0,0.0,0.0,0.0,0.0,0.0,0.0,0.0,0.0,0.0,0.0,0.0,0.0,0.0,0.0,0.0,0.0,0.0,0.0,0.0,0.0,0.0,0.0,0.0,0.0,0.0,0.0,0.0,0.0,0.0,0.0,0.0,0.0,0.0,0.0,0.0,0.0,0.0,0.0,0.0,0.0,0.0,0.0,0.0,0.0,0.0,0.0,0.0,0.0,0.0,0.0,0.0,0.0,0.0,0.0,0.0,0.0,0.0,0.0,0.0,0.0,0.0,0.0,0.0,0.0,0.0,0.0,0.0,0.0,0.0,0.0,0.0,0.0,0.0,0.0,0.0,0.0,0.0,0.0,0.0,0.0,0.0,0.0,-4.8529,-5.2385,-5.5799,-5.7858,-5.8502,-5.538,-5.2252,0.0,0.0,0.0,0.0,0.0,0.0,0.0,0.0,0.0,0.0,0.0,0.0,0.0,0.0,0.0,0.0,0.0,0.0,0.0,0.0,0.0,0.0,0.0,0.0,0.0,0.0,0.0,0.0,0.0,0.0,0.0,0.0,0.0,0.0,0.0,0.0,0.0,0.0,0.0,0.0,0.0,0.0,0.0,0.0,0.0,0.0,0.0,0.0,0.0,0.0,0.0,0.0,0.0,0.0,0.0,0.0,0.0,0.0,0.0,0.0,0.0,0.0,0.0,0.0,0.0,0.0,0.0,0.0,0.0,0.0,0.0,0.0,0.0,0.0,0.0,0.0,0.0,0.0,0.0,0.0,0.0,0.0,0.0,0.0,0.0,0.0,0.0,0.0,0.0,0.0,0.0,0.0,0.0,0.0,0.0,0.0,0.0,0.0,0.0,0.0,0.0,0.0,0.0,0.0,0.0,0.0,0.0,0.0,-4.9554,-5.3135,-5.653,-5.8462,-5.873,-5.677,-5.3482,0.0,0.0,0.0,0.0,0.0,0.0,0.0,0.0,0.0,0.0,0.0,0.0,0.0,0.0,0.0,0.0,0.0,0.0,0.0,0.0,0.0,0.0,0.0,0.0,0.0,0.0,0.0,0.0,0.0,0.0,0.0,0.0,0.0,0.0,0.0,0.0,0.0,0.0,0.0,0.0,0.0,0.0,0.0,0.0,0.0,0.0,0.0,0.0,0.0,0.0,0.0,0.0,0.0,0.0,0.0,0.0,0.0,0.0,0.0,0.0,0.0,0.0,0.0,0.0,0.0,0.0,0.0,0.0,0.0,0.0,0.0,0.0,0.0,0.0,0.0,0.0,0.0,0.0,0.0,0.0,0.0,0.0,0.0,0.0,0.0,0.0,0.0,0.0,0.0,0.0,0.0,0.0,0.0,0.0,0.0,0.0,0.0,0.0,0.0,0.0,0.0,0.0,0.0,0.0,0.0,0.0,0.0,0.0,-5.012,-5.3154,-5.653,-5.8474,-5.8787,-5.6239,-5.3283,0.0,0.0,0.0,0.0,0.0,0.0,0.0,0.0,0.0,0.0,0.0,0.0,0.0,0.0,0.0,0.0,0.0,0.0,0.0,0.0,0.0,0.0,0.0,0.0,0.0,0.0,0.0,0.0,0.0,0.0,0.0,0.0,0.0,0.0,0.0,0.0,0.0,0.0,0.0,0.0,0.0,0.0,0.0,0.0,0.0,0.0,0.0,0.0,-4.6104,0.0,0.0,0.0,0.0,0.0,0.0,0.0,0.0,0.0,0.0,0.0,0.0,0.0,0.0,0.0,0.0,0.0,0.0,0.0,0.0,0.0,0.0,0.0,0.0,0.0,0.0,0.0,0.0,0.0,0.0,0.0,0.0,0.0,0.0,0.0,0.0,0.0,0.0,0.0,0.0,0.0,0.0,0.0,0.0,0.0,0.0,0.0,0.0,0.0,0.0,0.0,0.0,0.0,0.0,0.0,0.0,0.0,0.0,0.0,-5.029,-5.3163,-5.6333,-5.7949,-5.7844,-5.6264,-5.3759,0.0,0.0,0.0,0.0,0.0,0.0,0.0,0.0,0.0,0.0,0.0,0.0,0.0,0.0,0.0,0.0,0.0,0.0,0.0,0.0,0.0,0.0,0.0,0.0,0.0,0.0,0.0,0.0,0.0,0.0,0.0,0.0,0.0,0.0,0.0,0.0,0.0,0.0,0.0,0.0,0.0,0.0,0.0,0.0,0.0,0.0,0.0,0.0,0.0,0.0,0.0,0.0,0.0,0.0,0.0,0.0,0.0,0.0,0.0,0.0,0.0,0.0,0.0,0.0,0.0,0.0,0.0,0.0,0.0,0.0,0.0,0.0,0.0,0.0,0.0,0.0,0.0,0.0,0.0,0.0,0.0,0.0,0.0,0.0,0.0,0.0,0.0,0.0,0.0,0.0,0.0,0.0,0.0,0.0,0.0,0.0,0.0,0.0,0.0,0.0,0.0,0.0,0.0,0.0,0.0,0.0,0.0,-4.678,-5.0199,-5.307,-5.574,-5.6937,-5.6632,-5.6276,-5.4224,-5.0239,0.0,0.0,0.0,0.0,0.0,0.0,0.0,0.0,0.0,0.0,0.0,0.0,0.0,0.0,0.0,0.0,0.0,0.0,0.0,0.0,0.0,0.0,0.0,0.0,0.0,0.0,0.0,0.0,0.0,0.0,0.0,0.0,0.0,0.0,0.0,0.0,0.0,0.0,-4.3837,-4.733,0.0,0.0,0.0,0.0,0.0,0.0,0.0,0.0,-4.6855,0.0,0.0,0.0,0.0,0.0,0.0,0.0,0.0,0.0,0.0,0.0,0.0,0.0,0.0,0.0,0.0,0.0,0.0,0.0,0.0,0.0,0.0,0.0,0.0,0.0,0.0,0.0,0.0,0.0,0.0,0.0,0.0,0.0,0.0,0.0,0.0,0.0,0.0,0.0,0.0,0.0,0.0,0.0,0.0,0.0,0.0,0.0,0.0,0.0,0.0,0.0,0.0,0.0,0.0,0.0,0.0,-4.5249,-4.7343,-4.9794,-5.2641,-5.4216,-5.5101,-5.5324,-5.5324,-5.3497,-4.9765,0.0,0.0,0.0,0.0,0.0,0.0,0.0,0.0,0.0,0.0,0.0,0.0,0.0,0.0,0.0,0.0,0.0,0.0,0.0,0.0,0.0,0.0,0.0,0.0,0.0,0.0,0.0,0.0,0.0,0.0,0.0,0.0,0.0,0.0,0.0,0.0,0.0,0.0,0.0,-4.9479,-5.0532,0.0,0.0,0.0,0.0,0.0,0.0,0.0,0.0,-4.5732,0.0,0.0,0.0,0.0,0.0,0.0,0.0,0.0,0.0,0.0,0.0,0.0,0.0,0.0,0.0,0.0,0.0,0.0,0.0,0.0,0.0,0.0,0.0,0.0,0.0,0.0,0.0,0.0,0.0,0.0,0.0,0.0,0.0,0.0,0.0,0.0,0.0,0.0,0.0,0.0,0.0,0.0,0.0,0.0,0.0,0.0,0.0,0.0,0.0,0.0,0.0,0.0,0.0,0.0,0.0,-4.3637,-4.6561,-4.9031,-5.102,-5.3069,-5.4217,-5.4354,-5.381,-5.1902,0.0,0.0,0.0,0.0,0.0,0.0,0.0,0.0,0.0,0.0,0.0,0.0,0.0,0.0,0.0,0.0,0.0,0.0,0.0,0.0,0.0,0.0,0.0,0.0,0.0,0.0,0.0,0.0,0.0,0.0,0.0,0.0,0.0,0.0,0.0,0.0,0.0,0.0,0.0,0.0,-5.1163,-5.2204,-5.2655,0.0,0.0,0.0,0.0,0.0,0.0,-4.7673,-4.6866,0.0,0.0,0.0,0.0,0.0,0.0,0.0,0.0,0.0,0.0,0.0,0.0,0.0,0.0,0.0,0.0,0.0,0.0,0.0,0.0,0.0,0.0,0.0,0.0,0.0,0.0,0.0,0.0,0.0,0.0,0.0,0.0,0.0,0.0,0.0,0.0,0.0,0.0,0.0,0.0,0.0,0.0,0.0,0.0,0.0,0.0,0.0,0.0,0.0,0.0,0.0,0.0,0.0,0.0,0.0,-4.1931,-4.5562,-4.8074,-4.9491,-5.1758,-5.3032,-5.3162,-5.2255,-5.0287,0.0,0.0,0.0,0.0,0.0,0.0,0.0,0.0,0.0,0.0,0.0,0.0,0.0,0.0,0.0,0.0,0.0,0.0,0.0,0.0,0.0,0.0,0.0,0.0,0.0,0.0,0.0,0.0,0.0,0.0,0.0,0.0,0.0,0.0,0.0,0.0,0.0,0.0,0.0,0.0,0.0,-5.3562,-5.3822,-5.3264,0.0,0.0,0.0,0.0,-4.7861,-4.886,0.0,0.0,0.0,0.0,0.0,0.0,0.0,0.0,0.0,0.0,0.0,0.0,0.0,0.0,0.0,0.0,0.0,0.0,0.0,0.0,0.0,0.0,0.0,0.0,0.0,0.0,0.0,0.0,0.0,0.0,0.0,0.0,0.0,0.0,0.0,0.0,0.0,0.0,0.0,0.0,0.0,0.0,0.0,0.0,0.0,0.0,0.0,0.0,0.0,0.0,0.0,0.0,0.0,0.0,0.0,0.0,-4.2686,-4.4946,-4.7052,-4.8909,-4.9714,-5.0406,-5.1123,-5.0987,-4.9208,0.0,0.0,0.0,0.0,0.0,0.0,0.0,0.0,0.0,0.0,0.0,0.0,0.0,0.0,0.0,0.0,0.0,0.0,0.0,0.0,0.0,0.0,0.0,0.0,0.0,0.0,0.0,0.0,0.0,0.0,0.0,0.0,0.0,0.0,0.0,0.0,0.0,0.0,0.0,0.0,0.0,-5.3649,-5.1986,-5.2527,-5.2461,0.0,0.0,-4.8511,-5.0204,-5.1094,0.0,0.0,0.0,0.0,0.0,0.0,0.0,0.0,0.0,0.0,0.0,0.0,0.0,0.0,0.0,0.0,0.0,0.0,0.0,0.0,0.0,0.0,0.0,0.0,0.0,0.0,0.0,0.0,0.0,0.0,0.0,0.0,0.0,0.0,0.0,0.0,0.0,0.0,0.0,0.0,0.0,0.0,0.0,0.0,0.0,0.0,0.0,0.0,0.0,0.0,0.0,0.0,0.0,0.0,0.0,-3.8578,-4.1176,-4.3856,-4.5642,-4.6536,-4.8052,-4.904,-4.937,-4.8948,-4.738,0.0,0.0,0.0,0.0,0.0,0.0,0.0,0.0,0.0,0.0,0.0,0.0,0.0,0.0,0.0,0.0,0.0,0.0,0.0,0.0,0.0,0.0,0.0,0.0,0.0,0.0,0.0,0.0,0.0,0.0,0.0,0.0,0.0,0.0,0.0,0.0,0.0,0.0,0.0,0.0,0.0,0.0,-5.3386,-5.3298,0.0,0.0,0.0,-4.8611,-4.9507,0.0,0.0,0.0,0.0,0.0,0.0,0.0,0.0,0.0,0.0,0.0,0.0,0.0,0.0,0.0,0.0,0.0,0.0,0.0,0.0,0.0,0.0,0.0,0.0,0.0,0.0,0.0,0.0,0.0,0.0,0.0,0.0,0.0,0.0,0.0,0.0,0.0,0.0,0.0,0.0,0.0,0.0,0.0,0.0,0.0,0.0,0.0,0.0,0.0,0.0,0.0,0.0,0.0,0.0,0.0,0.0,0.0,-3.9737,-4.3005,-4.4709,-4.4764,-4.6706,-4.7859,-4.7975,-4.7121,0.0,0.0,0.0,0.0,0.0,0.0,0.0,0.0,0.0,0.0,0.0,0.0,0.0,0.0,0.0,0.0,0.0,0.0,0.0,0.0,0.0,0.0,0.0,0.0,0.0,0.0,0.0,-3.7759,0.0,0.0,0.0,0.0,0.0,0.0,0.0,0.0,0.0,0.0,0.0,0.0,0.0,0.0,-5.2396,-5.429,-5.3815,-5.338,0.0,0.0,-4.9053,-4.9316,-4.8512,-4.7175,0.0,0.0,0.0,0.0,0.0,0.0,0.0,0.0,0.0,0.0,0.0,0.0,0.0,0.0,0.0,0.0,0.0,0.0,0.0,0.0,0.0,0.0,0.0,0.0,0.0,0.0,0.0,0.0,0.0,0.0,0.0,0.0,0.0,0.0,0.0,0.0,0.0,0.0,0.0,0.0,0.0,0.0,0.0,0.0,0.0,0.0,0.0,0.0,0.0,0.0,0.0,0.0,0.0,0.0,-3.7936,-3.9314,-4.2847,-4.4673,-4.471,-4.5773,-4.6626,-4.713,-4.6046,-4.4383,0.0,0.0,0.0,0.0,0.0,0.0,0.0,0.0,0.0,0.0,0.0,0.0,0.0,0.0,0.0,0.0,0.0,0.0,0.0,0.0,0.0,0.0,0.0,0.0,0.0,0.0,0.0,0.0,0.0,0.0,0.0,0.0,0.0,0.0,0.0,0.0,0.0,0.0,0.0,0.0,0.0,-5.1488,-5.3091,-5.3357,-5.3886,0.0,-5.2816,-5.0795,-5.0991,-5.0914,-4.9475,-4.5281,0.0,0.0,0.0,0.0,0.0,0.0,0.0,0.0,0.0,0.0,0.0,0.0,0.0,0.0,0.0,0.0,0.0,0.0,0.0,0.0,0.0,0.0,0.0,0.0,0.0,0.0,0.0,0.0,0.0,0.0,0.0,0.0,0.0,0.0,0.0,0.0,0.0,0.0,0.0,0.0,0.0,0.0,0.0,0.0,0.0,0.0,0.0,0.0,0.0,0.0,0.0,0.0,0.0,-3.79,-3.9137,-4.1996,-4.3467,-4.3485,-4.3953,-4.4324,-4.4571,-4.4114,-4.2873,0.0,0.0,0.0,0.0,0.0,0.0,0.0,0.0,0.0,0.0,0.0,0.0,0.0,0.0,0.0,0.0,0.0,0.0,0.0,0.0,0.0,0.0,0.0,0.0,0.0,0.0,0.0,0.0,-4.0121,-3.97,-3.8922,0.0,0.0,0.0,0.0,0.0,0.0,0.0,0.0,0.0,0.0,-4.9621,-5.1598,-5.1953,0.0,0.0,-5.1896,-5.0679,-5.1138,-4.8917,-4.6714,-4.5483,-4.4198,0.0,0.0,0.0,0.0,0.0,0.0,0.0,0.0,0.0,0.0,0.0,0.0,0.0,0.0,0.0,0.0,0.0,0.0,0.0,0.0,0.0,0.0,0.0,0.0,0.0,0.0,0.0,0.0,0.0,0.0,0.0,0.0,0.0,0.0,0.0,0.0,0.0,0.0,0.0,0.0,0.0,0.0,0.0,0.0,0.0,0.0,0.0,0.0,0.0,0.0,0.0,0.0,-3.7797,-3.8649,-4.1144,-4.2422,-4.244,-4.2615,-4.2829,-4.2987,-4.2673,-4.1765,0.0,0.0,0.0,0.0,0.0,0.0,0.0,0.0,0.0,0.0,0.0,0.0,0.0,0.0,0.0,0.0,0.0,0.0,0.0,0.0,0.0,0.0,0.0,0.0,0.0,0.0,0.0,0.0,-4.0188,-3.9309,-3.8119,0.0,0.0,0.0,0.0,0.0,0.0,0.0,0.0,0.0,0.0,-4.8511,-5.072,-5.0717,-5.0902,-5.2109,-5.0667,-4.9605,-5.0083,-4.7241,-4.4934,-4.4716,0.0,0.0,0.0,0.0,0.0,0.0,0.0,0.0,0.0,0.0,0.0,0.0,0.0,0.0,0.0,0.0,0.0,0.0,0.0,0.0,0.0,0.0,0.0,0.0,0.0,0.0,0.0,-4.3404,0.0,0.0,-4.2086,0.0,0.0,0.0,0.0,0.0,0.0,0.0,0.0,0.0,0.0,0.0,0.0,0.0,0.0,0.0,0.0,0.0,0.0,0.0,0.0,0.0,0.0,-3.7613,-3.7704,-4.0433,-4.181,-4.1828,-4.2003,-4.237,-4.2882,-4.1839,-4.1144,-4.0915,0.0,0.0,0.0,0.0,0.0,0.0,0.0,0.0,0.0,0.0,0.0,0.0,0.0,0.0,0.0,0.0,0.0,0.0,0.0,0.0,0.0,0.0,0.0,0.0,0.0,0.0,-4.1735,-3.9468,-3.7411,0.0,0.0,0.0,0.0,0.0,0.0,0.0,0.0,0.0,-4.5075,-4.6618,-4.84,-5.0568,-4.9846,-4.9717,-5.1629,-4.9472,-4.7636,-4.7838,-4.676,-4.5154,0.0,0.0,0.0,0.0,0.0,0.0,0.0,0.0,0.0,0.0,0.0,0.0,0.0,0.0,0.0,0.0,0.0,0.0,0.0,0.0,0.0,0.0,0.0,0.0,0.0,0.0,0.0,-4.5076,-4.4984,0.0,0.0,0.0,0.0,0.0,0.0,0.0,0.0,0.0,0.0,0.0,-4.4268,-4.4287,0.0,0.0,0.0,0.0,0.0,0.0,0.0,0.0,0.0,0.0,0.0,0.0,-3.8092,-3.9076,-4.0466,-4.1201,-4.1201,-4.0906,-4.0884,-4.1068,-4.0661,-4.0213,-3.9675,0.0,0.0,0.0,0.0,0.0,0.0,0.0,0.0,0.0,0.0,0.0,0.0,0.0,0.0,0.0,0.0,0.0,0.0,0.0,0.0,0.0,0.0,0.0,0.0,0.0,-4.1323,0.0,0.0,0.0,0.0,0.0,0.0,0.0,0.0,0.0,0.0,0.0,-4.2852,-4.4447,-4.5197,-4.6062,-4.7313,-4.7512,-4.7962,0.0,0.0,0.0,0.0,0.0,0.0,0.0,0.0,0.0,0.0,0.0,0.0,0.0,0.0,-4.4722,-4.1753,-4.0603,-4.0096,-4.0096,0.0,0.0,0.0,0.0,0.0,0.0,0.0,0.0,0.0,0.0,0.0,0.0,0.0,0.0,-4.581,0.0,-4.4892,0.0,0.0,0.0,0.0,0.0,0.0,0.0,0.0,-4.4195,-4.4892,-4.5883,-4.5902,-4.5626,0.0,-4.5093,-4.3959,0.0,0.0,0.0,0.0,0.0,0.0,0.0,0.0,-3.859,-3.9508,-4.0246,-4.0625,-4.0625,-4.0286,-4.0113,-4.0113,-4.0113,-3.9757,-3.9005,-3.8082,-3.7077,0.0,0.0,0.0,0.0,0.0,0.0,0.0,0.0,0.0,0.0,0.0,0.0,0.0,0.0,0.0,0.0,0.0,0.0,0.0,0.0,0.0,0.0,0.0,-3.9858,0.0,0.0,0.0,0.0,0.0,0.0,0.0,0.0,0.0,-4.2407,-4.2538,-4.2876,-4.3864,-4.4575,-4.5128,-4.5567,0.0,0.0,0.0,0.0,0.0,0.0,0.0,-4.3809,-4.3792,-4.3014,-4.2608,-4.3274,-4.4468,-4.5229,-4.4959,0.0,0.0,-4.2878,-4.2016,-4.1593,-4.1296,-4.1238,-4.0984,-4.0248,-4.0502,-4.0527,0.0,0.0,0.0,0.0,0.0,0.0,0.0,0.0,-4.5002,-4.5847,0.0,-4.48,0.0,0.0,0.0,0.0,-4.3516,-4.4268,0.0,0.0,-4.5553,-4.5957,-4.603,-4.603,-4.5975,-4.603,-4.6709,-4.6214,-4.4528,-4.1526,0.0,0.0,0.0,0.0,0.0,0.0,-3.8988,-3.908,-3.9757,-4.0096,-4.0096,-4.0096,-4.0113,-4.0113,-4.0113,-3.9774,-3.9073,-3.8988,-3.8311,-3.6948,-3.6829,0.0,0.0,0.0,0.0,0.0,0.0,0.0,0.0,0.0,0.0,0.0,0.0,0.0,0.0,0.0,0.0,0.0,0.0,0.0,0.0,-3.9276,0.0,0.0,0.0,0.0,0.0,0.0,0.0,0.0,0.0,0.0,-4.184,-4.2676,-4.3253,-4.3383,0.0,0.0,0.0,0.0,-4.5808,-4.6312,-4.5381,-4.4575,-4.4466,-4.4485,-4.3988,-4.2557,0.0,0.0,-4.3527,-4.4028,-4.4316,-4.3572,-4.4062,-4.4987,-4.624,-4.519,-4.413,-4.3335,-4.2117,-4.1035,-4.0299,-4.0214,-4.0214,-5.0692,0.0,0.0,0.0,0.0,-4.7186,-4.7957,-4.904,-4.9058,-4.8985,-4.8802,-4.7498,0.0,0.0,0.0,0.0,0.0,0.0,-4.5002,-4.559,-4.6397,-4.7388,-4.8527,-4.7902,-4.7627,-4.7609,-4.7259,-4.6269,-4.4674,-4.2961,-4.1445,-4.0119,0.0,0.0,0.0,0.0,-3.9259,-3.9774,-3.9994,-4.0113,-4.0113,-4.0113,-4.0113,-4.0113,-4.0113,-3.9994,-3.9791,-3.9259,-3.8785,-3.8362,-3.7371,0.0,0.0,0.0,0.0,0.0,0.0,0.0,0.0,0.0,0.0,0.0,0.0,0.0,0.0,0.0,0.0,0.0,0.0,0.0,-3.9233,-3.8052,-3.7404,0.0,0.0,0.0,0.0,0.0,0.0,0.0,0.0,0.0,-4.1325,-4.2099,-4.2753,0.0,0.0,-4.405,-4.4014,-4.402,-4.4489,-4.572,-4.5154,0.0,-4.4552,-4.3651,-4.2821,-4.2371,-4.3115,-4.3646,-4.3426,-4.3578,-4.369,-4.3409,-4.3166,-4.3098,-4.3453,-4.3707,-4.3267,-4.2151,-4.188,-4.1525,-4.0434,-4.0493,-4.0713,-5.4197,-5.2252,-4.9829,-4.882,-4.882,-4.8802,-4.937,-5.0288,-5.0306,-5.0235,-4.9976,-4.882,-4.7498,-4.6067,-4.4947,0.0,0.0,0.0,-4.5608,-4.6397,-4.6874,-4.7645,-4.8545,-4.8086,-4.7664,-4.7315,-4.6507,-4.5535,-4.4363,-4.3125,-4.1937,-4.0779,0.0,0.0,-3.9411,-3.9453,-3.9673,-4.0079,-4.0113,-4.0113,-4.0113,-4.0113,-4.0113,-4.0113,-4.0113,-4.0113,-4.0113,-3.969,-3.9292,-3.8988,-3.8142,-3.7202,0.0,0.0,0.0,0.0,0.0,0.0,0.0,0.0,0.0,0.0,0.0,-3.6539,-3.6845,0.0,0.0,0.0,-3.8575,-3.8977,-3.8407,-3.7682,0.0,0.0,0.0,0.0,0.0,0.0,0.0,-4.0045,-4.0113,-4.04,-4.1102,-4.1593,-4.2134,-4.2861,-4.3217,-4.3291,-4.3014,0.0,-4.3301,-4.4231,-4.3961,-4.3673,-4.3684,-4.2895,-4.2303,-4.2303,-4.2658,-4.2946,-4.298,-4.298,-4.2963,-4.2929,-4.2591,-4.2202,-4.1914,-4.2236,-4.2303,-4.1407,-4.1542,-4.1441,-4.0333,-4.046,-4.0612,-5.6877,-5.6418,-5.194,-5.0051,-4.9978,-4.9996,-4.9921,-4.9774,-4.9812,-5.0178,-5.0655,-4.9021,-4.8233,-4.8012,-4.6562,0.0,-4.4837,-4.5645,-4.6397,-4.7094,-4.7149,-4.7168,-4.7094,-4.7039,-4.6581,-4.5792,-4.5002,-4.4346,-4.38,-4.2481,-4.1512,-4.0972,-4.0392,-4.0113,-4.0113,-4.0096,-4.0113,-4.0113,-4.0113,-4.0113,-4.0113,-4.0113,-4.0113,-4.0113,-4.0113,-4.0113,-4.0113,-4.0113,-3.9808,-3.9123,-3.8971,-3.8261,-3.688,0.0,0.0,0.0,0.0,0.0,0.0,0.0,0.0,0.0,0.0,0.0,0.0,0.0,0.0,0.0,-3.739,0.0,-3.7868,-3.7973,0.0,0.0,0.0,-3.9089,-3.9089,-3.9706,-4.0113,-4.0113,0.0,0.0,-4.1018,-4.117,-4.1424,-4.2033,-4.276,-4.3014,-4.2371,-4.2252,-4.2219,-4.2405,-4.2337,-4.2286,-4.2303,-4.2127,-4.1982,-4.2008,-4.21,-4.2066,-4.2066,-4.2083,-4.21,-4.2066,-4.2127,-4.1897,-4.1221,-4.1153,-4.1119,-4.1085,-4.1102,-4.0899,-4.0265,-4.0146,-4.0163,-5.7354,-5.6657,-5.4913,-5.3833,-5.3261,-5.3261,-5.2894,-5.2289,-5.1683,-5.1187,-5.0692,-4.9058,-4.7627,-4.6434,-4.6067,-4.5792,-4.5645,-4.6471,-4.6911,-4.7131,-4.7718,-4.77,-4.7094,-4.6489,-4.5773,-4.4984,-4.4176,-4.372,-4.3542,-4.2394,-4.1729,-4.1534,-4.0594,-4.0113,-4.0113,-4.0113,-4.0113,-4.0113,-4.0113,-4.0113,-4.0113,-4.0113,-4.0113,-4.0113,-4.0113,-4.0113,-4.0113,-4.0113,-4.0028,-3.9825,-3.8768,-3.7736,-3.6846,-3.6045,0.0,0.0,0.0,0.0,0.0,0.0,0.0,0.0,0.0,-3.7603,-3.6482,0.0,-3.8476,0.0,-3.7659,-3.7827,-3.7912,-3.8396,0.0,0.0,-3.974,-3.9842,-3.9859,-3.9994,-4.0113,-4.0113,-4.0113,-4.0163,-4.035,-4.0849,-4.1052,-4.0705,-4.1255,-4.1863,-4.2202,-4.1796,-4.1677,-4.2134,-4.2236,-4.2083,-4.1525,-4.0967,-4.0654,-4.062,-4.062,-4.0637,-4.0637,-4.062,-4.062,-4.062,-4.0595,-4.051,-4.0383,-4.0383,-4.035,-4.0367,-4.0367,-4.0316,-4.013,-4.0096,-4.0096,-5.774,-5.7262,-5.6473,-5.5666,-5.4858,-5.4179,-5.3628,-5.313,-5.2344,-5.1555,-5.0692,-4.904,-4.7609,-4.6489,-4.6819,-4.6783,-4.6507,-4.7259,-4.7626,-4.7645,-4.8085,-4.7682,-4.6581,-4.6104,-4.5296,-4.4158,-4.3699,-4.3356,-4.3124,-4.2226,-4.1664,-4.138,-4.0521,-4.0113,-4.0113,-4.0113,-4.0113,-4.0113,-4.0113,-4.0113,-4.0113,-4.0113,-4.0113,-4.0113,-4.0113,-4.0113,-4.0113,-4.0113,-4.0113,-4.0079,-3.9309,-3.8396,-3.733,-3.6552,-3.5757,0.0,0.0,0.0,0.0,0.0,0.0,0.0,0.0,0.0,0.0,0.0,-3.8239,-3.818,-3.801,-3.8176,-3.8819,-3.9242,-3.9656,-4.0062,-4.0113,-4.0113,-4.0113,-4.0113,-4.0113,-4.0113,-4.0113,-4.0113,-4.0113,-4.0443,-4.0587,-4.0163,-4.0451,-4.0849,-4.1196,-4.0933,-4.0865,-4.128,-4.1331,-4.1077,-4.0324,-3.9868,-3.9503,-3.9191,-3.9106,-3.9123,-3.9106,-3.9106,-3.9106,-3.9131,-3.9131,-3.9123,-3.9106,-3.9106,-3.9106,-3.9106,-3.9123,-3.936,-3.996,-3.9859,-3.9622,-5.7886,-5.7629,-5.695,-5.6124,-5.5188,-5.3812,-5.3185,-5.313,-5.2234,-5.1334,-5.0398,-4.8948,-4.7901,-4.7296,-4.7993,-4.792,-4.7296,-4.7957,-4.8324,-4.8324,-4.8324,-4.7443,-4.592,-4.5902,-4.5057,-4.3533,-4.3479,-4.3268,-4.277,-4.2103,-4.1516,-4.0995,-4.0392,-4.0113,-4.0113,-4.0113,-4.0113,-4.0113,-4.0113,-4.0113,-4.0113,-4.0113,-4.0113,-4.0113,-4.0113,-4.0062,-3.9977,-4.0062,-4.0062,-3.9977,-3.9876,-3.9225,-3.7973,-3.711,-3.666,0.0,-3.5368,0.0,0.0,0.0,0.0,0.0,0.0,0.0,0.0,-3.6569,-3.7625,-3.8911,-3.8514,-3.8667,-3.9859,-4.0045,-4.0113,-4.0113,-4.0113,-4.0113,-4.0113,-4.0113,-4.0113,-4.0113,-4.0028,-3.9977,-3.9943,-3.9893,-3.9808,-3.9723,-3.974,-3.9774,-3.9842,-4.0011,-4.018,-4.0096,-4.0011,-3.9842,-3.9242,-3.8971,-3.865,-3.8075,-3.8024,-3.7898,-3.799,-3.799,-3.7956,-3.7932,-3.8024,-3.7973,-3.7898,-3.7956,-3.7956,-3.8024,-3.7922,-3.8227,-3.9317,-3.9259,-3.887,-5.7226,-5.6055,-5.5886,-5.4987,-5.3647,-5.3335,-5.3185,-5.3093,-5.1665,-5.0196,-4.8783,-4.8434,-4.8233,-4.8085,-4.8233,-4.8233,-4.8086,-4.8233,-4.8324,-4.8324,-4.8324,-4.7443,-4.5938,-4.5902,-4.5057,-4.3552,-4.3479,-4.3444,-4.3321,-4.2306,-4.1729,-4.1599,-4.0594,-4.0113,-4.0113,0.0,0.0,0.0,-4.0113,-4.0113,-4.0113,-4.0113,-4.0113,-4.0113,-4.0113,0.0,-3.9283,-3.9791,-3.9842,-3.9249,-3.8633,0.0,0.0,0.0,0.0,0.0,0.0,0.0,0.0,0.0,0.0,0.0,-3.755,-3.7229,-3.6671,-3.7811,-3.8684,-3.8971,-3.9419,-3.9529,-3.9266,-3.9757,-4.0113,-4.0113,-4.0096,-4.0113,-4.0113,-4.0079,-4.0113,-4.0096,-3.9588,-3.9191,-3.9174,-3.87,-3.8362,-3.8396,-3.8311,-3.8311,-3.8362,-3.9351,-4.0045,-4.0079,-3.9571,-3.9174,-3.9022,-3.8464,-3.8075,-3.7898,-3.7898,-3.7872,-3.7838,-3.7855,-3.7889,-3.7855,-3.7898,-3.7848,-3.7848,-3.7898,-3.7797,-3.7882,-3.7398,-3.7286,-3.8125,-3.821,-3.8125,-5.7299,-5.6161,-5.5757,-5.4895,0.0,-5.3371,-5.2986,-5.2527,-5.1316,-4.9866,-4.8324,-4.8324,-4.8324,-4.8324,-4.8324,-4.8086,-4.7718,-4.8141,-4.8067,-4.77,-4.77,-4.7058,-4.5883,-4.5498,-4.4672,-4.3533,-4.3479,-4.3479,-4.3444,-4.2346,-4.181,-4.1771,-4.0648,-4.0113,-4.0113,-4.0113,-4.0113,-4.0113,-4.0113,-4.0113,-4.0113,-4.0113,-4.0113,-4.0113,-4.0113,0.0,0.0,0.0,0.0,0.0,0.0,0.0,0.0,-3.7138,0.0,-3.6732,-3.6715,-3.6755,-3.6812,-3.6812,-3.6772,-3.6766,-3.7127,-3.7499,-3.7838,-3.8244,-3.8599,-3.8937,-3.9022,-3.8853,-3.8514,-3.8802,-3.9005,-3.9005,-3.9005,-3.9005,-3.9005,-3.9022,-3.9005,-3.8971,-3.87,-3.8464,-3.8464,-3.8159,-3.7922,-3.7898,-3.7898,-3.7889,-3.7956,-3.8514,-3.8988,-3.9005,-3.8734,-3.8311,-3.798,-3.7635,-3.7195,-3.6924,-3.6766,-3.6789,-3.6749,-3.6749,-3.6789,-3.6766,-3.6749,-3.6766,-3.6766,-3.6749,-3.6749,-3.6755,-3.6468,-3.6315,-3.6738,-3.7077,-3.7347,-5.7317,-5.6528,-5.5721,-5.4913,-5.4124,-5.346,-5.2656,-5.172,0.0,0.0,0.0,-4.8324,-4.8324,-4.8287,-4.8159,-4.7718,-4.7149,-4.7626,-4.7516,-4.6892,-4.6892,-4.6471,-4.5681,-4.5021,-4.4268,-4.3516,-4.3479,-4.3479,-4.3444,-4.2346,-4.181,-4.1703,-4.0666,-4.0113,-4.0113,-4.0113,-4.0113,-4.0113,-4.0113,-4.0113,-4.0113,-4.0113,-4.0113,-4.0113,-4.0113,-4.0045,-3.991,-4.0028,-3.9774,-3.9039,-3.8988,-3.8717,-3.8142,-3.7855,-3.7719,-3.7702,-3.7601,-3.728,-3.6846,-3.6812,-3.6569,-3.6039,-3.6603,-3.7523,-3.8717,-3.8244,-3.8142,-3.8751,-3.8244,-3.7922,-3.7898,-3.7898,-3.7898,-3.7898,-3.7898,-3.7922,-3.7898,-3.7898,-3.799,-3.7889,-3.7838,-3.7702,-3.7702,-3.7533,-3.7493,-3.7459,-3.7358,-3.7516,-3.755,-3.777,-3.8075,-3.8183,-3.798,-3.7499,-3.7032,-3.6694,-3.6332,-3.5836,-3.5684,-3.5616,-3.5616,-3.5616,-3.5616,-3.5735,-3.5616,-3.5667,-3.5633,-3.5718,-3.5616,-3.56,-3.5481,-3.5397,-3.5447,-3.5808,-3.6169,-5.651,-5.5684,-5.4895,-5.4106,-5.3332,-5.324,-5.2323,-5.093,-5.0123,-4.9224,-4.8324,-4.8324,-4.8324,-4.8269,-4.7571,-4.7204,-4.7058,-4.6507,-4.6177,-4.6067,-4.6067,-4.5645,-4.4892,-4.4764,-4.4287,-4.3534,-4.3479,-4.3479,-4.3374,-4.2329,-4.181,-4.1682,-4.0666,-4.0113,-4.0113,-4.0113,-4.0113,-4.0113,-4.0113,-4.0113,-4.0113,-4.0113,-4.0113,-4.0113,-4.0113,-3.9808,-3.9174,-3.9774,-3.9774,-3.9039,-3.8988,-3.8954,-3.8802,-3.7635,-3.6965,-3.6931,-3.6315,-3.618,-3.6761,-3.6812,-3.7032,-3.7533,-3.7686,-3.7855,-3.8024,-3.7973,-3.7956,-3.8058,-3.7939,-3.7898,-3.7898,-3.7855,-3.7821,-3.7831,-3.7865,-3.7882,-3.7797,-3.7797,-3.778,-3.7787,-3.733,-3.6965,-3.6914,-3.6417,-3.6056,-3.5988,-3.6174,-3.5988,-3.6174,-3.7094,-3.798,-3.8255,-3.7604,-3.7072,-3.674,-3.6271,-3.5774,-3.5633,-3.5549,-3.5532,-3.56,-3.5616,-3.5616,-3.5616,-3.5616,-3.5583,-3.5566,-3.5616,-3.5532,-3.5481,-3.5131,-3.4742,-3.4726,-3.4421,-3.4184,-5.6326,-5.5519,-5.473,-5.394,-5.313,-5.2289,-5.1499,-5.0692,-4.9444,-4.8673,-4.8288,-4.7846,-4.7883,-4.8177,-4.7021,-4.6434,-4.6434,-4.6067,-4.5663,-4.5278,-4.5259,-4.504,-4.4673,-4.425,-4.3846,-4.3497,-4.3479,-4.3479,-4.3427,-4.2657,-4.2121,-4.1746,-4.0666,-4.0113,-4.0113,-4.0113,-4.0113,-4.0113,-4.0113,-4.0113,-4.0113,-4.0113,-4.0113,-4.0113,-4.0113,-3.996,-3.9622,-3.9926,-3.9774,-3.9005,-3.8599,-3.8582,-3.8937,-3.7625,-3.6981,-3.733,-3.6688,-3.6214,-3.6163,-3.6146,-3.6299,-3.6597,-3.6631,-3.6648,-3.6648,-3.7408,-3.7736,-3.7347,-3.7297,-3.711,-3.6721,-3.6631,-3.6648,-3.6654,-3.6648,-3.6648,-3.6631,-3.6648,-3.6648,-3.6637,-3.6383,-3.6163,-3.6146,-3.5842,-3.5616,-3.5616,-3.56,-3.5464,-3.5059,-3.5588,-3.6276,-3.6752,-3.6175,-3.5621,-3.5513,-3.526,-3.5013,-3.4996,-3.4996,-3.5182,-3.5464,-3.56,-3.56,-3.5616,-3.56,-3.5414,-3.5148,-3.4996,-3.4996,-3.4979,-3.4793,-3.4506,-3.4387,-3.3626,-3.3119,-5.618,-5.5519,-5.4546,-5.3775,-5.3059,-5.1481,-5.082,-5.0637,-4.904,-4.8324,-4.8195,-4.7645,-4.7608,-4.7865,-4.6526,-4.581,-4.5626,-4.5443,-4.5021,-4.4488,-4.4433,-4.4433,-4.4378,-4.3773,-4.3479,-4.3479,-4.3479,-4.3479,-4.3427,-4.2827,-4.2121,-4.1397,-4.0538,-4.0113,-4.0113,-4.0113,-4.0113,-4.0113,-4.0113,-4.0113,-4.0113,-4.0113,-4.0113,-4.0113,-4.0113,-4.0113,-4.0113,-4.0113,-3.9774,-3.9022,-3.8464,-3.8345,-3.865,-3.7523,-3.7026,-3.7516,-3.6941,-3.6248,-3.5684,-3.5616,-3.5616,-3.5616,-3.5616,-3.5616,-3.5701,-3.6664,-3.7178,-3.662,-3.6518,-3.6282,-3.5785,-3.5667,-3.5616,-3.5616,-3.5616,-3.5684,-3.5633,-3.5616,-3.5616,-3.5616,-3.5616,-3.5633,-3.5616,-3.5616,-3.5515,-3.5346,-3.5464,-3.5261,-3.4489,-3.4252,-3.4486,-3.4695,-3.4546,-3.4206,-3.3952,-3.4092,-3.4303,-3.4404,-3.4506,-3.4878,-3.5351,-3.5498,-3.5464,-3.5464,-3.5228,-3.5059,-3.4742,-3.4607,-3.4556,-3.4556,-3.437,-3.41,-3.3558,-3.2797,-3.2222,-5.5688,-5.5354,-5.3959,-5.3259,-5.302,-5.1499,-5.0839,-5.06,-4.9022,-4.8324,-4.8288,-4.8214,-4.7791,-4.7131,-4.6305,-4.5535,-4.4837,-4.4066,-4.3735,-4.3644,-4.3625,-4.3589,-4.3644,-4.3516,-4.3479,-4.3479,-4.3479,-4.3479,-4.3444,-4.2424,-4.1353,-4.036,-4.0129,-4.0113,-4.0113,-4.0113,-4.0113,-4.0113,-4.0113,-4.0113,-4.0113,-4.0113,-4.0113,-4.0113,-4.0113,-4.0113,-4.0062,-4.0113,-3.9757,-3.9073,-3.8886,-3.8582,-3.8024,-3.7235,-3.6829,-3.688,-3.618,-3.565,-3.5616,-3.5616,-3.5616,-3.5616,-3.5616,-3.5616,-3.5616,-3.5752,-3.5819,-3.5752,-3.5718,-3.5701,-3.5616,-3.5616,-3.5616,-3.5616,-3.5616,-3.5616,-3.5616,-3.5616,-3.5616,-3.5616,-3.5616,-3.5616,-3.5616,-3.5616,-3.5346,-3.4912,-3.5318,-3.5131,-3.3914,-3.3626,-3.3393,-3.3222,-3.3194,-3.3263,-3.3001,-3.3208,-3.3639,-3.4235,-3.4421,-3.4658,-3.4991,-3.4979,-3.4776,-3.5177,-3.4602,-3.4303,-3.4878,-3.4996,-3.4489,-3.4404,-3.3964,-3.3186,-3.1968,-3.1495,-3.1495,-5.5299,-5.4785,-5.3683,-5.3185,-5.302,-5.1977,-5.1242,-5.0692,-4.9572,-4.8783,-4.8343,-4.8324,-4.7865,-4.7076,-4.6269,-4.5461,-4.4709,-4.436,-4.3938,-4.3516,-4.3479,-4.3479,-4.3479,-4.3479,-4.3479,-4.3479,-4.3479,-4.3479,-4.3285,-4.2346,-4.1397,-4.0625,-4.0262,-4.0113,-4.0113,-4.0113,-4.0113,-4.0113,-4.0113,-4.0113,-4.0113,-4.0113,-4.0113,-4.0113,-4.0113,-3.9876,-3.9495,-3.9428,-3.9106,-3.8396,-3.7939,-3.777,-3.7889,-3.6755,-3.6315,-3.6694,-3.6045,-3.5616,-3.5616,-3.5616,-3.5616,-3.5616,-3.5616,-3.5616,-3.5616,-3.5616,-3.5616,-3.5616,-3.5616,-3.5616,-3.5616,-3.5616,-3.5616,-3.5616,-3.5616,-3.5616,-3.5616,-3.5616,-3.5616,-3.5616,-3.5616,-3.56,-3.5616,-3.5616,-3.5464,-3.5216,-3.543,-3.4996,-3.3677,-3.3389,-3.2919,-3.211,-3.1989,-3.1999,-3.1925,-3.2371,-3.2831,-3.3123,-3.319,-3.3457,-3.41,-3.4134,-3.41,-3.4844,-3.4353,-3.4134,-3.4742,-3.4759,-3.4472,-3.432,-3.388,-3.3068,-3.2056,-3.1515,-3.1258,-5.4913,-5.4308,-5.3534,-5.3185,-5.3093,-5.2105,-5.1334,-5.0692,-4.9682,-4.8893,-4.8343,-4.8324,-4.7865,-4.7058,-4.6269,-4.5461,-4.4745,-4.447,-4.4066,-4.3516,-4.3479,-4.3479,-4.3479,-4.3479,-4.3479,-4.3479,-4.3479,-4.3427,-4.3196,-4.2306,-4.149,-4.0903,-4.0368,-4.0113,-4.0113,-4.0113,-4.0113,-4.0113,-4.0113,-4.0113,-4.0113,-4.0113,-4.0113,-4.0113,-4.0113,-3.9757,-3.9039,-3.8988,-3.8548,-3.7635,-3.71,-3.6924,-3.7195,-3.6191,-3.5876,-3.6332,-3.596,-3.5616,-3.5616,-3.5616,-3.5616,-3.5616,-3.5616,-3.5616,-3.5616,-3.5616,-3.5616,-3.5616,-3.5616,-3.5616,-3.5616,-3.5616,-3.5616,-3.5616,-3.5616,-3.5616,-3.5616,-3.5616,-3.5616,-3.5616,-3.5616,-3.5498,-3.5363,-3.543,-3.5447,-3.4957,-3.5059,-3.4776,-3.3508,-3.3034,-3.2611,-3.141,-3.1224,-3.1224,-3.1224,-3.1613,-3.1989,-3.2276,-3.2395,-3.2699,-3.322,-3.3389,-3.3457,-3.4167,-3.4184,-3.4353,-3.4573,-3.4539,-3.4286,-3.4049,-3.3491,-3.2713,-3.1938,-3.1478,-3.1258,-5.4418,-5.4271,-5.3537,-5.3185,-5.3075,-5.1591,-5.0857,-5.071,-4.9132,-4.8361,-4.8324,-4.8324,-4.7865,-4.7113,-4.6342,-4.548,-4.4709,-4.4011,-4.3663,-4.3552,-4.3515,-4.3479,-4.3479,-4.3479,-4.3479,-4.3479,-4.3479,-4.325,-4.2751,-4.2142,-4.149,-4.0903,-4.0392,-4.0121,-4.0113,-4.0113,-4.0113,-4.0113,-4.0113,-4.0113,-4.0113,-4.0113,-4.0113,-4.0113,-4.0113,-3.9757,-3.9056,-3.8971,-3.8352,-3.6897,-3.6778,-3.6468,-3.5836,-3.5667,-3.5633,-3.5667,-3.5633,-3.5616,-3.5616,-3.5616,-3.5616,-3.5616,-3.5616,-3.5616,-3.5616,-3.5616,-3.5616,-3.5616,-3.5616,-3.5616,-3.5616,-3.5616,-3.5616,-3.5616,-3.5616,-3.5616,-3.5583,-3.5532,-3.5583,-3.5532,-3.543,-3.5148,-3.4641,-3.5182,-3.4873,-3.4235,-3.4201,-3.41,-3.2966,-3.2496,-3.2056,-3.1515,-3.119,-3.119,-3.1207,-3.1343,-3.165,-3.1887,-3.2124,-3.2412,-3.2983,-3.3406,-3.3406,-3.3474,-3.3575,-3.3829,-3.4286,-3.4303,-3.3998,-3.3491,-3.251,-3.1749,-3.1596,-3.1343,-3.119,-5.4087,-5.3628,-5.3335,-5.3185,-5.3057,-5.2013,-5.1298,-5.071,-4.9609,-4.882,-4.8361,-4.8324,-4.8141,-4.7828,-4.7003,-4.6214,-4.5443,-4.4635,-4.4268,-4.4213,-4.3753,-4.3479,-4.3479,-4.3479,-4.3479,-4.3479,-4.3479,-4.3232,-4.2732,-4.246,-4.1856,-4.1041,-4.0726,-4.0449,-4.0171,-4.0113,-4.0113,-4.0113,-4.0113,-4.0113,-4.0113,-4.0113,-4.0113,-4.0113,-4.0113,-3.9529,-3.8328,-3.8294,-3.7601,-3.6096,-3.6028,-3.591,-3.5633,-3.5616,-3.5616,-3.5616,-3.5616,-3.5616,-3.5616,-3.5616,-3.5616,-3.5616,-3.5616,-3.5616,-3.5616,-3.5616,-3.5616,-3.5616,-3.5616,-3.5616,-3.5616,-3.5616,-3.56,-3.56,-3.56,-3.5549,-3.5498,-3.5216,-3.4912,-3.4827,-3.4523,-3.4061,-3.4066,-3.4438,-3.4658,-3.4252,-3.432,-3.3947,-3.322,-3.2628,-3.2005,-3.141,-3.119,-3.119,-3.119,-3.119,-3.1309,-3.1444,-3.1596,-3.163,-3.2002,-3.2239,-3.2239,-3.2747,-3.2933,-3.344,-3.3931,-3.3761,-3.3491,-3.2919,-3.1921,-3.1515,-3.1295,-3.1207,-3.119,-5.372,-5.3222,-5.3185,-5.3185,-5.3057,-5.205,-5.1316,-5.0692,-4.9646,-4.8838,-4.8379,-4.8324,-4.8324,-4.8177,-4.7443,-4.6984,-4.6562,-4.559,-4.4819,-4.4342,-4.4011,-4.3736,-4.3533,-4.3479,-4.3479,-4.3479,-4.3479,-4.3286,-4.2976,-4.2788,-4.2162,-4.1246,-4.1018,-4.0648,-4.0179,-4.0113,-4.0113,-4.0113,-4.0113,-4.0113,-4.0113,-4.0113,-4.0113,-4.0113,-4.0113,-3.9411,-3.799,-3.7686,-3.6975,-3.5819,-3.5616,-3.5616,-3.5616,-3.5616,-3.5616,-3.5616,-3.5616,-3.5616,-3.5616,-3.5616,-3.5616,-3.5616,-3.5616,-3.5616,-3.5616,-3.5616,-3.5616,-3.5616,-3.5616,-3.5616,-3.5549,-3.5402,-3.5245,-3.5194,-3.5025,-3.489,-3.4856,-3.4455,-3.4184,-3.4083,-3.3795,-3.3406,-3.3186,-3.3728,-3.3914,-3.3867,-3.3816,-3.3563,-3.3085,-3.2408,-3.1819,-3.1345,-3.119,-3.119,-3.119,-3.119,-3.119,-3.1292,-3.1343,-3.1241,-3.1241,-3.1326,-3.1512,-3.2022,-3.2547,-3.3119,-3.3322,-3.3169,-3.2814,-3.2361,-3.1904,-3.143,-3.1292,-3.1207,-3.119,-5.3203,-5.3185,-5.3185,-5.313,-5.2894,-5.1518,-5.0839,-5.0472,-4.9058,-4.8398,-4.8324,-4.8324,-4.8324,-4.8159,-4.7571,-4.7498,-4.7535,-4.6544,-4.5241,-4.3993,-4.4287,-4.4121,-4.3533,-4.3479,-4.3479,-4.3479,-4.3479,-4.3479,-4.341,-4.2939,-4.2342,-4.1768,-4.1155,-4.0631,-4.0096,-4.0113,-4.0113,-4.0113,-4.0113,-4.0113,-4.0113,-4.0113,-4.0113,-4.0113,-4.0062,-3.9351,-3.7973,-3.728,-3.6569,-3.5752,-3.5616,-3.5616,-3.5616,-3.5616,-3.5616,-3.5616,-3.5616,-3.5616,-3.5616,-3.5616,-3.5616,-3.5616,-3.5616,-3.5616,-3.5616,-3.5616,-3.5616,-3.5616,-3.56,-3.5583,-3.5414,-3.4912,-3.4523,-3.4438,-3.4083,-3.3677,-3.3575,-3.344,-3.3372,-3.3305,-3.3169,-3.3017,-3.2666,-3.2916,-3.3169,-3.275,-3.2564,-3.2581,-3.2446,-3.187,-3.1309,-3.1207,-3.119,-3.119,-3.119,-3.119,-3.119,-3.1207,-3.1224,-3.119,-3.1292,-3.1396,-3.1393,-3.1802,-3.2121,-3.2679,-3.2916,-3.2747,-3.2357,-3.1938,-3.1599,-3.1362,-3.1275,-3.119,-3.119,-5.3185,-5.3185,-5.3185,-5.2876,-5.227,-5.1242,-5.0508,-4.9884,-4.8765,-4.8324,-4.8324,-4.8324,-4.8324,-4.825,-4.8012,-4.7462,-4.6746,-4.7113,-4.6673,-4.5223,-4.4323,-4.3808,-4.3534,-4.3479,-4.3479,-4.3479,-4.3479,-4.3479,-4.3392,-4.2976,-4.2382,-4.181,-4.1201,-4.0648,-4.0121,-4.0113,-4.0113,-4.0113,-4.0113,-4.0113,-4.0113,-4.0113,-4.0113,-4.0045,-3.9639,-3.887,-3.7973,-3.7686,-3.6924,-3.5684,-3.5616,-3.5616,-3.5616,-3.5616,-3.5616,-3.5616,-3.5616,-3.5616,-3.5616,-3.5616,-3.5616,-3.5616,-3.5616,-3.5616,-3.5616,-3.5616,-3.5616,-3.5616,-3.56,-3.543,-3.4861,-3.4184,-3.3998,-3.4438,-3.3846,-3.3322,-3.322,-3.2916,-3.2429,-3.1968,-3.1884,-3.1749,-3.1752,-3.2188,-3.253,-3.2344,-3.2242,-3.2242,-3.2158,-3.163,-3.1224,-3.119,-3.119,-3.119,-3.119,-3.119,-3.119,-3.119,-3.119,-3.119,-3.1292,-3.1379,-3.1376,-3.1495,-3.1833,-3.2087,-3.2341,-3.2239,-3.185,-3.1613,-3.136,-3.1241,-3.1207,-3.119,-3.119,-5.2747,-5.2729,-5.2435,-5.2032,-5.1481,-5.0692,-5.0068,-4.9519,-4.8673,-4.8324,-4.8324,-4.8324,-4.8324,-4.8324,-4.8324,-4.7755,-4.6929,-4.7609,-4.715,-4.5938,-4.4966,-4.4103,-4.3589,-4.3479,-4.3479,-4.3479,-4.3479,-4.3479,-4.3462,-4.3142,-4.2599,-4.1853,-4.1407,-4.0827,-4.0196,-4.0113,-4.0113,-4.0113,-4.0113,-4.0113,-4.0113,-4.0113,-4.0113,-4.0028,-3.9656,-3.8928,-3.8041,-3.7898,-3.7172,-3.5904,-3.5616,-3.5616,-3.5616,-3.5616,-3.5616,-3.5616,-3.5616,-3.5616,-3.5616,-3.5616,-3.5616,-3.5616,-3.5616,-3.5616,-3.5616,-3.5616,-3.5616,-3.5616,-3.56,-3.5414,-3.4912,-3.3981,-3.3694,-3.3998,-3.3119,-3.2645,-3.251,-3.2171,-3.1765,-3.1376,-3.1258,-3.119,-3.1326,-3.1515,-3.1904,-3.1904,-3.1887,-3.1887,-3.1802,-3.1478,-3.1292,-3.119,-3.119,-3.119,-3.119,-3.119,-3.119,-3.119,-3.119,-3.119,-3.1241,-3.1241,-3.1258,-3.1275,-3.1495,-3.1579,-3.1782,-3.163,-3.1343,-3.1207,-3.119,-3.119,-3.119,-3.119,-3.119,-5.1977,-5.183,-5.1132,-5.0839,-5.0655,-4.9978,-4.9592,-4.9334,-4.8655,-4.8324,-4.8324,-4.8324,-4.8251,-4.8233,-4.8233,-4.8104,-4.7993,-4.7406,-4.6672,-4.5957,-4.5461,-4.48,-4.3626,-4.3479,-4.3479,-4.3479,-4.3479,-4.3479,-4.3479,-4.3339,-4.2903,-4.1877,-4.1621,-4.1173,-4.0303,-4.0113,-4.0113,-4.0113,-4.0113,-4.0113,-4.0113,-4.0113,-4.0113,-4.0113,-4.0028,-3.9368,-3.8125,-3.7669,-3.6969,-3.5802,-3.5616,-3.5616,-3.5616,-3.5616,-3.5616,-3.5616,-3.5616,-3.5515,-3.5532,-3.5566,-3.5532,-3.543,-3.5532,-3.5616,-3.5616,-3.5616,-3.5616,-3.5616,-3.5616,-3.5549,-3.5177,-3.4235,-3.3474,-3.3085,-3.2171,-3.1495,-3.1258,-3.1275,-3.1258,-3.1224,-3.119,-3.119,-3.119,-3.1258,-3.1275,-3.1292,-3.1309,-3.1343,-3.1326,-3.1258,-3.1207,-3.119,-3.119,-3.119,-3.119,-3.119,-3.119,-3.119,-3.119,-3.119,-3.119,-3.119,-3.119,-3.119,-3.119,-3.1224,-3.1241,-3.1207,-3.119,-3.119,-3.119,-3.119,-3.119,-3.119,-3.119,-5.1646,-5.1114,-5.0875,-5.0472,-4.9939,-4.9665,-4.9205,-4.8673,-4.8416,-4.8324,-4.8306,-4.8324,-4.7938,-4.7516,-4.8031,-4.77,-4.6911,-4.6929,-4.6287,-4.5168,-4.5021,-4.447,-4.3663,-4.3479,-4.3479,-4.3479,-4.3479,-4.3479,-4.348,-4.3178,-4.256,-4.181,-4.1446,-4.0868,-4.0179,-4.0121,-4.0113,-4.0113,-4.0113,-4.0113,-4.0113,-4.0113,-4.0113,-4.0113,-4.0113,-3.9385,-3.7956,-3.6783,-3.609,-3.5701,-3.5616,-3.5616,-3.5616,-3.5616,-3.5616,-3.5616,-3.5583,-3.5368,-3.5047,-3.5318,-3.5334,-3.4912,-3.5261,-3.56,-3.5616,-3.56,-3.56,-3.5616,-3.56,-3.538,-3.481,-3.3981,-3.3051,-3.1935,-3.1427,-3.119,-3.119,-3.119,-3.119,-3.119,-3.119,-3.119,-3.119,-3.119,-3.119,-3.119,-3.119,-3.119,-3.119,-3.119,-3.119,-3.119,-3.119,-3.119,-3.119,-3.119,-3.119,-3.119,-3.119,-3.119,-3.119,-3.119,-3.119,-3.119,-3.119,-3.1207,-3.1207,-3.119,-3.119,-3.119,-3.119,-3.119,-3.119,-3.119,-3.119,-5.071,-5.027,-4.9903,-4.9481,-4.9058,-4.9058,-4.8746,-4.8379,-4.8324,-4.8324,-4.8251,-4.792,-4.7535,-4.7149,-4.7223,-4.6819,-4.6067,-4.6379,-4.5865,-4.4838,-4.4378,-4.3938,-4.357,-4.3479,-4.3479,-4.3479,-4.3479,-4.3479,-4.3462,-4.3178,-4.2599,-4.1958,-4.1725,-4.1145,-4.0154,-4.0343,-4.0311,-4.0129,-4.0113,-4.0113,-4.0113,-4.0113,-4.0113,-4.0113,-4.0062,-3.9419,-3.7973,-3.6755,-3.5994,-3.5718,-3.5616,-3.5616,-3.5616,-3.5616,-3.5616,-3.5616,-3.56,-3.538,-3.5098,-3.5148,-3.4928,-3.4658,-3.4962,-3.5098,-3.5199,-3.5363,-3.5616,-3.5616,-3.5616,-3.5402,-3.4912,-3.4032,-3.278,-3.1579,-3.119,-3.119,-3.119,-3.119,-3.119,-3.119,-3.119,-3.119,-3.119,-3.119,-3.119,-3.119,-3.119,-3.119,-3.119,-3.119,-3.119,-3.119,-3.119,-3.119,-3.119,-3.119,-3.119,-3.119,-3.119,-3.119,-3.119,-3.119,-3.119,-3.119,-3.119,-3.119,-3.119,-3.119,-3.119,-3.119,-3.119,-3.119,-3.119,-3.119,-3.119,-4.9537,-4.9408,-4.8618,-4.8324,-4.8361,-4.8324,-4.8361,-4.8324,-4.8324,-4.8324,-4.814,-4.7461,-4.7076,-4.6929,-4.6397,-4.5902,-4.5736,-4.5736,-4.5259,-4.4507,-4.3938,-4.3516,-4.3516,-4.3479,-4.3479,-4.3479,-4.3479,-4.3479,-4.3479,-4.3462,-4.2922,-4.2284,-4.242,-4.1807,-4.0767,-4.0709,-4.0601,-4.0311,-4.0146,-4.0113,-4.0113,-4.0113,-4.0113,-4.0062,-3.9673,-3.9106,-3.799,-3.7009,-3.6265,-3.5616,-3.5616,-3.5616,-3.5616,-3.5616,-3.5616,-3.5616,-3.56,-3.5532,-3.5397,-3.4928,-3.4624,-3.459,-3.4607,-3.4607,-3.4878,-3.5318,-3.5616,-3.5616,-3.5616,-3.5414,-3.494,-3.4066,-3.2814,-3.1562,-3.119,-3.119,-3.119,-3.119,-3.119,-3.119,-3.119,-3.119,-3.119,-3.119,-3.119,-3.119,-3.119,-3.119,-3.119,-3.119,-3.119,-3.119,-3.119,-3.119,-3.119,-3.119,-3.119,-3.119,-3.119,-3.119,-3.119,-3.119,-3.119,-3.119,-3.119,-3.119,-3.119,-3.119,-3.119,-3.119,-3.119,-3.119,-3.119,-3.119,-3.119,-4.9205,-4.8581,-4.836,-4.8324,-4.8324,-4.8324,-4.8324,-4.8324,-4.8324,-4.8324,-4.8103,-4.7424,-4.6746,-4.6177,-4.5883,-4.5571,-4.4984,-4.4929,-4.4525,-4.3809,-4.3644,-4.3497,-4.3479,-4.3479,-4.3479,-4.3479,-4.3479,-4.3479,-4.3479,-4.3444,-4.3178,-4.2635,-4.2578,-4.2282,-4.153,-4.1018,-4.0874,-4.0655,-4.0336,-4.0113,-4.0113,-4.0113,-4.0079,-3.9977,-3.9089,-3.8345,-3.7753,-3.6563,-3.5802,-3.565,-3.5616,-3.5616,-3.5616,-3.5616,-3.5616,-3.5616,-3.5583,-3.5363,-3.4945,-3.5081,-3.5098,-3.459,-3.4912,-3.5363,-3.5346,-3.5447,-3.56,-3.5616,-3.5583,-3.5143,-3.4167,-3.3677,-3.2662,-3.1579,-3.119,-3.119,-3.119,-3.119,-3.119,-3.119,-3.119,-3.119,-3.119,-3.119,-3.119,-3.119,-3.119,-3.119,-3.119,-3.119,-3.119,-3.119,-3.119,-3.119,-3.119,-3.119,-3.119,-3.119,-3.119,-3.119,-3.119,-3.119,-3.119,-3.119,-3.119,-3.119,-3.119,-3.119,-3.119,-3.119,-3.119,-3.119,-3.119,-3.119,-3.119,-4.871,-4.8324,-4.8324,-4.8324,-4.8324,-4.8324,-4.8324,-4.8324,-4.8324,-4.8324,-4.8031,-4.7076,-4.6305,-4.5828,-4.5131,-4.4488,-4.4232,-4.414,-4.3938,-4.3588,-4.3497,-4.3479,-4.3479,-4.3479,-4.3479,-4.3479,-4.3479,-4.3479,-4.3479,-4.3444,-4.3214,-4.277,-4.2939,-4.2598,-4.1898,-4.1451,-4.1201,-4.0827,-4.0392,-4.0113,-4.0113,-4.0113,-3.9859,-3.9723,-3.9039,-3.8565,-3.7364,-3.706,-3.6326,-3.5819,-3.5616,-3.5616,-3.5616,-3.5616,-3.5616,-3.5616,-3.56,-3.5447,-3.5233,-3.5013,-3.4878,-3.4578,-3.4912,-3.5013,-3.5194,-3.5346,-3.56,-3.5616,-3.5481,-3.4991,-3.3592,-3.2983,-3.229,-3.1546,-3.1207,-3.119,-3.119,-3.119,-3.119,-3.119,-3.119,-3.119,-3.119,-3.119,-3.119,-3.119,-3.119,-3.119,-3.119,-3.119,-3.119,-3.119,-3.119,-3.119,-3.119,-3.119,-3.119,-3.119,-3.119,-3.119,-3.119,-3.119,-3.119,-3.119,-3.119,-3.119,-3.119,-3.119,-3.119,-3.119,-3.119,-3.119,-3.119,-3.119,-3.119,-4.8324,-4.8324,-4.8324,-4.8324,-4.8324,-4.8324,-4.8324,-4.8324,-4.8324,-4.8324,-4.7994,-4.6599,-4.5975,-4.5571,-4.4268,-4.3588,-4.3516,-4.357,-4.3534,-4.3497,-4.3479,-4.3479,-4.3479,-4.3479,-4.3479,-4.3479,-4.3479,-4.3479,-4.3479,-4.3462,-4.3286,-4.2976,-4.325,-4.3014,-4.2266,-4.1814,-4.1556,-4.111,-4.0466,-4.0113,-4.0113,-4.0079,-3.9757,-3.9276,-3.914,-3.8539,-3.732,-3.6975,-3.68,-3.5718,-3.5616,-3.5616,-3.5616,-3.5616,-3.5616,-3.5616,-3.5616,-3.5549,-3.5414,-3.5098,-3.4793,-3.4658,-3.4709,-3.4726,-3.4912,-3.5284,-3.5532,-3.5616,-3.5481,-3.4991,-3.3592,-3.3237,-3.251,-3.1799,-3.1512,-3.136,-3.1362,-3.1309,-3.119,-3.119,-3.119,-3.119,-3.119,-3.119,-3.119,-3.119,-3.119,-3.119,-3.119,-3.119,-3.119,-3.119,-3.119,-3.119,-3.119,-3.119,-3.119,-3.119,-3.119,-3.119,-3.119,-3.119,-3.119,-3.119,-3.119,-3.119,-3.119,-3.119,-3.119,-3.119,-3.119,-3.119,-3.119,-3.119,-3.119,-4.8324,-4.8324,-4.8324,-4.8324,-4.8306,-4.8306,-4.8269,-4.8324,-4.8251,-4.8287,-4.8049,-4.6636,-4.5883,-4.5443,-4.4231,-4.3533,-4.3479,-4.3479,-4.3479,-4.3479,-4.3479,-4.3479,-4.3479,-4.3479,-4.3479,-4.3479,-4.3479,-4.3479,-4.3479,-4.3479,-4.341,-4.3375,-4.3427,-4.3249,-4.2922,-4.2346,-4.1768,-4.1402,-4.0618,-4.0121,-4.0113,-4.0062,-3.974,-3.9039,-3.8802,-3.799,-3.7026,-3.6315,-3.5836,-3.5616,-3.5616,-3.5616,-3.5616,-3.5616,-3.5616,-3.5616,-3.5616,-3.5616,-3.5549,-3.5481,-3.538,-3.5397,-3.5329,-3.5346,-3.5436,-3.552,-3.56,-3.5583,-3.5464,-3.4974,-3.3588,-3.3592,-3.366,-3.3102,-3.2391,-3.2056,-3.1955,-3.1579,-3.1207,-3.119,-3.119,-3.119,-3.119,-3.119,-3.119,-3.119,-3.119,-3.119,-3.119,-3.119,-3.119,-3.119,-3.119,-3.119,-3.119,-3.119,-3.119,-3.119,-3.119,-3.119,-3.119,-3.119,-3.119,-3.119,-3.119,-3.119,-3.119,-3.119,-3.119,-3.119,-3.119,-3.119,-3.119,-3.119,-3.119,-4.8324,-4.8324,-4.8324,-4.803,-4.77,-4.7663,-4.7663,-4.7663,-4.7663,-4.7663,-4.7314,-4.6434,-4.5645,-4.5057,-4.4085,-4.3497,-4.3479,-4.3479,-4.3479,-4.3479,-4.3479,-4.3479,-4.3479,-4.3479,-4.3479,-4.3479,-4.3479,-4.3479,-4.3479,-4.3479,-4.3479,-4.3479,-4.3479,-4.3479,-4.3232,-4.2384,-4.1895,-4.1534,-4.072,-4.0113,-4.0113,-4.0096,-3.9706,-3.9073,-3.865,-3.8108,-3.7381,-3.6637,-3.6265,-3.6163,-3.5819,-3.565,-3.5616,-3.5616,-3.5616,-3.5616,-3.5616,-3.5616,-3.5616,-3.5616,-3.5583,-3.56,-3.5616,-3.5616,-3.5616,-3.56,-3.5566,-3.5498,-3.5109,-3.4776,-3.4066,-3.4032,-3.3728,-3.3389,-3.2763,-3.2395,-3.2141,-3.1616,-3.1326,-3.119,-3.119,-3.119,-3.119,-3.119,-3.119,-3.119,-3.119,-3.119,-3.119,-3.119,-3.119,-3.119,-3.119,-3.119,-3.119,-3.119,-3.119,-3.119,-3.119,-3.119,-3.119,-3.119,-3.119,-3.119,-3.119,-3.119,-3.119,-3.119,-3.119,-3.119,-3.119,-3.119,-3.119,-3.119,-3.119,-4.8067,-4.8067,-4.7884,-4.7443,-4.6911,-4.6856,-4.6856,-4.6856,-4.6856,-4.6856,-4.6727,-4.5993,-4.5278,-4.4635,-4.3956,-4.3479,-4.3479,-4.3479,-4.3479,-4.3479,-4.3479,-4.3479,-4.3479,-4.3479,-4.3479,-4.3479,-4.3479,-4.3479,-4.3479,-4.3479,-4.3479,-4.3479,-4.3479,-4.341,-4.3087,-4.2284,-4.1895,-4.1331,-4.0689,-4.0121,-4.0113,-4.0062,-3.9757,-3.9073,-3.8988,-3.8548,-3.755,-3.7009,-3.6575,-3.6315,-3.596,-3.5616,-3.5616,-3.5616,-3.5616,-3.5616,-3.5616,-3.5616,-3.5616,-3.5616,-3.5616,-3.5616,-3.5616,-3.5532,-3.5329,-3.5228,-3.5228,-3.5092,-3.5109,-3.4709,-3.4404,-3.415,-3.3998,-3.3778,-3.322,-3.2496,-3.2324,-3.1901,-3.1292,-3.119,-3.119,-3.119,-3.119,-3.119,-3.119,-3.119,-3.119,-3.119,-3.119,-3.119,-3.119,-3.119,-3.119,-3.119,-3.119,-3.119,-3.119,-3.119,-3.119,-3.119,-3.119,-3.119,-3.119,-3.119,-3.119,-3.119,-3.119,-3.119,-3.119,-3.119,-3.119,-3.119,-3.119,-3.119,-3.119,-4.7241,-4.7186,-4.6507,-4.6104,-4.6049,-4.603,-4.6049,-4.6049,-4.6049,-4.603,-4.5993,-4.5278,-4.4819,-4.447,-4.3846,-4.3516,-4.3479,-4.3479,-4.3479,-4.3479,-4.3479,-4.3479,-4.3479,-4.3479,-4.3479,-4.3479,-4.3479,-4.3479,-4.3479,-4.3479,-4.3479,-4.3479,-4.3462,-4.3286,-4.2846,-4.2183,-4.1534,-4.1018,-4.0417,-4.0113,-4.0113,-4.0096,-3.9706,-3.9216,-3.8853,-3.8379,-3.7337,-3.6857,-3.6491,-3.596,-3.5735,-3.5616,-3.5616,-3.5616,-3.5616,-3.5616,-3.5616,-3.5616,-3.5616,-3.5498,-3.5464,-3.543,-3.543,-3.5194,-3.4861,-3.4692,-3.4539,-3.3744,-3.4636,-3.5131,-3.4861,-3.4996,-3.5177,-3.4726,-3.3905,-3.3309,-3.2949,-3.185,-3.1275,-3.119,-3.119,-3.119,-3.119,-3.119,-3.119,-3.119,-3.119,-3.119,-3.119,-3.119,-3.119,-3.119,-3.119,-3.119,-3.119,-3.119,-3.119,-3.119,-3.119,-3.119,-3.119,-3.119,-3.119,-3.119,-3.119,-3.119,-3.119,-3.119,-3.119,-3.119,-3.119,-3.119,-3.119,-3.119,-3.119,-4.689,-4.7021,-4.6232,-4.5626,-4.5259,-4.5223,-4.5223,-4.5223,-4.5223,-4.5241,-4.5168,-4.4892,-4.447,-4.4048,-4.3625,-4.3497,-4.3479,-4.3479,-4.3479,-4.3479,-4.3479,-4.3479,-4.3479,-4.3479,-4.3479,-4.3479,-4.3479,-4.3479,-4.3479,-4.3479,-4.3479,-4.3479,-4.3462,-4.3232,-4.2655,-4.2101,-4.1512,-4.0926,-4.0417,-4.0121,-4.0113,-4.0045,-3.974,-3.9046,-3.8616,-3.8024,-3.7432,-3.6451,-3.6315,-3.6045,-3.5926,-3.5616,-3.5616,-3.5616,-3.5616,-3.5616,-3.5616,-3.5616,-3.5566,-3.5211,-3.5115,-3.4861,-3.4675,-3.4146,-3.3998,-3.4252,-3.4421,-3.4117,-3.4979,-3.5334,-3.5204,-3.5406,-3.5248,-3.4876,-3.4224,-3.3486,-3.2822,-3.1901,-3.119,-3.119,-3.119,-3.119,-3.119,-3.119,-3.119,-3.119,-3.119,-3.119,-3.119,-3.119,-3.119,-3.119,-3.119,-3.119,-3.119,-3.119,-3.119,-3.119,-3.119,-3.119,-3.119,-3.119,-3.119,-3.119,-3.119,-3.119,-3.119,-3.119,-3.119,-3.119,-3.119,-3.119,-3.119,-3.119,-3.119,-4.6766,-4.6855,-4.5772,-4.4947,-4.4415,-4.4415,-4.4397,-4.4415,-4.4397,-4.4415,-4.4415,-4.436,-4.4011,-4.3608,-4.3533,-4.3479,-4.3479,-4.3479,-4.3479,-4.3479,-4.3479,-4.3479,-4.3479,-4.3479,-4.3479,-4.3479,-4.3479,-4.3479,-4.3479,-4.3479,-4.3479,-4.3479,-4.3479,-4.3051,-4.2501,-4.1979,-4.1446,-4.0631,-4.0286,-3.9977,-3.9808,-3.9774,-3.9326,-3.8768,-3.8227,-3.7821,-3.7483,-3.6705,-3.6366,-3.5808,-3.5825,-3.5447,-3.5008,-3.5312,-3.538,-3.5312,-3.5216,-3.525,-3.5216,-3.5047,-3.481,-3.4556,-3.41,-3.388,-3.3592,-3.4049,-3.4472,-3.4404,-3.5131,-3.5498,-3.5627,-3.5581,-3.5254,-3.4766,-3.4134,-3.3311,-3.249,-3.1721,-3.1207,-3.119,-3.119,-3.119,-3.119,-3.119,-3.119,-3.119,-3.119,-3.119,-3.119,-3.119,-3.119,-3.119,-3.119,-3.119,-3.119,-3.119,-3.119,-3.119,-3.119,-3.119,-3.119,-3.119,-3.119,-3.119,-3.119,-3.119,-3.119,-3.119,-3.119,-3.119,-3.119,-3.119,-3.119,-3.119,-3.1055,-4.6857,-4.6368,-4.4494,-4.3699,-4.3608,-4.3571,-4.3589,-4.3681,-4.3626,-4.3644,-4.3699,-4.3608,-4.3626,-4.3497,-4.3479,-4.3479,-4.3479,-4.3479,-4.3479,-4.3479,-4.3479,-4.3479,-4.3479,-4.3479,-4.3479,-4.3479,-4.3479,-4.3479,-4.3479,-4.3479,-4.3479,-4.3479,-4.3479,-4.281,-4.2144,-4.1643,-4.1082,-4.0424,-4.0121,-3.9791,-3.9428,-3.9157,-3.8785,-3.821,-3.7905,-3.7601,-3.6948,-3.6552,-3.5943,-3.5081,-3.538,-3.5042,-3.4539,-3.5109,-3.5312,-3.5081,-3.4945,-3.4928,-3.4793,-3.4923,-3.5312,-3.5211,-3.459,-3.3626,-3.3305,-3.3981,-3.4387,-3.4539,-3.5182,-3.5532,-3.5622,-3.5537,-3.5237,-3.4418,-3.3731,-3.2981,-3.2246,-3.1687,-3.1241,-3.1207,-3.119,-3.119,-3.119,-3.119,-3.119,-3.119,-3.119,-3.119,-3.119,-3.119,-3.119,-3.119,-3.119,-3.119,-3.119,-3.119,-3.119,-3.119,-3.119,-3.119,-3.119,-3.119,-3.119,-3.119,-3.119,-3.119,-3.119,-3.119,-3.119,-3.119,-3.119,-3.119,-3.119,-3.119,-3.0903,-4.6548,-4.5565,-4.4107,-4.3479,-4.3479,-4.3479,-4.3479,-4.3479,-4.3479,-4.3479,-4.3479,-4.3479,-4.3479,-4.3479,-4.3479,-4.3479,-4.3479,-4.3479,-4.3479,-4.3479,-4.3479,-4.3479,-4.3479,-4.3479,-4.3479,-4.3479,-4.3479,-4.3479,-4.3479,-4.3479,-4.3479,-4.3479,-4.3479,-4.2754,-4.2044,-4.1196,-4.0563,-4.0311,-4.0113,-3.9893,-3.9723,-3.914,-3.865,-3.7973,-3.733,-3.684,-3.6214,-3.6096,-3.5419,-3.4996,-3.5261,-3.4776,-3.4252,-3.5042,-3.5295,-3.5064,-3.4962,-3.4793,-3.4387,-3.4353,-3.4049,-3.3457,-3.2899,-3.2594,-3.2814,-3.344,-3.4032,-3.4506,-3.5165,-3.5583,-3.56,-3.5559,-3.5166,-3.413,-3.322,-3.2506,-3.1989,-3.143,-3.1241,-3.119,-3.119,-3.119,-3.119,-3.119,-3.119,-3.119,-3.119,-3.119,-3.119,-3.119,-3.119,-3.119,-3.119,-3.119,-3.119,-3.119,-3.119,-3.119,-3.119,-3.119,-3.119,-3.119,-3.119,-3.119,-3.119,-3.119,-3.119,-3.119,-3.119,-3.119,-3.119,-3.119,-3.119,-3.114,-3.0869,-4.6135,-4.5103,-4.3977,-4.3479,-4.3479,-4.3479,-4.3479,-4.3479,-4.3479,-4.3479,-4.3479,-4.3479,-4.3479,-4.3479,-4.3479,-4.3479,-4.3479,-4.3479,-4.3479,-4.3479,-4.3479,-4.3479,-4.3479,-4.3479,-4.3479,-4.3479,-4.3479,-4.3479,-4.3479,-4.3479,-4.3479,-4.3479,-4.3427,-4.281,-4.1793,-4.0737,-4.0096,-4.0113,-4.0113,-3.9757,-3.9469,-3.8886,-3.8024,-3.7273,-3.6637,-3.6282,-3.5819,-3.5684,-3.5278,-3.5013,-3.4996,-3.4861,-3.4653,-3.4721,-3.5211,-3.5109,-3.489,-3.4687,-3.4201,-3.3728,-3.3068,-3.2649,-3.2476,-3.2273,-3.2412,-3.3119,-3.4117,-3.4455,-3.5148,-3.56,-3.5583,-3.5554,-3.4919,-3.3863,-3.2593,-3.1829,-3.1624,-3.1207,-3.1207,-3.119,-3.119,-3.119,-3.119,-3.119,-3.119,-3.119,-3.119,-3.119,-3.119,-3.119,-3.119,-3.119,-3.119,-3.119,-3.119,-3.119,-3.119,-3.119,-3.119,-3.119,-3.119,-3.119,-3.119,-3.119,-3.119,-3.119,-3.119,-3.119,-3.119,-3.119,-3.119,-3.119,-3.0886,-3.0818,-3.0886,-4.5613,-4.5168,-4.3994,-4.3479,-4.3479,-4.3479,-4.3479,-4.3479,-4.3479,-4.3479,-4.3479,-4.3479,-4.3479,-4.3479,-4.3479,-4.3479,-4.3479,-4.3479,-4.3479,-4.3479,-4.3479,-4.3479,-4.3479,-4.3479,-4.3479,-4.3479,-4.3479,-4.3479,-4.3479,-4.3479,-4.3479,-4.3303,-4.3105,-4.2715,-4.1768,-4.0666,-4.0121,-4.0113,-4.0113,-3.9394,-3.8599,-3.821,-3.7358,-3.6518,-3.5955,-3.5718,-3.565,-3.5616,-3.5211,-3.4759,-3.5064,-3.4539,-3.3271,-3.4506,-3.4687,-3.3825,-3.3761,-3.3643,-3.3457,-3.3423,-3.2949,-3.2429,-3.2324,-3.2544,-3.2682,-3.3423,-3.4303,-3.4472,-3.5064,-3.5414,-3.5537,-3.5385,-3.4455,-3.3634,-3.2366,-3.1553,-3.1365,-3.119,-3.119,-3.119,-3.119,-3.119,-3.119,-3.119,-3.119,-3.119,-3.119,-3.119,-3.119,-3.119,-3.119,-3.119,-3.119,-3.119,-3.119,-3.119,-3.119,-3.119,-3.119,-3.119,-3.119,-3.119,-3.119,-3.119,-3.119,-3.119,-3.119,-3.119,-3.119,-3.119,-3.119,-3.1106,-3.0751,-3.0615,-3.0801,-4.5256,-4.4392,-4.3756,-4.3479,-4.3479,-4.3479,-4.3479,-4.3479,-4.3479,-4.3479,-4.3479,-4.3479,-4.3479,-4.3479,-4.3479,-4.3479,-4.3479,-4.3479,-4.3479,-4.3479,-4.3479,-4.3479,-4.3479,-4.3479,-4.3479,-4.3479,-4.3479,-4.3479,-4.3479,-4.3427,-4.3214,-4.2995,-4.2424,-4.1856,-4.1508,-4.0761,-4.0113,-4.0113,-4.0028,-3.9614,-3.8684,-3.8125,-3.7381,-3.6349,-3.5893,-3.5616,-3.5616,-3.5616,-3.5245,-3.4658,-3.4979,-3.4218,-3.3152,-3.4201,-3.3909,-3.3575,-3.3677,-3.3863,-3.3423,-3.3034,-3.2598,-3.2344,-3.2171,-3.2476,-3.2949,-3.3355,-3.3947,-3.4409,-3.4726,-3.4945,-3.4861,-3.4353,-3.3677,-3.3457,-3.2542,-3.1817,-3.1461,-3.1275,-3.119,-3.119,-3.119,-3.119,-3.119,-3.119,-3.119,-3.119,-3.119,-3.119,-3.119,-3.119,-3.119,-3.119,-3.119,-3.119,-3.119,-3.119,-3.119,-3.119,-3.119,-3.119,-3.119,-3.119,-3.119,-3.119,-3.119,-3.119,-3.119,-3.119,-3.119,-3.119,-3.119,-3.119,-3.1004,-3.092,-3.1038,-4.4796,-4.3839,-4.3597,-4.3479,-4.3479,-4.3479,-4.3479,-4.3479,-4.3479,-4.3479,-4.3479,-4.3479,-4.3479,-4.3479,-4.3479,-4.3479,-4.3479,-4.3479,-4.3479,-4.3479,-4.3479,-4.3479,-4.3479,-4.3462,-4.3321,-4.3339,-4.341,-4.3426,-4.3178,-4.3196,-4.2902,-4.2322,-4.1639,-4.149,-4.1196,-4.0594,-4.0113,-4.0028,-3.9842,-3.9445,-3.8734,-3.8091,-3.7263,-3.6654,-3.6129,-3.5616,-3.5616,-3.5532,-3.5397,-3.4945,-3.4556,-3.415,-3.3626,-3.3389,-3.3271,-3.3339,-3.3609,-3.3626,-3.3034,-3.2662,-3.2259,-3.1887,-3.1633,-3.207,-3.2916,-3.3254,-3.3609,-3.3998,-3.4303,-3.4286,-3.4117,-3.3541,-3.3406,-3.3203,-3.3008,-3.228,-3.1495,-3.1309,-3.143,-3.1396,-3.119,-3.119,-3.119,-3.119,-3.119,-3.119,-3.119,-3.119,-3.119,-3.119,-3.119,-3.119,-3.119,-3.119,-3.119,-3.119,-3.119,-3.119,-3.119,-3.119,-3.119,-3.119,-3.119,-3.119,-3.119,-3.119,-3.119,-3.119,-3.119,-3.119,-3.119,-3.119,-3.119,-3.119,-3.119,-4.4169,-4.3529,-4.3479,-4.3479,-4.3479,-4.3479,-4.3479,-4.3479,-4.3479,-4.3479,-4.3479,-4.3479,-4.3479,-4.3479,-4.3479,-4.3479,-4.3479,-4.3479,-4.3479,-4.3479,-4.3479,-4.3479,-4.3479,-4.3479,-4.3232,-4.3069,-4.305,-4.3069,-4.2731,-4.2482,-4.2183,-4.1853,-4.1464,-4.1173,-4.075,-4.0441,-4.0121,-3.9977,-3.9495,-3.9123,-3.8582,-3.7625,-3.6948,-3.6417,-3.5977,-3.5667,-3.5616,-3.5583,-3.5566,-3.5301,-3.4878,-3.415,-3.3643,-3.3368,-3.2899,-3.275,-3.3085,-3.2848,-3.2598,-3.2327,-3.2073,-3.1802,-3.1972,-3.2209,-3.2581,-3.3051,-3.3355,-3.366,-3.3947,-3.3761,-3.3541,-3.3457,-3.3393,-3.3347,-3.3409,-3.2625,-3.1704,-3.1498,-3.1721,-3.1636,-3.1292,-3.119,-3.119,-3.119,-3.119,-3.119,-3.119,-3.119,-3.119,-3.119,-3.119,-3.119,-3.119,-3.119,-3.119,-3.119,-3.119,-3.119,-3.119,-3.119,-3.119,-3.119,-3.119,-3.119,-3.119,-3.119,-3.119,-3.119,-3.119,-3.119,-3.119,-3.119,-3.119,-3.119,-3.119,-4.415,-4.3513,-4.3479,-4.3479,-4.3479,-4.3479,-4.3479,-4.3479,-4.3479,-4.3479,-4.3479,-4.3479,-4.3479,-4.3479,-4.3479,-4.3479,-4.3479,-4.3479,-4.3479,-4.3479,-4.3479,-4.3479,-4.3479,-4.3427,-4.3142,-4.2902,-4.2751,-4.2637,-4.2083,-4.1768,-4.1512,-4.1155,-4.0961,-4.0601,-4.0417,-4.0179,-4.007,-3.9842,-3.9259,-3.8819,-3.821,-3.7303,-3.6637,-3.6113,-3.5819,-3.5616,-3.5616,-3.5616,-3.5616,-3.5481,-3.4878,-3.415,-3.3474,-3.2933,-3.2412,-3.2395,-3.253,-3.2496,-3.2327,-3.2293,-3.2158,-3.1955,-3.2141,-3.2594,-3.2831,-3.2933,-3.3173,-3.341,-3.3339,-3.3085,-3.2916,-3.2848,-3.2763,-3.2737,-3.2778,-3.2418,-3.1684,-3.1887,-3.2059,-3.1701,-3.136,-3.119,-3.119,-3.119,-3.119,-3.119,-3.119,-3.119,-3.119,-3.119,-3.119,-3.119,-3.119,-3.119,-3.119,-3.119,-3.119,-3.119,-3.119,-3.119,-3.119,-3.119,-3.119,-3.119,-3.119,-3.119,-3.119,-3.119,-3.119,-3.119,-3.119,-3.119,-3.119,-3.119,-3.119,-4.4184,-4.3531,-4.3479,-4.3479,-4.3479,-4.3479,-4.3479,-4.3479,-4.3479,-4.3479,-4.3479,-4.3479,-4.3479,-4.3479,-4.3479,-4.3479,-4.3479,-4.3479,-4.3479,-4.3479,-4.3479,-4.3479,-4.3462,-4.325,-4.279,-4.2539,-4.2262,-4.2041,-4.1534,-4.1402,-4.1201,-4.0601,-4.0319,-4.0286,-4.0086,-3.9816,-3.9622,-3.936,-3.8988,-3.8565,-3.7905,-3.7077,-3.6282,-3.6045,-3.5802,-3.5616,-3.5616,-3.5616,-3.5616,-3.5414,-3.4742,-3.3914,-3.3186,-3.253,-3.2175,-3.2158,-3.2327,-3.2361,-3.2293,-3.2293,-3.2293,-3.2226,-3.2107,-3.2442,-3.273,-3.2848,-3.2983,-3.3085,-3.2682,-3.2344,-3.2188,-3.207,-3.1952,-3.187,-3.1921,-3.1972,-3.2107,-3.2307,-3.2087,-3.1769,-3.1478,-3.1258,-3.119,-3.119,-3.119,-3.119,-3.119,-3.119,-3.119,-3.119,-3.119,-3.119,-3.119,-3.119,-3.119,-3.119,-3.119,-3.119,-3.119,-3.119,-3.119,-3.119,-3.119,-3.119,-3.119,-3.119,-3.119,-3.119,-3.119,-3.119,-3.119,-3.119,-3.119,-3.119,-3.119,-4.4169,-4.3479,-4.3479,-4.3479,-4.3479,-4.3479,-4.3479,-4.3479,-4.3479,-4.3479,-4.3479,-4.3479,-4.3479,-4.3479,-4.3479,-4.3479,-4.3479,-4.3479,-4.3479,-4.3479,-4.3479,-4.3444,-4.3214,-4.2939,-4.2442,-4.1979,-4.1643,-4.1464,-4.1133,-4.0972,-4.075,-4.0154,-4.0473,-4.0449,-4.0061,-3.9453,-3.9191,-3.9056,-3.8447,-3.7872,-3.7855,-3.6975,-3.5926,-3.6332,-3.6045,-3.5616,-3.5616,-3.5616,-3.56,-3.5126,-3.4501,-3.3677,-3.2831,-3.2087,-3.187,-3.1887,-3.2022,-3.2022,-3.209,-3.2175,-3.2395,-3.2209,-3.1802,-3.2324,-3.273,-3.2408,-3.2357,-3.2848,-3.2632,-3.2496,-3.2374,-3.2459,-3.2408,-3.2256,-3.2205,-3.1935,-3.1701,-3.1901,-3.1972,-3.165,-3.141,-3.1224,-3.119,-3.119,-3.119,-3.119,-3.119,-3.119,-3.119,-3.119,-3.119,-3.119,-3.119,-3.119,-3.119,-3.119,-3.119,-3.119,-3.119,-3.119,-3.119,-3.119,-3.119,-3.119,-3.119,-3.119,-3.119,-3.119,-3.119,-3.119,-3.119,-3.119,-3.119,-3.119,-3.119,-4.415,-4.3496,-4.3479,-4.3479,-4.3479,-4.3479,-4.3479,-4.3479,-4.3479,-4.3479,-4.3479,-4.3479,-4.3479,-4.3479,-4.3479,-4.3479,-4.3444,-4.3462,-4.3479,-4.3427,-4.341,-4.3142,-4.292,-4.2578,-4.2059,-4.1459,-4.1076,-4.0868,-4.057,-4.049,-4.049,-4.0112,-4.0302,-4.0212,-3.9952,-3.9242,-3.8853,-3.8768,-3.7719,-3.7161,-3.7077,-3.6535,-3.5752,-3.5893,-3.5616,-3.5616,-3.5616,-3.5616,-3.5616,-3.5397,-3.4742,-3.3744,-3.2615,-3.1681,-3.1343,-3.1447,-3.1565,-3.1616,-3.1769,-3.2056,-3.2412,-3.2682,-3.256,-3.278,-3.2662,-3.1918,-3.1799,-3.2408,-3.273,-3.2628,-3.2611,-3.2747,-3.2882,-3.2713,-3.2439,-3.1867,-3.1292,-3.1478,-3.1715,-3.1616,-3.1379,-3.1241,-3.1207,-3.119,-3.119,-3.119,-3.119,-3.119,-3.119,-3.119,-3.119,-3.119,-3.119,-3.119,-3.119,-3.119,-3.119,-3.119,-3.119,-3.119,-3.119,-3.119,-3.119,-3.119,-3.119,-3.119,-3.119,-3.119,-3.119,-3.119,-3.119,-3.119,-3.119,-3.119,-3.119,-4.4004,-4.3513,-4.3479,-4.3479,-4.3479,-4.3479,-4.3479,-4.3479,-4.3479,-4.3479,-4.3479,-4.3479,-4.3479,-4.3479,-4.3479,-4.3303,-4.3268,-4.341,-4.3032,-4.2885,-4.2995,-4.2733,-4.2462,-4.2083,-4.1595,-4.1007,-4.0648,-4.0368,-4.0121,-4.0087,-4.0078,-3.9791,-3.9825,-3.991,-3.9622,-3.8937,-3.8548,-3.843,-3.7026,-3.6434,-3.6315,-3.5893,-3.5616,-3.5616,-3.5616,-3.5616,-3.5616,-3.5616,-3.5616,-3.5245,-3.4518,-3.3508,-3.2462,-3.1613,-3.1258,-3.1224,-3.1275,-3.1345,-3.1599,-3.1938,-3.2442,-3.2797,-3.2374,-3.2205,-3.2479,-3.1819,-3.1393,-3.1935,-3.2412,-3.2395,-3.2446,-3.2581,-3.2882,-3.2916,-3.2221,-3.1483,-3.1271,-3.1325,-3.1688,-3.1989,-3.165,-3.1224,-3.119,-3.119,-3.119,-3.1207,-3.1207,-3.119,-3.119,-3.119,-3.119,-3.119,-3.119,-3.119,-3.119,-3.119,-3.119,-3.119,-3.119,-3.119,-3.119,-3.119,-3.119,-3.119,-3.119,-3.119,-3.119,-3.119,-3.119,-3.119,-3.119,-3.119,-3.119,-3.119,-3.119,-4.382,-4.3513,-4.3479,-4.3479,-4.3479,-4.3479,-4.3479,-4.3479,-4.3479,-4.3479,-4.3462,-4.341,-4.3427,-4.3479,-4.3462,-4.3105,-4.2958,-4.3142,-4.2676,-4.2404,-4.2442,-4.2284,-4.1856,-4.1296,-4.099,-4.072,-4.0368,-4.0229,-4.0096,-3.9926,-3.9588,-3.9249,-3.9368,-3.958,-3.887,-3.8328,-3.7973,-3.7499,-3.6603,-3.5819,-3.5633,-3.5616,-3.5616,-3.5616,-3.5616,-3.5616,-3.5616,-3.5616,-3.5616,-3.516,-3.4433,-3.3372,-3.253,-3.1782,-3.143,-3.1275,-3.119,-3.1461,-3.1799,-3.1901,-3.251,-3.2747,-3.1901,-3.1853,-3.2293,-3.2141,-3.1715,-3.1799,-3.2276,-3.2564,-3.2615,-3.2784,-3.3119,-3.2946,-3.2092,-3.1355,-3.1274,-3.1248,-3.1668,-3.2124,-3.1819,-3.1309,-3.1478,-3.1444,-3.1292,-3.1292,-3.1258,-3.1207,-3.119,-3.119,-3.119,-3.119,-3.119,-3.119,-3.119,-3.119,-3.119,-3.119,-3.119,-3.119,-3.119,-3.119,-3.119,-3.119,-3.119,-3.119,-3.119,-3.119,-3.119,-3.119,-3.119,-3.119,-3.119,-3.119,-3.119,-4.3804,-4.3479,-4.3479,-4.3479,-4.3479,-4.3479,-4.3479,-4.3479,-4.3479,-4.3479,-4.3392,-4.3087,-4.305,-4.3479,-4.3479,-4.3105,-4.2501,-4.2733,-4.2808,-4.2635,-4.2059,-4.1856,-4.1578,-4.0949,-4.0648,-4.0368,-4.0196,-4.0146,-4.0062,-3.9605,-3.9216,-3.908,-3.9089,-3.8937,-3.8261,-3.7838,-3.7635,-3.7026,-3.6349,-3.5616,-3.5616,-3.5616,-3.5616,-3.5616,-3.5616,-3.5616,-3.5616,-3.5616,-3.5616,-3.5329,-3.4692,-3.3541,-3.2747,-3.2104,-3.1769,-3.1549,-3.1427,-3.1613,-3.1901,-3.2273,-3.2899,-3.322,-3.2814,-3.322,-3.3372,-3.3136,-3.2865,-3.2797,-3.3186,-3.3491,-3.3626,-3.3795,-3.4015,-3.3098,-3.2221,-3.1699,-3.1398,-3.1418,-3.161,-3.1853,-3.1836,-3.1985,-3.2544,-3.2273,-3.1749,-3.1715,-3.1647,-3.1613,-3.1579,-3.1427,-3.1258,-3.1258,-3.1275,-3.119,-3.119,-3.119,-3.119,-3.119,-3.119,-3.119,-3.119,-3.119,-3.119,-3.119,-3.119,-3.119,-3.119,-3.119,-3.119,-3.119,-3.119,-3.119,-3.119,-3.119,-3.119]},{"header":{"parameterUnit":"m.s-1","parameterCategory":1,"la1":31.0,"la2":29.5877,"lo1":-88.7671,"lo2":-86.6584,"dy":0.0162,"dx":0.0185,"nx":115,"ny":88,"refTime":"2023-06-09T12:00:00:Z","depth":0,"parameterNumber":3,"parameterNumberName":"V-component_of_WINDS"},"data":[0.0,0.0,0.0,0.0,0.0,0.0,0.0,0.0,0.0,0.0,0.0,0.0,0.0,0.0,0.0,0.0,0.0,0.0,0.0,0.0,0.0,0.0,0.0,0.0,0.0,0.0,0.0,0.0,0.0,0.0,0.0,0.0,0.0,0.0,0.0,0.0,0.0,0.0,0.0,0.0,0.0,0.0,0.0,0.0,0.0,0.0,0.0,0.0,0.0,0.0,0.0,0.0,0.0,0.0,0.0,0.0,0.0,0.0,0.0,0.0,0.0,0.0,0.0,0.0,0.0,0.0,0.0,0.0,0.0,0.0,0.0,0.0,0.0,0.0,0.0,0.0,0.0,0.0,0.0,0.0,0.0,0.0,0.0,0.0,0.0,0.0,0.0,0.0,0.0,0.0,0.0,0.0,0.0,0.0,0.0,0.0,0.0,0.0,0.0,0.0,0.0,0.0,0.0,0.0,0.0,0.0,0.0,0.0,0.0,0.0,0.0,0.0,0.0,0.0,0.0,0.0,0.0,0.0,0.0,0.0,0.0,0.0,0.0,0.0,0.0,0.0,0.0,0.0,0.0,0.0,0.0,0.0,0.0,0.0,0.0,0.0,0.0,0.0,0.0,0.0,0.0,0.0,0.0,0.0,0.0,0.0,0.0,0.0,0.0,0.0,0.0,0.0,0.0,0.0,0.0,0.0,0.0,0.0,0.0,0.0,0.0,0.0,0.0,0.0,0.0,0.0,0.0,0.0,0.0,0.0,0.0,0.0,0.0,0.0,0.0,0.0,0.0,0.0,0.0,0.0,0.0,0.0,0.0,0.0,0.0,0.0,0.0,0.0,0.0,0.0,0.0,0.0,0.0,0.0,0.0,0.0,0.0,0.0,0.0,0.0,0.0,0.0,0.0,0.0,0.0,0.0,0.0,0.0,0.0,0.0,0.0,0.0,0.0,0.0,0.0,0.0,0.0,0.0,0.0,0.0,0.0,0.0,0.0,0.0,0.0,0.0,0.0,0.0,0.0,0.0,0.0,0.0,0.0,0.0,0.0,0.0,0.0,0.0,0.0,0.0,0.0,0.0,0.0,0.0,0.0,0.0,0.0,0.0,0.0,0.0,0.0,0.0,0.0,0.0,0.0,0.0,0.0,0.0,0.0,0.0,0.0,0.0,0.0,0.0,0.0,0.0,0.0,0.0,0.0,0.0,0.0,0.0,0.0,0.0,0.0,0.0,0.0,0.0,0.0,0.0,0.0,0.0,0.0,0.0,0.0,0.0,0.0,0.0,0.0,0.0,0.0,0.0,0.0,0.0,0.0,0.0,0.0,0.0,0.0,0.0,0.0,0.0,0.0,0.0,0.0,0.0,0.0,0.0,0.0,0.0,0.0,0.0,0.0,0.0,0.0,0.0,0.0,0.0,0.0,0.0,0.0,0.0,0.0,0.0,0.0,0.0,0.0,0.0,0.0,0.0,0.0,0.0,0.0,0.0,0.0,0.0,0.0,0.0,0.0,0.0,0.0,0.0,0.0,0.0,0.0,0.0,0.0,0.0,0.0,0.0,0.0,0.0,0.0,0.0,0.0,0.0,0.0,0.0,0.0,0.0,0.0,0.0,0.0,0.0,0.0,0.0,0.0,0.0,0.0,0.0,0.0,0.0,0.0,0.0,0.0,0.0,0.0,0.0,0.0,0.0,0.0,0.0,0.0,0.0,0.0,0.0,0.0,0.0,0.0,0.0,0.0,0.0,0.0,0.0,0.0,0.0,0.0,0.0,0.0,0.0,0.0,0.0,0.0,0.0,0.0,0.0,0.0,0.0,0.0,0.0,0.0,0.0,0.0,0.0,0.0,0.0,0.0,0.0,0.0,0.0,0.0,0.0,0.0,0.0,0.0,0.0,0.0,0.0,0.0,0.0,0.0,0.0,0.0,0.0,0.0,0.0,0.0,0.0,0.0,0.0,0.0,0.0,0.0,0.0,0.0,0.0,0.0,0.0,0.0,0.0,0.0,0.0,0.0,0.0,0.0,0.0,0.0,0.0,0.0,0.0,0.0,0.0,0.0,0.0,0.0,0.0,0.0,0.0,0.0,0.0,0.0,0.0,0.0,0.0,0.0,0.0,0.0,0.0,0.0,0.0,0.0,0.0,0.0,0.0,0.0,0.0,0.0,0.0,0.0,0.0,0.0,0.0,0.0,0.0,0.0,0.0,0.0,0.0,0.0,0.0,0.0,0.0,0.0,0.0,0.0,0.0,0.0,0.0,0.0,0.0,0.0,0.0,0.0,0.0,0.0,0.0,0.0,0.0,0.0,0.0,0.0,0.0,0.0,0.0,0.0,0.0,0.0,0.0,0.0,0.0,0.0,0.0,0.0,0.0,0.0,0.0,0.0,0.0,0.0,0.0,0.0,0.0,0.0,0.0,0.0,0.0,0.0,0.0,0.0,0.0,0.0,0.0,0.0,0.0,0.0,0.0,0.0,0.0,0.0,0.0,0.0,0.0,0.0,0.0,0.0,0.0,0.0,0.0,0.0,0.0,0.0,0.0,0.0,0.0,0.0,0.0,0.0,0.0,0.0,0.0,0.0,0.0,0.0,0.0,0.0,0.0,0.0,0.0,0.0,0.0,0.0,0.0,0.0,0.0,0.0,0.0,0.0,0.0,0.0,0.0,0.0,0.0,0.0,0.0,0.0,0.0,0.0,0.0,0.0,0.0,0.0,0.0,0.0,0.0,0.0,0.0,0.0,0.0,0.0,0.0,0.0,0.0,0.0,0.0,0.0,0.0,0.0,0.0,0.0,0.0,0.0,0.0,0.0,0.0,0.0,0.0,0.0,0.0,0.0,0.0,0.0,0.0,0.0,0.0,0.0,0.0,0.0,0.0,0.0,0.0,0.0,0.0,0.0,0.0,0.0,0.0,0.0,0.0,0.0,0.0,0.0,0.0,0.0,0.0,0.0,0.0,0.0,0.0,0.0,0.0,0.0,0.0,0.0,0.0,0.0,0.0,0.0,0.0,0.0,0.0,0.0,0.0,0.0,0.0,0.0,0.0,0.0,0.0,0.0,0.0,0.0,0.0,0.0,0.0,0.0,0.0,0.0,0.0,0.0,0.0,0.0,0.0,0.0,0.0,0.0,0.0,0.0,0.0,0.0,0.0,0.0,0.0,0.0,0.0,0.0,0.0,0.0,0.0,0.0,0.0,0.0,0.0,0.0,0.0,0.0,0.0,0.0,0.0,0.0,0.0,0.0,0.0,0.0,0.0,0.0,0.0,0.0,0.0,0.0,0.0,0.0,0.0,0.0,0.0,0.0,0.0,0.0,0.0,0.0,0.0,0.0,0.0,0.0,0.0,0.0,0.0,0.0,0.0,0.0,0.0,0.0,0.0,0.0,0.0,0.0,0.0,0.0,0.0,0.0,0.0,0.0,0.0,0.0,0.0,0.0,0.0,0.0,0.0,0.0,0.0,0.0,0.0,0.0,0.0,0.0,0.0,0.0,0.0,0.0,0.0,0.0,0.0,0.0,0.0,0.0,0.0,0.0,0.0,0.0,0.0,0.0,0.0,0.0,0.0,0.0,0.0,0.0,0.0,0.0,0.0,0.0,0.0,0.0,0.0,0.0,0.0,0.0,0.0,0.0,0.0,0.0,0.0,0.0,0.0,0.0,0.0,0.0,0.0,0.0,0.0,0.0,0.0,0.0,0.0,0.0,0.0,0.0,0.0,0.0,0.0,0.0,0.0,0.0,0.0,0.0,0.0,0.0,0.0,0.0,0.0,0.0,0.0,0.0,0.0,0.0,0.0,0.0,0.0,0.0,0.0,0.0,0.0,0.0,0.0,0.0,0.0,0.0,0.0,0.0,0.0,0.0,0.0,0.0,0.0,0.0,0.0,0.0,0.0,0.0,0.0,0.0,0.0,0.0,0.0,0.0,0.0,0.0,0.0,0.0,0.0,0.0,0.0,0.0,0.0,0.0,0.0,0.0,0.0,0.0,0.0,0.0,0.0,0.0,0.0,0.0,0.0,0.0,0.0,0.0,0.0,0.0,0.0,0.0,0.0,0.0,0.0,0.0,0.0,0.0,0.0,0.0,0.0,0.0,0.0,0.0,0.0,0.0,0.0,0.0,0.0,0.0,0.0,0.0,0.0,0.0,0.0,0.0,0.0,0.0,0.0,0.0,0.0,0.0,0.0,0.0,0.0,0.0,0.0,0.0,0.0,0.0,0.0,0.0,0.0,0.0,0.0,0.0,0.0,0.0,0.0,0.0,0.0,0.0,0.0,0.0,0.0,-1.1862,0.0,0.0,0.0,0.0,0.0,0.0,0.0,0.0,0.0,0.0,0.0,0.0,0.0,0.0,0.0,0.0,0.0,0.0,0.0,0.0,0.0,0.0,0.0,0.0,0.0,0.0,0.0,0.0,0.0,0.0,0.0,0.0,0.0,0.0,0.0,0.0,0.0,0.0,0.0,0.0,0.0,0.0,0.0,0.0,0.0,0.0,0.0,0.0,0.0,0.0,0.0,0.0,0.0,0.0,0.0,0.0,0.0,0.0,0.0,0.0,0.0,0.0,0.0,0.0,0.0,0.0,0.0,0.0,0.0,0.0,0.0,0.0,0.0,0.0,0.0,0.0,0.0,0.0,0.0,0.0,0.0,0.0,0.0,0.0,0.0,0.0,0.0,0.0,0.0,0.0,0.0,0.0,0.0,0.0,0.0,0.0,0.0,0.0,0.0,0.0,0.0,0.0,0.0,0.0,0.0,0.0,0.0,0.0,0.0,0.0,-0.6514,-0.6034,-0.7496,-0.9225,-1.1123,0.0,0.0,0.0,0.0,0.0,0.0,0.0,0.0,0.0,0.0,0.0,0.0,0.0,0.0,0.0,0.0,0.0,0.0,0.0,0.0,0.0,0.0,0.0,0.0,0.0,0.0,0.0,0.0,0.0,0.0,0.0,0.0,0.0,0.0,0.0,0.0,0.0,0.0,0.0,0.0,0.0,0.0,0.0,0.0,0.0,0.0,0.0,0.0,0.0,0.0,0.0,0.0,0.0,0.0,0.0,0.0,0.0,0.0,0.0,0.0,0.0,0.0,0.0,0.0,0.0,0.0,0.0,0.0,0.0,0.0,0.0,0.0,0.0,0.0,0.0,0.0,0.0,0.0,0.0,0.0,0.0,0.0,0.0,0.0,0.0,0.0,0.0,0.0,0.0,0.0,0.0,0.0,0.0,0.0,0.0,0.0,0.0,0.0,0.0,0.0,0.0,0.0,0.0,0.0,0.0,0.0,0.0,0.0,0.0,0.0,0.0,0.0,-0.6605,-0.8571,-1.0607,0.0,0.0,0.0,0.0,0.0,0.0,0.0,0.0,0.0,0.0,0.0,0.0,0.0,0.0,0.0,0.0,0.0,0.0,0.0,0.0,0.0,0.0,0.0,0.0,0.0,0.0,0.0,0.0,0.0,0.0,0.0,0.0,0.0,0.0,0.0,0.0,0.0,0.0,0.0,0.0,0.0,0.0,0.0,0.0,0.0,0.0,0.0,0.0,0.0,0.0,0.0,0.0,0.0,0.0,0.0,0.0,0.0,0.0,0.0,0.0,0.0,0.0,0.0,0.0,0.0,0.0,0.0,0.0,0.0,0.0,0.0,0.0,0.0,0.0,0.0,0.0,0.0,0.0,0.0,0.0,0.0,0.0,0.0,0.0,0.0,0.0,0.0,0.0,0.0,0.0,0.0,0.0,0.0,0.0,0.0,0.0,0.0,0.0,0.0,0.0,0.0,0.0,0.0,0.0,0.0,0.0,0.0,0.0,0.0,0.0,-0.4706,-0.3804,-0.6393,0.0,-1.0745,0.0,0.0,0.0,0.0,0.0,0.0,0.0,0.0,0.0,0.0,0.0,0.0,0.0,0.0,0.0,0.0,0.0,0.0,0.0,0.0,0.0,0.0,0.0,0.0,0.0,0.0,0.0,0.0,0.0,0.0,0.0,0.0,0.0,0.0,0.0,0.0,0.0,0.0,0.0,0.0,0.0,0.0,0.0,0.0,0.0,0.0,0.0,0.0,0.0,0.0,0.0,0.0,0.0,0.0,0.0,0.0,0.0,0.0,0.0,0.0,0.0,0.0,0.0,0.0,0.0,0.0,0.0,0.0,0.0,0.0,0.0,0.0,0.0,0.0,0.0,0.0,0.0,0.0,0.0,0.0,0.0,0.0,0.0,0.0,0.0,0.0,0.0,0.0,0.0,0.0,0.0,0.0,0.0,0.0,0.0,0.0,0.0,0.0,0.0,0.0,0.0,0.0,0.0,0.0,0.0,0.0,0.0,0.0,0.0,0.0,-0.4221,-0.395,-0.7791,-1.013,0.0,0.0,0.0,0.0,0.0,0.0,0.0,0.0,0.0,0.0,0.0,0.0,0.0,0.0,0.0,0.0,0.0,0.0,0.0,0.0,0.0,0.0,0.0,0.0,0.0,0.0,0.0,0.0,0.0,0.0,0.0,0.0,0.0,0.0,0.0,0.0,0.0,0.0,0.0,0.0,0.0,0.0,0.0,0.0,0.0,0.0,0.0,0.0,0.0,0.0,0.0,0.0,0.0,0.0,0.0,0.0,0.0,0.0,0.0,0.0,0.0,0.0,0.0,0.0,0.0,0.0,0.0,0.0,0.0,0.0,0.0,0.0,0.0,0.0,0.0,0.0,0.0,0.0,0.0,0.0,0.0,0.0,0.0,0.0,0.0,0.0,0.0,0.0,0.0,0.0,0.0,0.0,0.0,0.0,0.0,0.0,0.0,0.0,0.0,0.0,0.0,0.0,0.0,0.0,0.0,0.0,0.0,0.0,0.0,0.0,-0.3219,-0.3718,-0.486,-0.8988,-1.1179,-1.0825,0.0,0.0,0.0,0.0,0.0,0.0,0.0,0.0,0.0,0.0,0.0,0.0,0.0,0.0,0.0,0.0,0.0,0.0,0.0,0.0,0.0,0.0,0.0,0.0,0.0,0.0,0.0,0.0,0.0,0.0,0.0,0.0,0.0,0.0,0.0,0.0,0.0,0.0,0.0,0.0,0.0,0.0,0.0,0.0,0.0,0.0,0.0,0.0,0.0,0.0,0.0,0.0,0.0,0.0,0.0,0.0,0.0,0.0,0.0,0.0,0.0,0.0,0.0,0.0,0.0,0.0,0.0,0.0,0.0,0.0,0.0,0.0,0.0,0.0,0.0,0.0,0.0,0.0,0.0,0.0,0.0,0.0,0.0,0.0,0.0,0.0,0.0,0.0,0.0,0.0,0.0,0.0,0.0,0.0,0.0,0.0,0.0,0.0,0.0,0.0,0.0,0.0,0.0,0.0,0.0,0.0,0.0,0.0,-0.32,-0.2365,-0.3179,-0.5874,-0.9545,-1.1283,0.0,0.0,0.0,0.0,0.0,0.0,0.0,0.0,0.0,0.0,0.0,0.0,0.0,0.0,0.0,0.0,0.0,0.0,0.0,0.0,0.0,0.0,0.0,0.0,0.0,0.0,0.0,0.0,0.0,0.0,0.0,0.0,0.0,0.0,0.0,0.0,0.0,0.0,0.0,0.0,0.0,0.0,0.0,0.0,0.0,0.0,0.0,0.0,0.0,0.0,0.0,0.0,0.0,0.0,0.0,0.0,0.0,0.0,0.0,0.0,0.0,0.0,0.0,0.0,0.0,0.0,0.0,0.0,0.0,0.0,0.0,0.0,0.0,0.0,0.0,0.0,0.0,0.0,0.0,0.0,0.0,0.0,0.0,0.0,0.0,0.0,0.0,0.0,0.0,0.0,0.0,0.0,0.0,0.0,0.0,0.0,0.0,0.0,0.0,0.0,0.0,0.0,0.0,0.0,0.0,0.0,0.0,0.0,0.0,-0.4182,-0.3737,-0.4407,-0.633,-0.9686,-1.1421,0.0,0.0,0.0,0.0,0.0,0.0,0.0,0.0,0.0,0.0,0.0,0.0,0.0,0.0,0.0,0.0,0.0,0.0,0.0,0.0,0.0,0.0,0.0,0.0,0.0,0.0,0.0,0.0,0.0,0.0,0.0,0.0,0.0,0.0,0.0,0.0,0.0,0.0,0.0,0.0,0.0,0.0,0.0,0.0,0.0,0.0,0.0,0.0,0.0,0.0,0.0,0.0,0.0,0.0,0.0,0.0,0.0,0.0,0.0,0.0,0.0,0.0,0.0,0.0,0.0,0.0,0.0,0.0,0.0,0.0,0.0,0.0,0.0,0.0,0.0,0.0,0.0,0.0,0.0,0.0,0.0,0.0,0.0,0.0,0.0,0.0,0.0,0.0,0.0,0.0,0.0,0.0,0.0,0.0,0.0,0.0,0.0,0.0,0.0,0.0,0.0,0.0,0.0,0.0,0.0,0.0,0.0,0.0,0.0,-0.4612,0.0,-0.5597,-0.6505,-0.9744,-1.1453,0.0,0.0,0.0,0.0,0.0,0.0,0.0,0.0,0.0,0.0,0.0,0.0,0.0,0.0,0.0,0.0,0.0,0.0,0.0,0.0,0.0,0.0,0.0,0.0,0.0,0.0,0.0,0.0,0.0,0.0,0.0,0.0,0.0,0.0,0.0,0.0,0.0,0.0,0.0,0.0,0.0,0.0,0.0,0.0,0.0,0.0,0.0,0.0,0.0,0.0,0.0,0.0,0.0,0.0,0.0,0.0,0.0,0.0,0.0,0.0,0.0,0.0,0.0,0.0,0.0,0.0,0.0,0.0,0.0,0.0,0.0,0.0,0.0,0.0,0.0,0.0,0.0,0.0,0.0,0.0,0.0,0.0,0.0,0.0,0.0,0.0,0.0,0.0,0.0,0.0,0.0,0.0,0.0,0.0,0.0,0.0,0.0,0.0,0.0,0.0,0.0,0.0,0.0,0.0,0.0,0.0,0.0,0.0,-0.7726,-0.4449,-0.5829,-0.6558,-0.6426,-0.9825,-1.1419,0.0,0.0,0.0,0.0,0.0,0.0,0.0,0.0,0.0,0.0,0.0,0.0,0.0,0.0,0.0,0.0,0.0,0.0,0.0,0.0,0.0,0.0,0.0,0.0,0.0,0.0,0.0,0.0,0.0,0.0,0.0,0.0,0.0,0.0,0.0,0.0,0.0,0.0,0.0,0.0,0.0,0.0,0.0,0.0,0.0,0.0,0.0,0.0,0.0,0.0,0.0,0.0,0.0,0.0,0.0,0.0,0.0,0.0,0.0,0.0,0.0,0.0,0.0,0.0,0.0,0.0,0.0,0.0,0.0,0.0,0.0,0.0,0.0,0.0,0.0,0.0,0.0,0.0,0.0,0.0,0.0,0.0,0.0,0.0,0.0,0.0,0.0,0.0,0.0,0.0,0.0,0.0,0.0,0.0,0.0,0.0,0.0,0.0,0.0,0.0,0.0,0.0,0.0,0.0,0.0,0.0,0.0,0.0,0.0,-0.531,-0.6379,-0.7014,-0.7144,-1.0286,-1.1966,0.0,0.0,0.0,0.0,0.0,0.0,0.0,0.0,0.0,0.0,0.0,0.0,0.0,0.0,0.0,0.0,0.0,0.0,0.0,0.0,0.0,0.0,0.0,0.0,0.0,0.0,0.0,0.0,0.0,0.0,0.0,0.0,0.0,0.0,0.0,0.0,0.0,0.0,0.0,0.0,0.0,0.0,0.0,0.0,0.0,0.0,0.0,0.0,0.0,0.0,0.0,0.0,0.0,0.0,0.0,0.0,0.0,0.0,0.0,0.0,0.0,0.0,0.0,0.0,0.0,0.0,0.0,0.0,0.0,0.0,0.0,0.0,0.0,0.0,0.0,0.0,0.0,0.0,0.0,0.0,0.0,0.0,0.0,0.0,0.0,0.0,0.0,0.0,0.0,0.0,0.0,0.0,0.0,0.0,0.0,0.0,0.0,0.0,0.0,0.0,0.0,0.0,0.0,0.0,0.0,0.0,0.0,0.0,0.0,-0.693,-0.7664,-0.8156,-0.8219,-1.0874,-1.2239,-1.2045,0.0,0.0,0.0,0.0,0.0,0.0,0.0,0.0,0.0,0.0,0.0,0.0,0.0,0.0,0.0,0.0,0.0,0.0,0.0,0.0,0.0,0.0,0.0,0.0,0.0,0.0,0.0,0.0,0.0,0.0,0.0,0.0,0.0,0.0,0.0,0.0,0.0,0.0,0.0,0.0,0.0,0.0,0.0,0.0,0.0,0.0,0.0,0.0,0.0,0.0,0.0,0.0,0.0,0.0,0.0,0.0,0.0,0.0,0.0,0.0,0.0,0.0,0.0,0.0,0.0,0.0,0.0,0.0,0.0,0.0,0.0,0.0,0.0,0.0,0.0,0.0,0.0,0.0,0.0,0.0,0.0,0.0,0.0,0.0,0.0,0.0,0.0,0.0,0.0,0.0,0.0,0.0,0.0,0.0,0.0,0.0,0.0,0.0,0.0,0.0,0.0,0.0,0.0,0.0,0.0,0.0,0.0,0.0,-0.873,-0.9456,-0.9711,-0.9646,-1.1608,-1.2269,0.0,0.0,0.0,0.0,0.0,0.0,0.0,0.0,0.0,0.0,0.0,0.0,0.0,0.0,0.0,0.0,0.0,0.0,0.0,0.0,0.0,0.0,0.0,0.0,0.0,0.0,0.0,0.0,0.0,0.0,0.0,0.0,0.0,0.0,0.0,0.0,0.0,0.0,0.0,0.0,0.0,0.0,0.0,0.0,0.0,0.0,0.0,0.0,0.0,0.0,0.0,0.0,0.0,0.0,0.0,0.0,0.0,0.0,0.0,0.0,0.0,0.0,0.0,0.0,0.0,0.0,0.0,0.0,0.0,0.0,0.0,0.0,0.0,0.0,0.0,0.0,0.0,0.0,0.0,0.0,0.0,0.0,0.0,0.0,0.0,0.0,0.0,0.0,0.0,0.0,0.0,0.0,0.0,0.0,0.0,0.0,0.0,0.0,0.0,0.0,0.0,0.0,0.0,0.0,0.0,0.0,0.0,0.0,0.0,-0.9199,-0.9663,-1.0029,-1.0149,-1.205,-1.2827,0.0,0.0,0.0,0.0,0.0,0.0,0.0,0.0,0.0,0.0,0.0,0.0,0.0,0.0,0.0,0.0,0.0,0.0,0.0,0.0,0.0,0.0,0.0,0.0,0.0,0.0,0.0,0.0,0.0,0.0,0.0,0.0,0.0,0.0,0.0,0.0,0.0,0.0,0.0,0.0,0.0,0.0,0.0,0.0,0.0,0.0,0.0,0.0,0.0,0.0,0.0,0.0,0.0,0.0,0.0,0.0,0.0,0.0,0.0,0.0,0.0,0.0,0.0,0.0,0.0,0.0,0.0,0.0,0.0,0.0,0.0,0.0,0.0,0.0,0.0,0.0,0.0,0.0,0.0,0.0,0.0,0.0,0.0,0.0,0.0,0.0,0.0,0.0,0.0,0.0,0.0,0.0,0.0,0.0,0.0,0.0,0.0,0.0,0.0,0.0,0.0,0.0,0.0,0.0,0.0,0.0,0.0,0.0,-1.0481,-0.9296,-0.9839,-1.0528,-1.1438,-1.304,-1.3331,0.0,0.0,0.0,0.0,0.0,0.0,0.0,0.0,0.0,0.0,0.0,0.0,0.0,0.0,0.0,0.0,0.0,0.0,0.0,0.0,0.0,0.0,0.0,0.0,0.0,0.0,0.0,0.0,0.0,0.0,0.0,0.0,0.0,0.0,0.0,0.0,0.0,0.0,0.0,0.0,0.0,0.0,0.0,0.0,0.0,0.0,0.0,0.0,0.0,0.0,0.0,0.0,0.0,0.0,0.0,0.0,0.0,0.0,0.0,0.0,0.0,0.0,0.0,0.0,0.0,0.0,0.0,0.0,0.0,0.0,0.0,0.0,0.0,0.0,0.0,0.0,0.0,0.0,0.0,0.0,0.0,0.0,0.0,0.0,0.0,0.0,0.0,0.0,0.0,0.0,0.0,0.0,0.0,0.0,0.0,0.0,0.0,0.0,0.0,0.0,0.0,0.0,0.0,0.0,0.0,0.0,0.0,0.0,-0.9969,-0.9429,-0.9968,-1.1232,-1.302,-1.4023,-1.3956,0.0,0.0,0.0,0.0,0.0,0.0,0.0,0.0,0.0,0.0,0.0,0.0,0.0,0.0,0.0,0.0,0.0,0.0,0.0,0.0,0.0,0.0,0.0,0.0,0.0,0.0,0.0,0.0,0.0,0.0,0.0,0.0,0.0,0.0,0.0,0.0,0.0,0.0,0.0,0.0,0.0,0.0,0.0,0.0,0.0,0.0,0.0,0.0,0.0,0.0,0.0,0.0,0.0,0.0,0.0,0.0,0.0,0.0,0.0,0.0,0.0,0.0,0.0,0.0,0.0,0.0,0.0,0.0,0.0,0.0,0.0,0.0,0.0,0.0,0.0,0.0,0.0,0.0,0.0,0.0,0.0,0.0,0.0,0.0,0.0,0.0,0.0,0.0,0.0,0.0,0.0,0.0,0.0,0.0,0.0,0.0,0.0,0.0,0.0,0.0,0.0,0.0,0.0,0.0,0.0,0.0,0.0,0.0,-1.0026,-0.9432,-0.9968,-1.1168,-1.3033,-1.3892,-1.4402,0.0,0.0,0.0,0.0,0.0,0.0,0.0,0.0,0.0,0.0,0.0,0.0,0.0,0.0,0.0,0.0,0.0,0.0,0.0,0.0,0.0,0.0,0.0,0.0,0.0,0.0,0.0,0.0,0.0,0.0,0.0,0.0,0.0,0.0,0.0,0.0,0.0,0.0,0.0,0.0,0.0,0.0,0.0,0.0,0.0,0.0,0.0,0.0,-1.6837,0.0,0.0,0.0,0.0,0.0,0.0,0.0,0.0,0.0,0.0,0.0,0.0,0.0,0.0,0.0,0.0,0.0,0.0,0.0,0.0,0.0,0.0,0.0,0.0,0.0,0.0,0.0,0.0,0.0,0.0,0.0,0.0,0.0,0.0,0.0,0.0,0.0,0.0,0.0,0.0,0.0,0.0,0.0,0.0,0.0,0.0,0.0,0.0,0.0,0.0,0.0,0.0,0.0,0.0,0.0,0.0,0.0,0.0,0.0,-1.0174,-0.9494,-1.0823,-1.2384,-1.4154,-1.5274,-1.5669,0.0,0.0,0.0,0.0,0.0,0.0,0.0,0.0,0.0,0.0,0.0,0.0,0.0,0.0,0.0,0.0,0.0,0.0,0.0,0.0,0.0,0.0,0.0,0.0,0.0,0.0,0.0,0.0,0.0,0.0,0.0,0.0,0.0,0.0,0.0,0.0,0.0,0.0,0.0,0.0,0.0,0.0,0.0,0.0,0.0,0.0,0.0,0.0,0.0,0.0,0.0,0.0,0.0,0.0,0.0,0.0,0.0,0.0,0.0,0.0,0.0,0.0,0.0,0.0,0.0,0.0,0.0,0.0,0.0,0.0,0.0,0.0,0.0,0.0,0.0,0.0,0.0,0.0,0.0,0.0,0.0,0.0,0.0,0.0,0.0,0.0,0.0,0.0,0.0,0.0,0.0,0.0,0.0,0.0,0.0,0.0,0.0,0.0,0.0,0.0,0.0,0.0,0.0,0.0,0.0,0.0,0.0,-1.0961,-1.0613,-0.9896,-1.1975,-1.3998,-1.5705,-1.6937,-1.6967,-1.5901,0.0,0.0,0.0,0.0,0.0,0.0,0.0,0.0,0.0,0.0,0.0,0.0,0.0,0.0,0.0,0.0,0.0,0.0,0.0,0.0,0.0,0.0,0.0,0.0,0.0,0.0,0.0,0.0,0.0,0.0,0.0,0.0,0.0,0.0,0.0,0.0,0.0,0.0,-1.1849,-1.0114,0.0,0.0,0.0,0.0,0.0,0.0,0.0,0.0,-1.9528,0.0,0.0,0.0,0.0,0.0,0.0,0.0,0.0,0.0,0.0,0.0,0.0,0.0,0.0,0.0,0.0,0.0,0.0,0.0,0.0,0.0,0.0,0.0,0.0,0.0,0.0,0.0,0.0,0.0,0.0,0.0,0.0,0.0,0.0,0.0,0.0,0.0,0.0,0.0,0.0,0.0,0.0,0.0,0.0,0.0,0.0,0.0,0.0,0.0,0.0,0.0,0.0,0.0,0.0,0.0,0.0,-1.1702,-1.2189,-1.2127,-1.1429,-1.3204,-1.5087,-1.698,-1.7179,-1.7382,-1.7623,0.0,0.0,0.0,0.0,0.0,0.0,0.0,0.0,0.0,0.0,0.0,0.0,0.0,0.0,0.0,0.0,0.0,0.0,0.0,0.0,0.0,0.0,0.0,0.0,0.0,0.0,0.0,0.0,0.0,0.0,0.0,0.0,0.0,0.0,0.0,0.0,0.0,0.0,0.0,-1.1253,-1.1899,0.0,0.0,0.0,0.0,0.0,0.0,0.0,0.0,-2.1022,0.0,0.0,0.0,0.0,0.0,0.0,0.0,0.0,0.0,0.0,0.0,0.0,0.0,0.0,0.0,0.0,0.0,0.0,0.0,0.0,0.0,0.0,0.0,0.0,0.0,0.0,0.0,0.0,0.0,0.0,0.0,0.0,0.0,0.0,0.0,0.0,0.0,0.0,0.0,0.0,0.0,0.0,0.0,0.0,0.0,0.0,0.0,0.0,0.0,0.0,0.0,0.0,0.0,0.0,0.0,-1.2564,-1.3351,-1.3367,-1.2543,-1.4593,-1.6188,-1.7138,-1.7744,-1.8316,0.0,0.0,0.0,0.0,0.0,0.0,0.0,0.0,0.0,0.0,0.0,0.0,0.0,0.0,0.0,0.0,0.0,0.0,0.0,0.0,0.0,0.0,0.0,0.0,0.0,0.0,0.0,0.0,0.0,0.0,0.0,0.0,0.0,0.0,0.0,0.0,0.0,0.0,0.0,0.0,-1.2697,-1.344,-1.3801,0.0,0.0,0.0,0.0,0.0,0.0,-2.0052,-2.1358,0.0,0.0,0.0,0.0,0.0,0.0,0.0,0.0,0.0,0.0,0.0,0.0,0.0,0.0,0.0,0.0,0.0,0.0,0.0,0.0,0.0,0.0,0.0,0.0,0.0,0.0,0.0,0.0,0.0,0.0,0.0,0.0,0.0,0.0,0.0,0.0,0.0,0.0,0.0,0.0,0.0,0.0,0.0,0.0,0.0,0.0,0.0,0.0,0.0,0.0,0.0,0.0,0.0,0.0,0.0,-1.302,-1.4366,-1.464,-1.3609,-1.5886,-1.7231,-1.7338,-1.8312,-1.8927,0.0,0.0,0.0,0.0,0.0,0.0,0.0,0.0,0.0,0.0,0.0,0.0,0.0,0.0,0.0,0.0,0.0,0.0,0.0,0.0,0.0,0.0,0.0,0.0,0.0,0.0,0.0,0.0,0.0,0.0,0.0,0.0,0.0,0.0,0.0,0.0,0.0,0.0,0.0,0.0,0.0,-1.5295,-1.48,-1.5967,0.0,0.0,0.0,0.0,-1.9702,-2.1055,0.0,0.0,0.0,0.0,0.0,0.0,0.0,0.0,0.0,0.0,0.0,0.0,0.0,0.0,0.0,0.0,0.0,0.0,0.0,0.0,0.0,0.0,0.0,0.0,0.0,0.0,0.0,0.0,0.0,0.0,0.0,0.0,0.0,0.0,0.0,0.0,0.0,0.0,0.0,0.0,0.0,0.0,0.0,0.0,0.0,0.0,0.0,0.0,0.0,0.0,0.0,0.0,0.0,0.0,0.0,0.0,-1.3356,-1.5366,-1.6029,-1.5245,-1.6936,-1.8035,-1.8292,-1.8495,-1.8521,0.0,0.0,0.0,0.0,0.0,0.0,0.0,0.0,0.0,0.0,0.0,0.0,0.0,0.0,0.0,0.0,0.0,0.0,0.0,0.0,0.0,0.0,0.0,0.0,0.0,0.0,0.0,0.0,0.0,0.0,0.0,0.0,0.0,0.0,0.0,0.0,0.0,0.0,0.0,0.0,0.0,-1.8407,-1.6204,-1.7703,-1.89,0.0,0.0,-1.9293,-2.0731,-2.2815,0.0,0.0,0.0,0.0,0.0,0.0,0.0,0.0,0.0,0.0,0.0,0.0,0.0,0.0,0.0,0.0,0.0,0.0,0.0,0.0,0.0,0.0,0.0,0.0,0.0,0.0,0.0,0.0,0.0,0.0,0.0,0.0,0.0,0.0,0.0,0.0,0.0,0.0,0.0,0.0,0.0,0.0,0.0,0.0,0.0,0.0,0.0,0.0,0.0,0.0,0.0,0.0,0.0,0.0,0.0,-1.593,-1.4077,-1.5584,-1.6275,-1.5967,-1.7134,-1.7849,-1.7969,-1.7816,-1.7833,0.0,0.0,0.0,0.0,0.0,0.0,0.0,0.0,0.0,0.0,0.0,0.0,0.0,0.0,0.0,0.0,0.0,0.0,0.0,0.0,0.0,0.0,0.0,0.0,0.0,0.0,0.0,0.0,0.0,0.0,0.0,0.0,0.0,0.0,0.0,0.0,0.0,0.0,0.0,0.0,0.0,0.0,-1.7025,-1.8287,0.0,0.0,0.0,-2.1137,-2.3415,0.0,0.0,0.0,0.0,0.0,0.0,0.0,0.0,0.0,0.0,0.0,0.0,0.0,0.0,0.0,0.0,0.0,0.0,0.0,0.0,0.0,0.0,0.0,0.0,0.0,0.0,0.0,0.0,0.0,0.0,0.0,0.0,0.0,0.0,0.0,0.0,0.0,0.0,0.0,0.0,0.0,0.0,0.0,0.0,0.0,0.0,0.0,0.0,0.0,0.0,0.0,0.0,0.0,0.0,0.0,0.0,0.0,-1.4907,-1.5812,-1.6273,-1.6348,-1.7405,-1.7834,-1.7521,-1.7911,0.0,0.0,0.0,0.0,0.0,0.0,0.0,0.0,0.0,0.0,0.0,0.0,0.0,0.0,0.0,0.0,0.0,0.0,0.0,0.0,0.0,0.0,0.0,0.0,0.0,0.0,0.0,-1.5303,0.0,0.0,0.0,0.0,0.0,0.0,0.0,0.0,0.0,0.0,0.0,0.0,0.0,0.0,-1.9135,-1.8034,-1.9521,-2.1162,0.0,0.0,-2.3004,-2.5604,-2.5998,-2.5881,0.0,0.0,0.0,0.0,0.0,0.0,0.0,0.0,0.0,0.0,0.0,0.0,0.0,0.0,0.0,0.0,0.0,0.0,0.0,0.0,0.0,0.0,0.0,0.0,0.0,0.0,0.0,0.0,0.0,0.0,0.0,0.0,0.0,0.0,0.0,0.0,0.0,0.0,0.0,0.0,0.0,0.0,0.0,0.0,0.0,0.0,0.0,0.0,0.0,0.0,0.0,0.0,0.0,0.0,-1.6544,-1.5834,-1.6126,-1.6315,-1.6384,-1.8146,-1.8484,-1.7329,-1.9486,-2.0168,0.0,0.0,0.0,0.0,0.0,0.0,0.0,0.0,0.0,0.0,0.0,0.0,0.0,0.0,0.0,0.0,0.0,0.0,0.0,0.0,0.0,0.0,0.0,0.0,0.0,0.0,0.0,0.0,0.0,0.0,0.0,0.0,0.0,0.0,0.0,0.0,0.0,0.0,0.0,0.0,0.0,-2.0737,-1.9455,-2.2306,-2.4133,0.0,-2.3654,-2.4706,-2.6403,-2.7429,-2.7495,-2.5946,0.0,0.0,0.0,0.0,0.0,0.0,0.0,0.0,0.0,0.0,0.0,0.0,0.0,0.0,0.0,0.0,0.0,0.0,0.0,0.0,0.0,0.0,0.0,0.0,0.0,0.0,0.0,0.0,0.0,0.0,0.0,0.0,0.0,0.0,0.0,0.0,0.0,0.0,0.0,0.0,0.0,0.0,0.0,0.0,0.0,0.0,0.0,0.0,0.0,0.0,0.0,0.0,0.0,-1.6627,-1.6061,-1.6755,-1.7177,-1.7239,-1.877,-1.9388,-1.8862,-1.9814,-2.022,0.0,0.0,0.0,0.0,0.0,0.0,0.0,0.0,0.0,0.0,0.0,0.0,0.0,0.0,0.0,0.0,0.0,0.0,0.0,0.0,0.0,0.0,0.0,0.0,0.0,0.0,0.0,0.0,-1.7445,-1.8936,-2.1353,0.0,0.0,0.0,0.0,0.0,0.0,0.0,0.0,0.0,0.0,-2.1898,-2.2102,-2.3335,0.0,0.0,-2.5522,-2.6242,-2.8201,-2.7888,-2.7174,-2.626,-2.5518,0.0,0.0,0.0,0.0,0.0,0.0,0.0,0.0,0.0,0.0,0.0,0.0,0.0,0.0,0.0,0.0,0.0,0.0,0.0,0.0,0.0,0.0,0.0,0.0,0.0,0.0,0.0,0.0,0.0,0.0,0.0,0.0,0.0,0.0,0.0,0.0,0.0,0.0,0.0,0.0,0.0,0.0,0.0,0.0,0.0,0.0,0.0,0.0,0.0,0.0,0.0,0.0,-1.7474,-1.7107,-1.7836,-1.8226,-1.8234,-1.9759,-2.0314,-1.9931,-2.064,-2.0937,0.0,0.0,0.0,0.0,0.0,0.0,0.0,0.0,0.0,0.0,0.0,0.0,0.0,0.0,0.0,0.0,0.0,0.0,0.0,0.0,0.0,0.0,0.0,0.0,0.0,0.0,0.0,0.0,-1.8954,-2.0463,-2.1787,0.0,0.0,0.0,0.0,0.0,0.0,0.0,0.0,0.0,0.0,-2.3009,-2.2981,-2.4191,-2.524,-2.5486,-2.6095,-2.6933,-2.8048,-2.755,-2.6733,-2.5947,0.0,0.0,0.0,0.0,0.0,0.0,0.0,0.0,0.0,0.0,0.0,0.0,0.0,0.0,0.0,0.0,0.0,0.0,0.0,0.0,0.0,0.0,0.0,0.0,0.0,0.0,0.0,-1.5744,0.0,0.0,-1.537,0.0,0.0,0.0,0.0,0.0,0.0,0.0,0.0,0.0,0.0,0.0,0.0,0.0,0.0,0.0,0.0,0.0,0.0,0.0,0.0,0.0,0.0,-1.932,-1.9315,-1.9394,-1.9497,-1.9505,-2.1114,-2.1298,-2.011,-2.2364,-2.2865,-2.1185,0.0,0.0,0.0,0.0,0.0,0.0,0.0,0.0,0.0,0.0,0.0,0.0,0.0,0.0,0.0,0.0,0.0,0.0,0.0,0.0,0.0,0.0,0.0,0.0,0.0,0.0,-1.924,-2.0875,-2.1491,0.0,0.0,0.0,0.0,0.0,0.0,0.0,0.0,0.0,-2.072,-2.337,-2.4131,-2.153,-2.5125,-2.6644,-2.2717,-2.4868,-2.6541,-2.5436,-2.6187,-2.6399,0.0,0.0,0.0,0.0,0.0,0.0,0.0,0.0,0.0,0.0,0.0,0.0,0.0,0.0,0.0,0.0,0.0,0.0,0.0,0.0,0.0,0.0,0.0,0.0,0.0,0.0,0.0,-1.6406,-1.6373,0.0,0.0,0.0,0.0,0.0,0.0,0.0,0.0,0.0,0.0,0.0,-1.6112,-1.6119,0.0,0.0,0.0,0.0,0.0,0.0,0.0,0.0,0.0,0.0,0.0,0.0,-1.9671,-2.0233,-2.0563,-2.0711,-2.0711,-2.2037,-2.2488,-2.2067,-2.2888,-2.2925,-2.2049,0.0,0.0,0.0,0.0,0.0,0.0,0.0,0.0,0.0,0.0,0.0,0.0,0.0,0.0,0.0,0.0,0.0,0.0,0.0,0.0,0.0,0.0,0.0,0.0,0.0,-1.7914,0.0,0.0,0.0,0.0,0.0,0.0,0.0,0.0,0.0,0.0,0.0,-2.1074,-2.2342,-2.4285,-2.5271,-2.463,-2.6201,-2.6998,0.0,0.0,0.0,0.0,0.0,0.0,0.0,0.0,0.0,0.0,0.0,0.0,0.0,0.0,-2.582,-2.4167,-2.3501,-2.3208,-2.3208,0.0,0.0,0.0,0.0,0.0,0.0,0.0,0.0,0.0,0.0,0.0,0.0,0.0,0.0,-1.6673,0.0,-1.6339,0.0,0.0,0.0,0.0,0.0,0.0,0.0,0.0,-1.6086,-1.6339,-1.67,-1.6707,-1.6607,0.0,-1.7253,-1.7261,0.0,0.0,0.0,0.0,0.0,0.0,0.0,0.0,-2.0735,-2.1339,-2.1738,-2.1943,-2.1943,-2.2677,-2.3101,-2.3101,-2.3101,-2.2896,-2.2519,-2.1931,-2.1406,0.0,0.0,0.0,0.0,0.0,0.0,0.0,0.0,0.0,0.0,0.0,0.0,0.0,0.0,0.0,0.0,0.0,0.0,0.0,0.0,0.0,0.0,0.0,-1.8692,0.0,0.0,0.0,0.0,0.0,0.0,0.0,0.0,0.0,-2.074,-2.1616,-2.2618,-2.3754,-2.5091,-2.5858,-2.5519,0.0,0.0,0.0,0.0,0.0,0.0,0.0,-2.5293,-2.5283,-2.4834,-2.46,-2.5047,-2.5674,-2.6113,-2.5957,0.0,0.0,-2.4756,-2.4258,-2.4014,-2.3902,-2.3809,-2.3662,-2.3179,-2.3325,-2.3398,0.0,0.0,0.0,0.0,0.0,0.0,0.0,0.0,-1.638,-1.6744,0.0,-1.6306,0.0,0.0,0.0,0.0,-1.5838,-1.6112,0.0,0.0,-1.658,-1.6727,-1.6754,-1.6754,-1.6734,-1.6754,-1.7058,-1.6878,-1.6482,-1.9089,0.0,0.0,0.0,0.0,0.0,0.0,-2.251,-2.2506,-2.2896,-2.3091,-2.3091,-2.3091,-2.3101,-2.3101,-2.3101,-2.2906,-2.2559,-2.251,-2.2119,-2.1278,-2.121,0.0,0.0,0.0,0.0,0.0,0.0,0.0,0.0,0.0,0.0,0.0,0.0,0.0,0.0,0.0,0.0,0.0,0.0,0.0,0.0,-1.8734,0.0,0.0,0.0,0.0,0.0,0.0,0.0,0.0,0.0,0.0,-2.2071,-2.2453,-2.3241,-2.4858,0.0,0.0,0.0,0.0,-2.5327,-2.2401,-2.4066,-2.5091,-2.3457,-2.4532,-2.5333,-2.457,0.0,0.0,-2.5194,-2.542,-2.5586,-2.5156,-2.5439,-2.5908,-2.6629,-2.6025,-2.5478,-2.5019,-2.4316,-2.3691,-2.3208,-2.3159,-2.3159,-1.845,0.0,0.0,0.0,0.0,-1.7174,-1.7455,-1.7849,-1.7856,-1.7829,-1.7762,-1.7288,0.0,0.0,0.0,0.0,0.0,0.0,-1.638,-1.6593,-1.6887,-1.7248,-1.7602,-1.7435,-1.7335,-1.7328,-1.7259,-1.6898,-1.6426,-1.8848,-1.9768,-1.919,0.0,0.0,0.0,0.0,-2.2666,-2.2906,-2.3033,-2.3101,-2.3101,-2.3101,-2.3101,-2.3101,-2.3101,-2.3033,-2.2916,-2.2666,-2.2393,-2.2148,-2.1522,0.0,0.0,0.0,0.0,0.0,0.0,0.0,0.0,0.0,0.0,0.0,0.0,0.0,0.0,0.0,0.0,0.0,0.0,0.0,-1.8871,-2.0126,-2.1108,0.0,0.0,0.0,0.0,0.0,0.0,0.0,0.0,0.0,-2.3261,-2.3637,-2.4188,0.0,0.0,-2.5304,-2.4775,-2.516,-2.5363,-2.5083,-2.5417,0.0,-2.5014,-2.4822,-2.466,-2.4463,-2.4893,-2.5262,-2.5135,-2.5223,-2.5225,-2.5125,-2.4922,-2.4883,-2.5088,-2.5234,-2.498,-2.4336,-2.418,-2.3975,-2.3286,-2.3379,-2.3506,-1.9726,-1.9018,-1.8136,-1.7769,-1.7769,-1.7762,-1.7969,-1.8303,-1.831,-1.8222,-1.819,-1.7769,-1.7288,-1.6767,-1.6359,0.0,0.0,0.0,-1.66,-1.6887,-1.7119,-1.74,-1.7669,-1.7502,-1.7348,-1.7221,-1.6985,-1.6912,-1.7029,-1.8863,-1.9779,-1.9889,0.0,0.0,-2.2754,-2.2721,-2.2847,-2.3081,-2.3101,-2.3101,-2.3101,-2.3101,-2.3101,-2.3101,-2.3101,-2.3101,-2.3101,-2.2857,-2.2685,-2.251,-2.2021,-2.1424,0.0,0.0,0.0,0.0,0.0,0.0,0.0,0.0,0.0,0.0,0.0,-1.8718,-1.802,0.0,0.0,0.0,-1.7225,-1.8591,-2.0583,-2.1211,0.0,0.0,0.0,0.0,0.0,0.0,0.0,-2.3062,-2.3101,-2.3266,-2.373,-2.4014,-2.4326,-2.4746,-2.4951,-2.5057,-2.4834,0.0,-2.5,-2.5537,-2.5381,-2.5215,-2.5157,-2.4766,-2.4424,-2.4424,-2.4629,-2.4795,-2.4814,-2.4814,-2.4805,-2.4785,-2.459,-2.4365,-2.4199,-2.4385,-2.4424,-2.3906,-2.3984,-2.3926,-2.3227,-2.3359,-2.3447,-2.0702,-2.0535,-1.8905,-1.8155,-1.8129,-1.8135,-1.817,-1.8116,-1.8069,-1.8263,-1.8437,-1.7903,-1.7555,-1.7475,-1.6947,0.0,-1.6319,-1.6613,-1.6887,-1.7199,-1.7219,-1.7226,-1.7199,-1.7179,-1.7012,-1.6667,-1.638,-1.6856,-1.7919,-1.8969,-2.0079,-2.1159,-2.2448,-2.3101,-2.3101,-2.3091,-2.3101,-2.3101,-2.3101,-2.3101,-2.3101,-2.3101,-2.3101,-2.3101,-2.3101,-2.3101,-2.3101,-2.3101,-2.2925,-2.2588,-2.25,-2.209,-2.1239,0.0,0.0,0.0,0.0,0.0,0.0,0.0,0.0,0.0,0.0,0.0,0.0,0.0,0.0,0.0,-1.8897,0.0,-2.1753,-2.1924,0.0,0.0,0.0,-2.2568,-2.2568,-2.2867,-2.3101,-2.3101,0.0,0.0,-2.3682,-2.3769,-2.3916,-2.4268,-2.4687,-2.4834,-2.4463,-2.4394,-2.4375,-2.4482,-2.4443,-2.4414,-2.4424,-2.4261,-2.4238,-2.4192,-2.4307,-2.4287,-2.4287,-2.4297,-2.4307,-2.4287,-2.4261,-2.4189,-2.3799,-2.376,-2.374,-2.3721,-2.373,-2.3613,-2.3188,-2.312,-2.313,-2.0875,-2.0621,-1.9987,-1.9527,-1.9386,-1.9386,-1.9252,-1.9032,-1.8811,-1.8631,-1.845,-1.7856,-1.7335,-1.6901,-1.6767,-1.6667,-1.6613,-1.6914,-1.7132,-1.7213,-1.7427,-1.7361,-1.7199,-1.6921,-1.666,-1.6373,-1.6079,-1.6075,-1.6442,-1.8488,-1.9625,-2.0034,-2.2041,-2.3101,-2.3101,-2.3101,-2.3101,-2.3101,-2.3101,-2.3101,-2.3101,-2.3101,-2.3101,-2.3101,-2.3101,-2.3101,-2.3101,-2.3101,-2.3052,-2.2935,-2.2383,-2.1787,-2.122,-2.081,0.0,0.0,0.0,0.0,0.0,0.0,0.0,0.0,0.0,-1.9679,-1.9042,0.0,-1.8507,0.0,-2.0447,-2.1511,-2.1834,-2.2168,0.0,0.0,-2.2886,-2.2945,-2.2955,-2.3033,-2.3101,-2.3101,-2.3101,-2.313,-2.3237,-2.3584,-2.3701,-2.3442,-2.3818,-2.417,-2.4365,-2.4131,-2.4062,-2.4326,-2.4385,-2.4297,-2.3975,-2.3652,-2.3413,-2.3393,-2.3393,-2.3403,-2.3403,-2.3393,-2.3393,-2.3393,-2.3437,-2.3389,-2.3257,-2.3257,-2.3237,-2.3247,-2.3247,-2.3218,-2.311,-2.3091,-2.3091,-2.1015,-2.0842,-2.0555,-2.0261,-1.9967,-1.972,-1.9519,-1.9403,-1.9052,-1.8764,-1.845,-1.7849,-1.7328,-1.6921,-1.7041,-1.7027,-1.6927,-1.7259,-1.7393,-1.74,-1.7561,-1.7355,-1.6954,-1.678,-1.6486,-1.6072,-1.5905,-1.6103,-1.6716,-1.858,-1.9761,-2.035,-2.2173,-2.3101,-2.3101,-2.3101,-2.3101,-2.3101,-2.3101,-2.3101,-2.3101,-2.3101,-2.3101,-2.3101,-2.3101,-2.3101,-2.3101,-2.3101,-2.3101,-2.3081,-2.2695,-2.2168,-2.1553,-2.1103,-2.0644,0.0,0.0,0.0,0.0,0.0,0.0,0.0,0.0,0.0,0.0,0.0,-2.0065,-2.0838,-2.1505,-2.2041,-2.2412,-2.2656,-2.2838,-2.3071,-2.3101,-2.3101,-2.3101,-2.3101,-2.3101,-2.3101,-2.3101,-2.3101,-2.3101,-2.335,-2.3374,-2.313,-2.3296,-2.3584,-2.3725,-2.3633,-2.3594,-2.3773,-2.3803,-2.3656,-2.3281,-2.3018,-2.275,-2.2627,-2.2578,-2.2588,-2.2578,-2.2578,-2.2578,-2.2535,-2.2535,-2.2588,-2.2578,-2.2578,-2.2578,-2.2578,-2.2588,-2.2725,-2.3013,-2.2955,-2.2818,-2.1069,-2.0975,-2.0728,-2.0428,-2.0087,-1.9586,-1.9424,-1.9403,-1.9011,-1.8684,-1.8343,-1.7816,-1.7494,-1.7273,-1.7527,-1.7501,-1.7273,-1.7514,-1.7589,-1.7589,-1.7589,-1.7268,-1.6714,-1.6707,-1.64,-1.5791,-1.5825,-1.6339,-1.7498,-1.8856,-2.0025,-2.1114,-2.2448,-2.3101,-2.3101,-2.3101,-2.3101,-2.3101,-2.3101,-2.3101,-2.3101,-2.3101,-2.3101,-2.3101,-2.3101,-2.3071,-2.3023,-2.3071,-2.3071,-2.3023,-2.2964,-2.2646,-2.1924,-2.1426,-2.1112,0.0,-2.042,0.0,0.0,0.0,0.0,0.0,0.0,0.0,0.0,-2.1113,-2.1668,-2.2409,-2.2236,-2.2324,-2.2955,-2.3062,-2.3101,-2.3101,-2.3101,-2.3101,-2.3101,-2.3101,-2.3101,-2.3101,-2.3052,-2.3023,-2.3003,-2.2974,-2.2925,-2.2877,-2.2886,-2.2906,-2.2945,-2.3042,-2.314,-2.3091,-2.3042,-2.2945,-2.2656,-2.25,-2.2314,-2.1982,-2.1953,-2.1936,-2.1934,-2.1934,-2.1914,-2.1955,-2.1953,-2.1924,-2.1936,-2.1914,-2.1914,-2.1953,-2.1894,-2.207,-2.2643,-2.2666,-2.2441,-2.0828,-2.0333,-2.0341,-2.0013,-1.9526,-1.9412,-1.9424,-1.939,-1.8804,-1.827,-1.7756,-1.7629,-1.7555,-1.7561,-1.7555,-1.7555,-1.7502,-1.7555,-1.7589,-1.7589,-1.7589,-1.7268,-1.672,-1.6707,-1.64,-1.5852,-1.5825,-1.592,-1.6197,-1.8395,-1.9625,-1.9898,-2.2041,-2.3101,-2.3101,0.0,0.0,0.0,-2.3101,-2.3101,-2.3101,-2.3101,-2.3101,-2.3101,-2.3101,0.0,-2.2623,-2.2916,-2.2945,-2.2604,-2.2305,0.0,0.0,0.0,0.0,0.0,0.0,0.0,0.0,0.0,0.0,0.0,-2.168,-2.1494,-2.1172,-2.1775,-2.2334,-2.25,-2.2701,-2.2822,-2.2613,-2.2896,-2.3101,-2.3101,-2.3091,-2.3101,-2.3101,-2.3081,-2.3101,-2.3091,-2.2799,-2.2627,-2.2617,-2.2344,-2.2148,-2.2168,-2.2119,-2.2119,-2.2148,-2.2662,-2.3062,-2.3081,-2.2789,-2.2617,-2.2529,-2.2207,-2.1982,-2.1936,-2.1936,-2.1865,-2.1846,-2.1855,-2.1875,-2.1855,-2.1936,-2.1906,-2.1906,-2.1936,-2.1877,-2.1926,-2.1592,-2.1473,-2.2012,-2.206,-2.2012,-2.0855,-2.0441,-2.0294,-1.998,0.0,-1.9426,-1.9285,-1.9118,-1.8677,-1.815,-1.7589,-1.7589,-1.7589,-1.7589,-1.7589,-1.7502,-1.7427,-1.7522,-1.7554,-1.742,-1.742,-1.7186,-1.67,-1.656,-1.6259,-1.5791,-1.5825,-1.5825,-1.592,-1.8303,-1.9497,-1.9534,-2.1898,-2.3101,-2.3101,-2.3101,-2.3101,-2.3101,-2.3101,-2.3101,-2.3101,-2.3101,-2.3101,-2.3101,-2.3101,0.0,0.0,0.0,0.0,0.0,0.0,0.0,0.0,-2.1496,0.0,-2.1261,-2.1251,-2.1221,-2.12,-2.12,-2.123,-2.128,-2.1435,-2.165,-2.1846,-2.208,-2.2285,-2.248,-2.2529,-2.2432,-2.2236,-2.2402,-2.2519,-2.2519,-2.2519,-2.2519,-2.2519,-2.2529,-2.2519,-2.25,-2.2344,-2.2207,-2.2207,-2.2031,-2.1894,-2.1936,-2.1936,-2.1875,-2.1914,-2.2236,-2.251,-2.2519,-2.2363,-2.2119,-2.1873,-2.1728,-2.1475,-2.1318,-2.128,-2.124,-2.1271,-2.1271,-2.124,-2.128,-2.1271,-2.128,-2.128,-2.1271,-2.1271,-2.1221,-2.1055,-2.0967,-2.1211,-2.1406,-2.1562,-2.0862,-2.0575,-2.0281,-1.9987,-1.97,-1.9524,-1.9165,-1.8824,0.0,0.0,0.0,-1.7589,-1.7589,-1.7635,-1.7528,-1.7427,-1.7219,-1.7393,-1.7353,-1.7125,-1.7125,-1.6914,-1.6627,-1.6386,-1.6112,-1.5838,-1.5825,-1.5825,-1.592,-1.8303,-1.9497,-1.9724,-2.1908,-2.3101,-2.3101,-2.3101,-2.3101,-2.3101,-2.3101,-2.3101,-2.3101,-2.3101,-2.3101,-2.3101,-2.3101,-2.3062,-2.2984,-2.3052,-2.2906,-2.2539,-2.251,-2.2353,-2.2021,-2.1855,-2.1777,-2.1768,-2.1709,-2.1523,-2.122,-2.12,-2.1113,-2.086,-2.1133,-2.1609,-2.2353,-2.208,-2.2021,-2.2373,-2.208,-2.1894,-2.1936,-2.1936,-2.1936,-2.1936,-2.1936,-2.1894,-2.1936,-2.1936,-2.1934,-2.1875,-2.1846,-2.1768,-2.1768,-2.167,-2.1701,-2.1681,-2.1623,-2.166,-2.168,-2.1807,-2.1982,-2.199,-2.1873,-2.165,-2.1327,-2.1132,-2.0977,-2.0742,-2.0654,-2.0615,-2.0615,-2.0615,-2.0615,-2.0683,-2.0615,-2.0644,-2.0625,-2.0674,-2.0615,-2.0605,-2.0537,-2.0488,-2.0517,-2.0674,-2.083,-2.0568,-2.0267,-1.998,-1.9693,-1.9477,-1.9444,-1.9109,-1.8537,-1.8243,-1.7916,-1.7589,-1.7589,-1.7589,-1.7569,-1.7373,-1.7239,-1.7186,-1.6927,-1.6807,-1.6767,-1.6767,-1.6613,-1.6339,-1.6293,-1.6119,-1.5845,-1.5825,-1.5825,-1.6055,-1.8295,-1.9497,-1.977,-2.1908,-2.3101,-2.3101,-2.3101,-2.3101,-2.3101,-2.3101,-2.3101,-2.3101,-2.3101,-2.3101,-2.3101,-2.3101,-2.2925,-2.2617,-2.2906,-2.2906,-2.2539,-2.251,-2.249,-2.2402,-2.1728,-2.1288,-2.1268,-2.0967,-2.0889,-2.1171,-2.12,-2.1327,-2.167,-2.1758,-2.1855,-2.1953,-2.1924,-2.1914,-2.1973,-2.1904,-2.1936,-2.1936,-2.1855,-2.1836,-2.1897,-2.1916,-2.1926,-2.1877,-2.1877,-2.1867,-2.1816,-2.1553,-2.1288,-2.1259,-2.1025,-2.0869,-2.083,-2.0938,-2.083,-2.0938,-2.1416,-2.1873,-2.1864,-2.1547,-2.1296,-2.1052,-2.0888,-2.0654,-2.0625,-2.0576,-2.0566,-2.0605,-2.0615,-2.0615,-2.0615,-2.0615,-2.0595,-2.0586,-2.0615,-2.0566,-2.0537,-2.0283,-2.0059,-2.0049,-1.9873,-1.9736,-2.0501,-2.0207,-1.992,-1.9633,-1.9403,-1.9032,-1.8744,-1.845,-1.7996,-1.7716,-1.7575,-1.7474,-1.7487,-1.7535,-1.7114,-1.6958,-1.6901,-1.6767,-1.662,-1.648,-1.6473,-1.6449,-1.6315,-1.6106,-1.5959,-1.5832,-1.5825,-1.5825,-1.5967,-1.7669,-1.8864,-1.9633,-2.1908,-2.3101,-2.3101,-2.3101,-2.3101,-2.3101,-2.3101,-2.3101,-2.3101,-2.3101,-2.3101,-2.3101,-2.3101,-2.3013,-2.2818,-2.2994,-2.2906,-2.2519,-2.2285,-2.2275,-2.248,-2.1668,-2.1298,-2.1553,-2.1182,-2.0908,-2.0879,-2.0869,-2.0957,-2.1182,-2.1202,-2.1212,-2.1212,-2.1652,-2.1787,-2.1562,-2.1533,-2.1426,-2.1201,-2.1202,-2.1212,-2.1162,-2.1212,-2.1212,-2.1202,-2.1212,-2.1212,-2.1152,-2.1006,-2.0879,-2.0869,-2.0693,-2.0615,-2.0615,-2.0605,-2.0527,-2.0292,-2.0547,-2.0839,-2.0793,-2.0623,-2.0411,-2.0246,-2.0255,-2.0215,-2.0205,-2.0205,-2.0312,-2.0527,-2.0605,-2.0605,-2.0615,-2.0605,-2.0498,-2.0293,-2.0205,-2.0205,-2.0195,-2.0088,-1.9922,-1.9853,-1.9414,-1.9121,-2.0448,-2.0207,-1.9853,-1.9573,-1.9312,-1.8738,-1.8497,-1.843,-1.7849,-1.7589,-1.7601,-1.74,-1.7387,-1.7422,-1.6934,-1.6673,-1.6607,-1.654,-1.6386,-1.6192,-1.6172,-1.6172,-1.6152,-1.5932,-1.5825,-1.5825,-1.5825,-1.5825,-1.5967,-1.7358,-1.8864,-2.0359,-2.2183,-2.3101,-2.3101,-2.3101,-2.3101,-2.3101,-2.3101,-2.3101,-2.3101,-2.3101,-2.3101,-2.3101,-2.3101,-2.3101,-2.3101,-2.3101,-2.2906,-2.2529,-2.2207,-2.2139,-2.2314,-2.1609,-2.1377,-2.166,-2.1328,-2.0928,-2.0654,-2.0615,-2.0615,-2.0615,-2.0615,-2.0615,-2.0664,-2.1222,-2.1465,-2.1143,-2.1084,-2.0947,-2.0713,-2.0644,-2.0615,-2.0615,-2.0615,-2.0654,-2.0625,-2.0615,-2.0615,-2.0615,-2.0615,-2.0625,-2.0615,-2.0615,-2.0556,-2.0458,-2.0527,-2.041,-1.9912,-1.9775,-1.976,-1.963,-1.9695,-1.9699,-1.9356,-1.9584,-1.9805,-1.9863,-1.9922,-2.0137,-2.041,-2.0546,-2.0527,-2.0527,-2.039,-2.0292,-2.0059,-1.998,-1.9951,-1.9951,-1.9844,-1.9687,-1.9375,-1.8936,-1.8603,-2.02,-2.0147,-1.9639,-1.945,-1.9363,-1.8744,-1.8504,-1.8417,-1.7842,-1.7589,-1.7575,-1.7549,-1.7454,-1.7213,-1.6854,-1.6573,-1.6319,-1.6039,-1.5864,-1.5885,-1.5824,-1.5865,-1.5885,-1.5838,-1.5825,-1.5825,-1.5825,-1.5825,-1.592,-1.8172,-2.0449,-2.2545,-2.2994,-2.3101,-2.3101,-2.3101,-2.3101,-2.3101,-2.3101,-2.3101,-2.3101,-2.3101,-2.3101,-2.3101,-2.3101,-2.3101,-2.3071,-2.3101,-2.2896,-2.2559,-2.2451,-2.2275,-2.1953,-2.1444,-2.121,-2.1239,-2.0889,-2.0635,-2.0615,-2.0615,-2.0615,-2.0615,-2.0615,-2.0615,-2.0615,-2.0693,-2.0732,-2.0693,-2.0674,-2.0664,-2.0615,-2.0615,-2.0615,-2.0615,-2.0615,-2.0615,-2.0615,-2.0615,-2.0615,-2.0615,-2.0615,-2.0615,-2.0615,-2.0615,-2.0458,-2.0156,-2.0391,-2.0283,-1.958,-1.9414,-1.9231,-1.894,-1.9068,-1.9301,-1.9246,-1.9318,-1.947,-1.9766,-1.9873,-2.001,-2.0253,-2.0195,-2.0078,-2.0361,-2.0028,-1.9805,-2.0137,-2.0205,-1.9912,-1.9863,-1.9609,-1.916,-1.8457,-1.8184,-1.8184,-2.0127,-1.994,-1.9539,-1.9424,-1.9363,-1.8918,-1.8651,-1.845,-1.8043,-1.7756,-1.7595,-1.7589,-1.7422,-1.7192,-1.684,-1.6547,-1.6273,-1.6146,-1.5992,-1.5838,-1.5825,-1.5825,-1.5825,-1.5825,-1.5825,-1.5825,-1.5825,-1.5825,-1.6237,-1.8303,-2.0359,-2.1943,-2.2721,-2.3101,-2.3101,-2.3101,-2.3101,-2.3101,-2.3101,-2.3101,-2.3101,-2.3101,-2.3101,-2.3101,-2.3101,-2.2964,-2.2803,-2.2764,-2.2578,-2.2168,-2.1904,-2.1807,-2.1875,-2.1221,-2.0967,-2.1132,-2.081,-2.0615,-2.0615,-2.0615,-2.0615,-2.0615,-2.0615,-2.0615,-2.0615,-2.0615,-2.0615,-2.0615,-2.0615,-2.0615,-2.0615,-2.0615,-2.0615,-2.0615,-2.0615,-2.0615,-2.0615,-2.0615,-2.0615,-2.0615,-2.0615,-2.0605,-2.0615,-2.0615,-2.0527,-2.0332,-2.0507,-2.0205,-1.9443,-1.9277,-1.8958,-1.8446,-1.8422,-1.8521,-1.8571,-1.8736,-1.8955,-1.9075,-1.9114,-1.9316,-1.9687,-1.9707,-1.9687,-2.0117,-1.9834,-1.9707,-2.0059,-2.0068,-1.9902,-1.9814,-1.9561,-1.9092,-1.8461,-1.8149,-1.8047,-1.9987,-1.9766,-1.9551,-1.9424,-1.939,-1.8965,-1.8684,-1.845,-1.8083,-1.7796,-1.7595,-1.7589,-1.7422,-1.7186,-1.684,-1.6547,-1.6286,-1.6186,-1.6039,-1.5838,-1.5825,-1.5825,-1.5825,-1.5825,-1.5825,-1.5825,-1.5825,-1.5967,-1.6473,-1.8395,-2.0124,-2.1293,-2.2492,-2.3101,-2.3101,-2.3101,-2.3101,-2.3101,-2.3101,-2.3101,-2.3101,-2.3101,-2.3101,-2.3101,-2.3101,-2.2896,-2.2539,-2.251,-2.2256,-2.1728,-2.1366,-2.1318,-2.1475,-2.0948,-2.0713,-2.0977,-2.0762,-2.0615,-2.0615,-2.0615,-2.0615,-2.0615,-2.0615,-2.0615,-2.0615,-2.0615,-2.0615,-2.0615,-2.0615,-2.0615,-2.0615,-2.0615,-2.0615,-2.0615,-2.0615,-2.0615,-2.0615,-2.0615,-2.0615,-2.0615,-2.0615,-2.0546,-2.0468,-2.0507,-2.0517,-2.0233,-2.0292,-2.0078,-1.9346,-1.9072,-1.8828,-1.8135,-1.8027,-1.8027,-1.8027,-1.8252,-1.8422,-1.8588,-1.8656,-1.8831,-1.918,-1.9277,-1.9316,-1.9727,-1.9736,-1.9834,-1.9961,-1.9941,-1.9795,-1.9658,-1.9336,-1.8887,-1.8393,-1.8174,-1.8047,-1.9806,-1.9753,-1.9486,-1.9424,-1.9383,-1.8778,-1.851,-1.8457,-1.7883,-1.7602,-1.7589,-1.7589,-1.7422,-1.7206,-1.6867,-1.6553,-1.6273,-1.6019,-1.5892,-1.5852,-1.5784,-1.5825,-1.5825,-1.5825,-1.5825,-1.5825,-1.5825,-1.6386,-1.7544,-1.8818,-2.0124,-2.1293,-2.2448,-2.3047,-2.3101,-2.3101,-2.3101,-2.3101,-2.3101,-2.3101,-2.3101,-2.3101,-2.3101,-2.3101,-2.3101,-2.2896,-2.2549,-2.25,-2.2087,-2.1249,-2.1181,-2.1055,-2.0742,-2.0644,-2.0625,-2.0644,-2.0625,-2.0615,-2.0615,-2.0615,-2.0615,-2.0615,-2.0615,-2.0615,-2.0615,-2.0615,-2.0615,-2.0615,-2.0615,-2.0615,-2.0615,-2.0615,-2.0615,-2.0615,-2.0615,-2.0615,-2.0595,-2.0566,-2.0595,-2.0566,-2.0507,-2.0293,-2.0,-2.0312,-2.0184,-1.9766,-1.9746,-1.9687,-1.9033,-1.8715,-1.8461,-1.8149,-1.8008,-1.8008,-1.8018,-1.8096,-1.8227,-1.8364,-1.85,-1.8666,-1.9043,-1.9287,-1.9287,-1.9326,-1.9385,-1.9531,-1.9795,-1.9805,-1.9629,-1.9336,-1.8769,-1.833,-1.8242,-1.8096,-1.8008,-1.9686,-1.9519,-1.9412,-1.9424,-1.9377,-1.8931,-1.8671,-1.8457,-1.8056,-1.7769,-1.7602,-1.7589,-1.7522,-1.7467,-1.7166,-1.6878,-1.654,-1.6246,-1.6112,-1.6092,-1.5871,-1.5825,-1.5825,-1.5825,-1.5825,-1.5825,-1.5825,-1.6433,-1.7591,-1.8187,-1.9351,-2.1025,-2.1712,-2.2306,-2.296,-2.3101,-2.3101,-2.3101,-2.3101,-2.3101,-2.3101,-2.3101,-2.3101,-2.3101,-2.3101,-2.2822,-2.2129,-2.2109,-2.1709,-2.084,-2.0801,-2.0732,-2.0625,-2.0615,-2.0615,-2.0615,-2.0615,-2.0615,-2.0615,-2.0615,-2.0615,-2.0615,-2.0615,-2.0615,-2.0615,-2.0615,-2.0615,-2.0615,-2.0615,-2.0615,-2.0615,-2.0615,-2.0605,-2.0605,-2.0605,-2.0576,-2.0546,-2.0332,-2.0156,-2.0107,-1.9932,-1.9715,-1.9668,-1.9883,-2.001,-1.9775,-1.9814,-1.96,-1.918,-1.8838,-1.8432,-1.8135,-1.8008,-1.8008,-1.8008,-1.8008,-1.8076,-1.8154,-1.8242,-1.8262,-1.8477,-1.8613,-1.8613,-1.8906,-1.9014,-1.9307,-1.959,-1.9492,-1.9336,-1.8958,-1.8383,-1.8149,-1.8022,-1.8018,-1.8008,-1.9553,-1.9437,-1.9424,-1.9424,-1.9377,-1.8945,-1.8677,-1.845,-1.807,-1.7776,-1.7609,-1.7589,-1.7589,-1.7535,-1.7326,-1.7159,-1.6947,-1.6593,-1.6313,-1.6139,-1.6019,-1.5919,-1.5791,-1.5825,-1.5825,-1.5825,-1.5825,-1.6292,-1.7037,-1.7505,-1.8772,-2.0621,-2.1069,-2.1898,-2.2906,-2.3101,-2.3101,-2.3101,-2.3101,-2.3101,-2.3101,-2.3101,-2.3101,-2.3101,-2.3101,-2.2754,-2.1934,-2.1758,-2.1348,-2.0732,-2.0615,-2.0615,-2.0615,-2.0615,-2.0615,-2.0615,-2.0615,-2.0615,-2.0615,-2.0615,-2.0615,-2.0615,-2.0615,-2.0615,-2.0615,-2.0615,-2.0615,-2.0615,-2.0615,-2.0615,-2.0576,-2.0439,-2.04,-2.037,-2.0273,-2.0194,-2.0175,-1.9893,-1.9736,-1.9678,-1.9512,-1.9287,-1.916,-1.9473,-1.958,-1.9504,-1.9475,-1.9329,-1.9102,-1.8711,-1.8325,-1.8052,-1.8008,-1.8008,-1.8008,-1.8008,-1.8008,-1.8066,-1.8096,-1.8037,-1.8037,-1.8086,-1.8193,-1.8442,-1.8744,-1.9121,-1.9238,-1.915,-1.8945,-1.8637,-1.8373,-1.81,-1.8066,-1.8018,-1.8008,-1.943,-1.9424,-1.9424,-1.9403,-1.9252,-1.8751,-1.8504,-1.837,-1.7856,-1.7615,-1.7589,-1.7589,-1.7589,-1.7528,-1.7373,-1.7347,-1.7301,-1.6941,-1.6466,-1.6012,-1.6119,-1.6059,-1.5791,-1.5825,-1.5825,-1.5825,-1.5825,-1.5825,-1.6015,-1.7131,-1.8411,-1.9588,-2.08,-2.1889,-2.3091,-2.3101,-2.3101,-2.3101,-2.3101,-2.3101,-2.3101,-2.3101,-2.3101,-2.3101,-2.3071,-2.2662,-2.1924,-2.1523,-2.1113,-2.0693,-2.0615,-2.0615,-2.0615,-2.0615,-2.0615,-2.0615,-2.0615,-2.0615,-2.0615,-2.0615,-2.0615,-2.0615,-2.0615,-2.0615,-2.0615,-2.0615,-2.0615,-2.0615,-2.0605,-2.0595,-2.0498,-2.0156,-1.9932,-1.9883,-1.9678,-1.9443,-1.9385,-1.9307,-1.9268,-1.9228,-1.915,-1.9062,-1.8812,-1.9004,-1.915,-1.8861,-1.8754,-1.8763,-1.8685,-1.8354,-1.8076,-1.8018,-1.8008,-1.8008,-1.8008,-1.8008,-1.8008,-1.8018,-1.8027,-1.8008,-1.8066,-1.8081,-1.8125,-1.8315,-1.8545,-1.8867,-1.9004,-1.8906,-1.8682,-1.8393,-1.8198,-1.8061,-1.8057,-1.8008,-1.8008,-1.9424,-1.9424,-1.9424,-1.9245,-1.9025,-1.8651,-1.8384,-1.8156,-1.7749,-1.7589,-1.7589,-1.7589,-1.7589,-1.7621,-1.7534,-1.7275,-1.7014,-1.7148,-1.6987,-1.646,-1.6132,-1.5891,-1.5845,-1.5825,-1.5825,-1.5825,-1.5825,-1.5825,-1.6062,-1.7091,-1.8319,-1.9497,-2.0711,-2.1898,-2.3047,-2.3101,-2.3101,-2.3101,-2.3101,-2.3101,-2.3101,-2.3101,-2.3101,-2.3062,-2.2828,-2.2441,-2.1924,-2.1758,-2.1318,-2.0654,-2.0615,-2.0615,-2.0615,-2.0615,-2.0615,-2.0615,-2.0615,-2.0615,-2.0615,-2.0615,-2.0615,-2.0615,-2.0615,-2.0615,-2.0615,-2.0615,-2.0615,-2.0615,-2.0605,-2.0507,-2.0127,-1.9736,-1.9629,-1.9883,-1.9541,-1.9238,-1.918,-1.9004,-1.8676,-1.8457,-1.8408,-1.833,-1.8286,-1.8584,-1.8734,-1.8627,-1.8568,-1.8568,-1.852,-1.8262,-1.8027,-1.8008,-1.8008,-1.8008,-1.8008,-1.8008,-1.8008,-1.8008,-1.8008,-1.8008,-1.8066,-1.8071,-1.8115,-1.8184,-1.8379,-1.8525,-1.8672,-1.8613,-1.8389,-1.8252,-1.8105,-1.8037,-1.8018,-1.8008,-1.8008,-1.9199,-1.9192,-1.9085,-1.8938,-1.8738,-1.845,-1.8223,-1.7962,-1.7716,-1.7589,-1.7589,-1.7589,-1.7589,-1.7589,-1.7589,-1.7382,-1.7081,-1.7328,-1.7161,-1.672,-1.6366,-1.6052,-1.5865,-1.5825,-1.5825,-1.5825,-1.5825,-1.5825,-1.5872,-1.6615,-1.7809,-1.9405,-2.0251,-2.148,-2.2916,-2.3101,-2.3101,-2.3101,-2.3101,-2.3101,-2.3101,-2.3101,-2.3101,-2.3052,-2.2838,-2.2418,-2.1963,-2.1936,-2.1515,-2.0781,-2.0615,-2.0615,-2.0615,-2.0615,-2.0615,-2.0615,-2.0615,-2.0615,-2.0615,-2.0615,-2.0615,-2.0615,-2.0615,-2.0615,-2.0615,-2.0615,-2.0615,-2.0615,-2.0605,-2.0498,-2.0156,-1.9619,-1.9453,-1.9629,-1.9121,-1.8848,-1.8769,-1.8574,-1.834,-1.8115,-1.8047,-1.8008,-1.8086,-1.8149,-1.8373,-1.8373,-1.8364,-1.8364,-1.8315,-1.8174,-1.8066,-1.8008,-1.8008,-1.8008,-1.8008,-1.8008,-1.8008,-1.8008,-1.8008,-1.8008,-1.8037,-1.8037,-1.8047,-1.8057,-1.8184,-1.8232,-1.835,-1.8262,-1.8096,-1.8018,-1.8008,-1.8008,-1.8008,-1.8008,-1.8008,-1.8918,-1.8865,-1.8611,-1.8504,-1.8437,-1.8129,-1.7989,-1.7956,-1.7709,-1.7589,-1.7589,-1.7589,-1.7562,-1.7555,-1.7555,-1.7508,-1.7527,-1.7313,-1.7045,-1.6727,-1.6547,-1.6306,-1.5879,-1.5825,-1.5825,-1.5825,-1.5825,-1.5825,-1.5825,-1.615,-1.7117,-1.9306,-1.9852,-2.0809,-2.2687,-2.3101,-2.3101,-2.3101,-2.3101,-2.3101,-2.3101,-2.3101,-2.3101,-2.3101,-2.3052,-2.2672,-2.2012,-2.1748,-2.1398,-2.0723,-2.0615,-2.0615,-2.0615,-2.0615,-2.0615,-2.0615,-2.0615,-2.0556,-2.0566,-2.0586,-2.0566,-2.0507,-2.0566,-2.0615,-2.0615,-2.0615,-2.0615,-2.0615,-2.0615,-2.0576,-2.0361,-1.9766,-1.9326,-1.9102,-1.8574,-1.8184,-1.8047,-1.8057,-1.8047,-1.8027,-1.8008,-1.8008,-1.8008,-1.8047,-1.8057,-1.8066,-1.8076,-1.8096,-1.8086,-1.8047,-1.8018,-1.8008,-1.8008,-1.8008,-1.8008,-1.8008,-1.8008,-1.8008,-1.8008,-1.8008,-1.8008,-1.8008,-1.8008,-1.8008,-1.8008,-1.8027,-1.8037,-1.8018,-1.8008,-1.8008,-1.8008,-1.8008,-1.8008,-1.8008,-1.8008,-1.8798,-1.8604,-1.8517,-1.837,-1.8176,-1.8015,-1.7909,-1.7716,-1.7622,-1.7589,-1.7582,-1.7589,-1.7507,-1.7353,-1.7482,-1.7361,-1.7074,-1.7139,-1.6904,-1.6496,-1.6386,-1.6186,-1.5892,-1.5825,-1.5825,-1.5825,-1.5825,-1.5825,-1.5879,-1.6574,-1.7902,-1.9497,-2.0215,-2.1445,-2.2906,-2.3047,-2.3101,-2.3101,-2.3101,-2.3101,-2.3101,-2.3101,-2.3101,-2.3101,-2.3101,-2.2682,-2.1914,-2.129,-2.0889,-2.0664,-2.0615,-2.0615,-2.0615,-2.0615,-2.0615,-2.0615,-2.0595,-2.042,-2.0234,-2.0391,-2.04,-2.0156,-2.041,-2.0605,-2.0615,-2.0605,-2.0605,-2.0615,-2.0605,-2.0478,-2.0098,-1.9619,-1.9082,-1.8437,-1.8144,-1.8008,-1.8008,-1.8008,-1.8008,-1.8008,-1.8008,-1.8008,-1.8008,-1.8008,-1.8008,-1.8008,-1.8008,-1.8008,-1.8008,-1.8008,-1.8008,-1.8008,-1.8008,-1.8008,-1.8008,-1.8008,-1.8008,-1.8008,-1.8008,-1.8008,-1.8008,-1.8008,-1.8008,-1.8008,-1.8008,-1.8018,-1.8018,-1.8008,-1.8008,-1.8008,-1.8008,-1.8008,-1.8008,-1.8008,-1.8008,-1.8457,-1.8297,-1.8163,-1.8009,-1.7856,-1.7856,-1.7742,-1.7609,-1.7589,-1.7589,-1.7562,-1.7501,-1.736,-1.7219,-1.7188,-1.7041,-1.6767,-1.6881,-1.675,-1.6375,-1.6152,-1.5992,-1.5804,-1.5825,-1.5825,-1.5825,-1.5825,-1.5825,-1.5872,-1.6574,-1.7809,-1.9177,-1.9679,-2.0908,-2.295,-2.2536,-2.2633,-2.2994,-2.3101,-2.3101,-2.3101,-2.3101,-2.3101,-2.3101,-2.3071,-2.2701,-2.1924,-2.1221,-2.0781,-2.0674,-2.0615,-2.0615,-2.0615,-2.0615,-2.0615,-2.0615,-2.0605,-2.0478,-2.0264,-2.0293,-2.0166,-2.001,-2.0185,-2.0264,-2.0322,-2.0468,-2.0615,-2.0615,-2.0615,-2.0439,-2.0156,-1.9648,-1.8926,-1.8232,-1.8008,-1.8008,-1.8008,-1.8008,-1.8008,-1.8008,-1.8008,-1.8008,-1.8008,-1.8008,-1.8008,-1.8008,-1.8008,-1.8008,-1.8008,-1.8008,-1.8008,-1.8008,-1.8008,-1.8008,-1.8008,-1.8008,-1.8008,-1.8008,-1.8008,-1.8008,-1.8008,-1.8008,-1.8008,-1.8008,-1.8008,-1.8008,-1.8008,-1.8008,-1.8008,-1.8008,-1.8008,-1.8008,-1.8008,-1.8008,-1.8008,-1.7969,-1.7922,-1.7695,-1.7589,-1.7602,-1.7589,-1.7602,-1.7589,-1.7589,-1.7589,-1.7581,-1.7333,-1.7192,-1.7139,-1.6887,-1.6707,-1.6647,-1.6647,-1.6473,-1.6199,-1.5992,-1.5838,-1.5838,-1.5825,-1.5825,-1.5825,-1.5825,-1.5825,-1.5825,-1.5872,-1.707,-1.8495,-1.828,-1.955,-2.1676,-2.1702,-2.1987,-2.2633,-2.3003,-2.3101,-2.3101,-2.3101,-2.3101,-2.3071,-2.2847,-2.2578,-2.1934,-2.1367,-2.0937,-2.0615,-2.0615,-2.0615,-2.0615,-2.0615,-2.0615,-2.0615,-2.0605,-2.0566,-2.0488,-2.0166,-1.999,-1.9971,-1.998,-1.998,-2.0137,-2.0391,-2.0615,-2.0615,-2.0615,-2.0498,-2.0224,-1.9668,-1.8945,-1.8223,-1.8008,-1.8008,-1.8008,-1.8008,-1.8008,-1.8008,-1.8008,-1.8008,-1.8008,-1.8008,-1.8008,-1.8008,-1.8008,-1.8008,-1.8008,-1.8008,-1.8008,-1.8008,-1.8008,-1.8008,-1.8008,-1.8008,-1.8008,-1.8008,-1.8008,-1.8008,-1.8008,-1.8008,-1.8008,-1.8008,-1.8008,-1.8008,-1.8008,-1.8008,-1.8008,-1.8008,-1.8008,-1.8008,-1.8008,-1.8008,-1.8008,-1.7909,-1.7682,-1.7661,-1.7589,-1.7589,-1.7589,-1.7589,-1.7589,-1.7589,-1.7589,-1.7568,-1.732,-1.7072,-1.6807,-1.67,-1.6587,-1.6373,-1.6353,-1.6206,-1.5945,-1.5885,-1.5832,-1.5825,-1.5825,-1.5825,-1.5825,-1.5825,-1.5825,-1.5825,-1.592,-1.6574,-1.7824,-1.7909,-1.8549,-2.0087,-2.1069,-2.1391,-2.1845,-2.2589,-2.3101,-2.3101,-2.3101,-2.3081,-2.3023,-2.2568,-2.2139,-2.1797,-2.1163,-2.0723,-2.0635,-2.0615,-2.0615,-2.0615,-2.0615,-2.0615,-2.0615,-2.0595,-2.0468,-2.0176,-2.0254,-2.0264,-1.9971,-2.0156,-2.0468,-2.0458,-2.0517,-2.0605,-2.0615,-2.0595,-2.0341,-1.9727,-1.9443,-1.8857,-1.8232,-1.8008,-1.8008,-1.8008,-1.8008,-1.8008,-1.8008,-1.8008,-1.8008,-1.8008,-1.8008,-1.8008,-1.8008,-1.8008,-1.8008,-1.8008,-1.8008,-1.8008,-1.8008,-1.8008,-1.8008,-1.8008,-1.8008,-1.8008,-1.8008,-1.8008,-1.8008,-1.8008,-1.8008,-1.8008,-1.8008,-1.8008,-1.8008,-1.8008,-1.8008,-1.8008,-1.8008,-1.8008,-1.8008,-1.8008,-1.8008,-1.8008,-1.7729,-1.7589,-1.7589,-1.7589,-1.7589,-1.7589,-1.7589,-1.7589,-1.7589,-1.7589,-1.7482,-1.7192,-1.6854,-1.668,-1.6426,-1.6192,-1.6099,-1.6066,-1.5992,-1.5811,-1.5832,-1.5825,-1.5825,-1.5825,-1.5825,-1.5825,-1.5825,-1.5825,-1.5825,-1.592,-1.648,-1.7498,-1.7131,-1.7863,-1.926,-2.0161,-2.0711,-2.148,-2.2448,-2.3101,-2.3101,-2.3101,-2.2955,-2.2877,-2.2539,-2.2266,-2.1572,-2.1396,-2.1026,-2.0732,-2.0615,-2.0615,-2.0615,-2.0615,-2.0615,-2.0615,-2.0605,-2.0517,-2.0342,-2.0215,-2.0137,-1.9913,-2.0156,-2.0215,-2.037,-2.0458,-2.0605,-2.0615,-2.0537,-2.0253,-1.9394,-1.9043,-1.8643,-1.8213,-1.8018,-1.8008,-1.8008,-1.8008,-1.8008,-1.8008,-1.8008,-1.8008,-1.8008,-1.8008,-1.8008,-1.8008,-1.8008,-1.8008,-1.8008,-1.8008,-1.8008,-1.8008,-1.8008,-1.8008,-1.8008,-1.8008,-1.8008,-1.8008,-1.8008,-1.8008,-1.8008,-1.8008,-1.8008,-1.8008,-1.8008,-1.8008,-1.8008,-1.8008,-1.8008,-1.8008,-1.8008,-1.8008,-1.8008,-1.8008,-1.8008,-1.7589,-1.7589,-1.7589,-1.7589,-1.7589,-1.7589,-1.7589,-1.7589,-1.7589,-1.7589,-1.7468,-1.6961,-1.6734,-1.6587,-1.6112,-1.5811,-1.5838,-1.5804,-1.5845,-1.5832,-1.5825,-1.5825,-1.5825,-1.5825,-1.5825,-1.5825,-1.5825,-1.5825,-1.5825,-1.5872,-1.6292,-1.7037,-1.6386,-1.6889,-1.8488,-1.9443,-1.9988,-2.089,-2.2315,-2.3101,-2.3101,-2.3081,-2.2896,-2.2676,-2.2598,-2.2194,-2.1492,-2.1348,-2.13,-2.0674,-2.0615,-2.0615,-2.0615,-2.0615,-2.0615,-2.0615,-2.0615,-2.0576,-2.0498,-2.0264,-2.0088,-2.001,-2.0039,-2.0049,-2.0156,-2.0371,-2.0566,-2.0615,-2.0537,-2.0253,-1.9394,-1.9189,-1.8769,-1.8359,-1.8193,-1.8105,-1.8061,-1.8076,-1.8008,-1.8008,-1.8008,-1.8008,-1.8008,-1.8008,-1.8008,-1.8008,-1.8008,-1.8008,-1.8008,-1.8008,-1.8008,-1.8008,-1.8008,-1.8008,-1.8008,-1.8008,-1.8008,-1.8008,-1.8008,-1.8008,-1.8008,-1.8008,-1.8008,-1.8008,-1.8008,-1.8008,-1.8008,-1.8008,-1.8008,-1.8008,-1.8008,-1.8008,-1.8008,-1.8008,-1.8008,-1.7589,-1.7589,-1.7589,-1.7589,-1.7582,-1.7582,-1.7569,-1.7589,-1.7562,-1.7635,-1.7488,-1.6974,-1.67,-1.654,-1.6044,-1.5791,-1.5825,-1.5825,-1.5825,-1.5825,-1.5825,-1.5825,-1.5825,-1.5825,-1.5825,-1.5825,-1.5825,-1.5825,-1.5825,-1.5825,-1.6015,-1.6109,-1.5967,-1.6332,-1.707,-1.8303,-1.9588,-2.0305,-2.1996,-2.3047,-2.3101,-2.3071,-2.2886,-2.2539,-2.2402,-2.1934,-2.1377,-2.0967,-2.0742,-2.0615,-2.0615,-2.0615,-2.0615,-2.0615,-2.0615,-2.0615,-2.0615,-2.0615,-2.0576,-2.0537,-2.0478,-2.0488,-2.0449,-2.0458,-2.0459,-2.0508,-2.0605,-2.0595,-2.0527,-2.0243,-1.9441,-1.9394,-1.9434,-1.9111,-1.8701,-1.8461,-1.8403,-1.8232,-1.8018,-1.8008,-1.8008,-1.8008,-1.8008,-1.8008,-1.8008,-1.8008,-1.8008,-1.8008,-1.8008,-1.8008,-1.8008,-1.8008,-1.8008,-1.8008,-1.8008,-1.8008,-1.8008,-1.8008,-1.8008,-1.8008,-1.8008,-1.8008,-1.8008,-1.8008,-1.8008,-1.8008,-1.8008,-1.8008,-1.8008,-1.8008,-1.8008,-1.8008,-1.8008,-1.8008,-1.8008,-1.7589,-1.7589,-1.7589,-1.7541,-1.742,-1.7407,-1.7407,-1.7407,-1.7407,-1.7407,-1.728,-1.6901,-1.6613,-1.64,-1.6046,-1.5832,-1.5825,-1.5825,-1.5825,-1.5825,-1.5825,-1.5825,-1.5825,-1.5825,-1.5825,-1.5825,-1.5825,-1.5825,-1.5825,-1.5825,-1.5825,-1.5825,-1.5825,-1.5825,-1.6379,-1.8265,-1.9314,-2.0034,-2.1765,-2.3101,-2.3101,-2.3091,-2.2867,-2.2559,-2.2314,-2.2002,-2.1582,-2.1152,-2.0937,-2.0879,-2.0732,-2.0635,-2.0615,-2.0615,-2.0615,-2.0615,-2.0615,-2.0615,-2.0615,-2.0615,-2.0595,-2.0605,-2.0615,-2.0615,-2.0615,-2.0605,-2.0586,-2.0546,-2.0321,-2.0078,-1.9668,-1.9648,-1.9473,-1.9277,-1.8916,-1.8656,-1.851,-1.8208,-1.8086,-1.8008,-1.8008,-1.8008,-1.8008,-1.8008,-1.8008,-1.8008,-1.8008,-1.8008,-1.8008,-1.8008,-1.8008,-1.8008,-1.8008,-1.8008,-1.8008,-1.8008,-1.8008,-1.8008,-1.8008,-1.8008,-1.8008,-1.8008,-1.8008,-1.8008,-1.8008,-1.8008,-1.8008,-1.8008,-1.8008,-1.8008,-1.8008,-1.8008,-1.8008,-1.8008,-1.8008,-1.7495,-1.7495,-1.7428,-1.7326,-1.7132,-1.7112,-1.7112,-1.7112,-1.7112,-1.7112,-1.7065,-1.674,-1.648,-1.6246,-1.5999,-1.5825,-1.5825,-1.5825,-1.5825,-1.5825,-1.5825,-1.5825,-1.5825,-1.5825,-1.5825,-1.5825,-1.5825,-1.5825,-1.5825,-1.5825,-1.5825,-1.5825,-1.5825,-1.6015,-1.6702,-1.8495,-1.9314,-2.0494,-2.1863,-2.3047,-2.3101,-2.3071,-2.2896,-2.2559,-2.251,-2.2256,-2.168,-2.1367,-2.1064,-2.0967,-2.0762,-2.0615,-2.0615,-2.0615,-2.0615,-2.0615,-2.0615,-2.0615,-2.0615,-2.0615,-2.0615,-2.0615,-2.0615,-2.0566,-2.0449,-2.039,-2.039,-2.0312,-2.0321,-2.0039,-1.9863,-1.9717,-1.9629,-1.9502,-1.918,-1.8715,-1.8662,-1.8418,-1.8066,-1.8008,-1.8008,-1.8008,-1.8008,-1.8008,-1.8008,-1.8008,-1.8008,-1.8008,-1.8008,-1.8008,-1.8008,-1.8008,-1.8008,-1.8008,-1.8008,-1.8008,-1.8008,-1.8008,-1.8008,-1.8008,-1.8008,-1.8008,-1.8008,-1.8008,-1.8008,-1.8008,-1.8008,-1.8008,-1.8008,-1.8008,-1.8008,-1.8008,-1.8008,-1.8008,-1.8008,-1.7253,-1.7233,-1.6927,-1.678,-1.676,-1.6754,-1.676,-1.676,-1.676,-1.6754,-1.674,-1.648,-1.6368,-1.6186,-1.5959,-1.5838,-1.5825,-1.5825,-1.5825,-1.5825,-1.5825,-1.5825,-1.5825,-1.5825,-1.5825,-1.5825,-1.5825,-1.5825,-1.5825,-1.5825,-1.5825,-1.5825,-1.5872,-1.6292,-1.7311,-1.8726,-2.0034,-2.1069,-2.2403,-2.3101,-2.3101,-2.3091,-2.2867,-2.2584,-2.2432,-2.2158,-2.1502,-2.1279,-2.1015,-2.0762,-2.0683,-2.0615,-2.0615,-2.0615,-2.0615,-2.0615,-2.0615,-2.0615,-2.0615,-2.0546,-2.0527,-2.0507,-2.0507,-2.037,-2.0127,-2.0029,-1.9941,-1.9482,-2.0048,-2.0283,-2.0127,-2.0205,-2.0361,-2.0049,-1.9477,-1.9182,-1.9023,-1.8389,-1.8057,-1.8008,-1.8008,-1.8008,-1.8008,-1.8008,-1.8008,-1.8008,-1.8008,-1.8008,-1.8008,-1.8008,-1.8008,-1.8008,-1.8008,-1.8008,-1.8008,-1.8008,-1.8008,-1.8008,-1.8008,-1.8008,-1.8008,-1.8008,-1.8008,-1.8008,-1.8008,-1.8008,-1.8008,-1.8008,-1.8008,-1.8008,-1.8008,-1.8008,-1.8008,-1.8008,-1.8008,-1.6317,-1.7172,-1.6827,-1.6607,-1.6473,-1.646,-1.646,-1.646,-1.646,-1.6466,-1.644,-1.6339,-1.6186,-1.6032,-1.5824,-1.5832,-1.5825,-1.5825,-1.5825,-1.5825,-1.5825,-1.5825,-1.5825,-1.5825,-1.5825,-1.5825,-1.5825,-1.5825,-1.5825,-1.5825,-1.5825,-1.5825,-1.5872,-1.6433,-1.7777,-1.891,-2.0079,-2.1248,-2.2403,-2.3047,-2.3101,-2.3062,-2.2886,-2.2487,-2.2295,-2.1953,-2.1611,-2.1045,-2.0967,-2.081,-2.0742,-2.0615,-2.0615,-2.0615,-2.0615,-2.0615,-2.0615,-2.0615,-2.0586,-2.038,-2.0273,-2.0127,-2.0019,-1.9764,-1.9629,-1.9775,-1.9873,-1.9697,-2.0195,-2.04,-2.0274,-2.0236,-2.0197,-1.9984,-1.9511,-1.9187,-1.8854,-1.8418,-1.8008,-1.8008,-1.8008,-1.8008,-1.8008,-1.8008,-1.8008,-1.8008,-1.8008,-1.8008,-1.8008,-1.8008,-1.8008,-1.8008,-1.8008,-1.8008,-1.8008,-1.8008,-1.8008,-1.8008,-1.8008,-1.8008,-1.8008,-1.8008,-1.8008,-1.8008,-1.8008,-1.8008,-1.8008,-1.8008,-1.8008,-1.8008,-1.8008,-1.8008,-1.8008,-1.8008,-1.8008,-1.5026,-1.6477,-1.649,-1.6359,-1.6166,-1.6166,-1.6159,-1.6166,-1.6159,-1.6166,-1.6166,-1.6146,-1.6019,-1.5872,-1.5791,-1.5825,-1.5825,-1.5825,-1.5825,-1.5825,-1.5825,-1.5825,-1.5825,-1.5825,-1.5825,-1.5825,-1.5825,-1.5825,-1.5825,-1.5825,-1.5825,-1.5825,-1.5825,-1.6796,-1.8041,-1.9131,-2.0215,-2.1889,-2.2677,-2.3023,-2.2925,-2.2906,-2.2705,-2.2383,-2.207,-2.1836,-2.1641,-2.1191,-2.0996,-2.0674,-2.0684,-2.0517,-2.0263,-2.0439,-2.0478,-2.0439,-2.0332,-2.0352,-2.0332,-2.0234,-2.0098,-1.9951,-1.9687,-1.9561,-1.9394,-1.9658,-1.9902,-1.9863,-2.0283,-2.0546,-2.0518,-2.0285,-2.0149,-1.982,-1.9312,-1.8942,-1.8569,-1.8222,-1.8018,-1.8008,-1.8008,-1.8008,-1.8008,-1.8008,-1.8008,-1.8008,-1.8008,-1.8008,-1.8008,-1.8008,-1.8008,-1.8008,-1.8008,-1.8008,-1.8008,-1.8008,-1.8008,-1.8008,-1.8008,-1.8008,-1.8008,-1.8008,-1.8008,-1.8008,-1.8008,-1.8008,-1.8008,-1.8008,-1.8008,-1.8008,-1.8008,-1.8008,-1.8008,-1.8008,-1.793,-1.3381,-1.4731,-1.5538,-1.5905,-1.5872,-1.5858,-1.5865,-1.5899,-1.5879,-1.5885,-1.5905,-1.5872,-1.5879,-1.5832,-1.5825,-1.5825,-1.5825,-1.5825,-1.5825,-1.5825,-1.5825,-1.5825,-1.5825,-1.5825,-1.5825,-1.5825,-1.5825,-1.5825,-1.5825,-1.5825,-1.5825,-1.5825,-1.5825,-1.7296,-1.8764,-1.9807,-2.0989,-2.235,-2.3047,-2.2916,-2.2764,-2.2607,-2.2393,-2.206,-2.1885,-2.1709,-2.1278,-2.1103,-2.0752,-2.0254,-2.0478,-2.0282,-1.9941,-2.0321,-2.0439,-2.0254,-2.0176,-2.0166,-2.0088,-2.0214,-2.0439,-2.038,-1.9971,-1.9414,-1.9228,-1.9619,-1.9853,-1.9941,-2.0312,-2.0566,-2.0566,-2.0518,-2.0139,-1.9721,-1.923,-1.885,-1.8523,-1.8202,-1.8037,-1.8018,-1.8008,-1.8008,-1.8008,-1.8008,-1.8008,-1.8008,-1.8008,-1.8008,-1.8008,-1.8008,-1.8008,-1.8008,-1.8008,-1.8008,-1.8008,-1.8008,-1.8008,-1.8008,-1.8008,-1.8008,-1.8008,-1.8008,-1.8008,-1.8008,-1.8008,-1.8008,-1.8008,-1.8008,-1.8008,-1.8008,-1.8008,-1.8008,-1.8008,-1.8008,-1.7842,-1.3183,-1.4421,-1.5403,-1.5825,-1.5825,-1.5825,-1.5825,-1.5825,-1.5825,-1.5825,-1.5825,-1.5825,-1.5825,-1.5825,-1.5825,-1.5825,-1.5825,-1.5825,-1.5825,-1.5825,-1.5825,-1.5825,-1.5825,-1.5825,-1.5825,-1.5825,-1.5825,-1.5825,-1.5825,-1.5825,-1.5825,-1.5825,-1.5825,-1.7382,-1.894,-2.0764,-2.2138,-2.2633,-2.3101,-2.2974,-2.2877,-2.2598,-2.2314,-2.1924,-2.1553,-2.1269,-2.0908,-2.084,-2.0449,-2.0205,-2.041,-2.0078,-1.9775,-2.0282,-2.0429,-2.0244,-2.0185,-2.0088,-1.9853,-1.9834,-1.9658,-1.9316,-1.8994,-1.8818,-1.8945,-1.9307,-1.9648,-1.9922,-2.0303,-2.0595,-2.0605,-2.0324,-1.9947,-1.9556,-1.918,-1.8815,-1.8422,-1.81,-1.8037,-1.8008,-1.8008,-1.8008,-1.8008,-1.8008,-1.8008,-1.8008,-1.8008,-1.8008,-1.8008,-1.8008,-1.8008,-1.8008,-1.8008,-1.8008,-1.8008,-1.8008,-1.8008,-1.8008,-1.8008,-1.8008,-1.8008,-1.8008,-1.8008,-1.8008,-1.8008,-1.8008,-1.8008,-1.8008,-1.8008,-1.8008,-1.8008,-1.8008,-1.8008,-1.7978,-1.7822,-1.3066,-1.4329,-1.5358,-1.5825,-1.5825,-1.5825,-1.5825,-1.5825,-1.5825,-1.5825,-1.5825,-1.5825,-1.5825,-1.5825,-1.5825,-1.5825,-1.5825,-1.5825,-1.5825,-1.5825,-1.5825,-1.5825,-1.5825,-1.5825,-1.5825,-1.5825,-1.5825,-1.5825,-1.5825,-1.5825,-1.5825,-1.5825,-1.5967,-1.7296,-1.9488,-2.1774,-2.3091,-2.3101,-2.3101,-2.2896,-2.273,-2.2451,-2.1953,-2.1574,-2.1152,-2.0947,-2.0732,-2.0654,-2.0419,-2.0215,-2.0205,-2.0127,-2.0057,-2.0096,-2.038,-2.0321,-2.0194,-2.0077,-1.9746,-1.9473,-1.9092,-1.8802,-1.875,-1.8633,-1.8666,-1.9121,-1.9697,-1.9893,-2.0293,-2.0605,-2.0595,-2.0372,-1.9907,-1.9551,-1.9247,-1.8889,-1.835,-1.8018,-1.8018,-1.8008,-1.8008,-1.8008,-1.8008,-1.8008,-1.8008,-1.8008,-1.8008,-1.8008,-1.8008,-1.8008,-1.8008,-1.8008,-1.8008,-1.8008,-1.8008,-1.8008,-1.8008,-1.8008,-1.8008,-1.8008,-1.8008,-1.8008,-1.8008,-1.8008,-1.8008,-1.8008,-1.8008,-1.8008,-1.8008,-1.8008,-1.8008,-1.8008,-1.7832,-1.7793,-1.7832,-1.2972,-1.4187,-1.531,-1.5825,-1.5825,-1.5825,-1.5825,-1.5825,-1.5825,-1.5825,-1.5825,-1.5825,-1.5825,-1.5825,-1.5825,-1.5825,-1.5825,-1.5825,-1.5825,-1.5825,-1.5825,-1.5825,-1.5825,-1.5825,-1.5825,-1.5825,-1.5825,-1.5825,-1.5825,-1.5825,-1.5825,-1.6244,-1.6655,-1.7529,-1.9588,-2.1908,-2.3047,-2.3101,-2.3101,-2.2744,-2.2285,-2.206,-2.1623,-2.1084,-2.0811,-2.0674,-2.0635,-2.0615,-2.038,-2.0068,-2.0244,-1.9941,-1.9209,-1.9922,-2.0077,-1.9578,-1.9492,-1.9424,-1.9316,-1.9297,-1.9023,-1.8676,-1.8662,-1.8789,-1.8822,-1.9297,-1.9805,-1.9902,-2.0244,-2.0498,-2.0518,-2.043,-1.9893,-1.9517,-1.9208,-1.8818,-1.8291,-1.8008,-1.8008,-1.8008,-1.8008,-1.8008,-1.8008,-1.8008,-1.8008,-1.8008,-1.8008,-1.8008,-1.8008,-1.8008,-1.8008,-1.8008,-1.8008,-1.8008,-1.8008,-1.8008,-1.8008,-1.8008,-1.8008,-1.8008,-1.8008,-1.8008,-1.8008,-1.8008,-1.8008,-1.8008,-1.8008,-1.8008,-1.8008,-1.8008,-1.8008,-1.7959,-1.7754,-1.7676,-1.7783,-1.287,-1.405,-1.528,-1.5825,-1.5825,-1.5825,-1.5825,-1.5825,-1.5825,-1.5825,-1.5825,-1.5825,-1.5825,-1.5825,-1.5825,-1.5825,-1.5825,-1.5825,-1.5825,-1.5825,-1.5825,-1.5825,-1.5825,-1.5825,-1.5825,-1.5825,-1.5825,-1.5825,-1.5825,-1.5967,-1.648,-1.699,-1.8172,-1.9351,-2.0133,-2.173,-2.3101,-2.3101,-2.3052,-2.2871,-2.2334,-2.2012,-2.1582,-2.0986,-2.0723,-2.0615,-2.0615,-2.0615,-2.04,-2.001,-2.0195,-1.9756,-1.9141,-1.9746,-1.9627,-1.9385,-1.9443,-1.9551,-1.9297,-1.9072,-1.8773,-1.8627,-1.8574,-1.875,-1.9023,-1.9258,-1.96,-1.9816,-2.0049,-2.0176,-2.0127,-1.9834,-1.9443,-1.9316,-1.9025,-1.8602,-1.8164,-1.8057,-1.8008,-1.8008,-1.8008,-1.8008,-1.8008,-1.8008,-1.8008,-1.8008,-1.8008,-1.8008,-1.8008,-1.8008,-1.8008,-1.8008,-1.8008,-1.8008,-1.8008,-1.8008,-1.8008,-1.8008,-1.8008,-1.8008,-1.8008,-1.8008,-1.8008,-1.8008,-1.8008,-1.8008,-1.8008,-1.8008,-1.8008,-1.8008,-1.8008,-1.8008,-1.79,-1.7852,-1.792,-1.3057,-1.4615,-1.5439,-1.5825,-1.5825,-1.5825,-1.5825,-1.5825,-1.5825,-1.5825,-1.5825,-1.5825,-1.5825,-1.5825,-1.5825,-1.5825,-1.5825,-1.5825,-1.5825,-1.5825,-1.5825,-1.5825,-1.5825,-1.5872,-1.6197,-1.615,-1.6015,-1.5913,-1.6574,-1.6527,-1.7171,-1.8457,-1.9861,-2.0124,-2.0764,-2.2041,-2.3101,-2.3052,-2.2945,-2.2773,-2.2363,-2.1992,-2.1514,-2.1162,-2.0859,-2.0615,-2.0615,-2.0566,-2.0488,-2.0176,-1.9951,-1.9717,-1.9414,-1.9277,-1.9209,-1.9248,-1.9404,-1.9414,-1.9072,-1.8857,-1.8578,-1.8364,-1.8217,-1.8516,-1.9004,-1.9199,-1.9404,-1.9629,-1.9805,-1.9795,-1.9697,-1.9365,-1.9287,-1.917,-1.8961,-1.8543,-1.8184,-1.8076,-1.81,-1.8081,-1.8008,-1.8008,-1.8008,-1.8008,-1.8008,-1.8008,-1.8008,-1.8008,-1.8008,-1.8008,-1.8008,-1.8008,-1.8008,-1.8008,-1.8008,-1.8008,-1.8008,-1.8008,-1.8008,-1.8008,-1.8008,-1.8008,-1.8008,-1.8008,-1.8008,-1.8008,-1.8008,-1.8008,-1.8008,-1.8008,-1.8008,-1.8008,-1.8008,-1.8008,-1.8008,-1.3451,-1.5629,-1.5825,-1.5825,-1.5825,-1.5825,-1.5825,-1.5825,-1.5825,-1.5825,-1.5825,-1.5825,-1.5825,-1.5825,-1.5825,-1.5825,-1.5825,-1.5825,-1.5825,-1.5825,-1.5825,-1.5825,-1.5825,-1.5825,-1.6433,-1.6803,-1.685,-1.6803,-1.7645,-1.8087,-1.8726,-1.9405,-2.0223,-2.0809,-2.1667,-2.2359,-2.3047,-2.3023,-2.2803,-2.2588,-2.2275,-2.1668,-2.1278,-2.1025,-2.0771,-2.0644,-2.0615,-2.0595,-2.0586,-2.0381,-2.0137,-1.9717,-1.9424,-1.9314,-1.8994,-1.8861,-1.9102,-1.8965,-1.8773,-1.8617,-1.8471,-1.8315,-1.8412,-1.8549,-1.8763,-1.9082,-1.9258,-1.9434,-1.96,-1.9492,-1.9365,-1.9316,-1.9231,-1.9156,-1.9047,-1.8647,-1.8212,-1.8139,-1.8222,-1.8173,-1.8066,-1.8008,-1.8008,-1.8008,-1.8008,-1.8008,-1.8008,-1.8008,-1.8008,-1.8008,-1.8008,-1.8008,-1.8008,-1.8008,-1.8008,-1.8008,-1.8008,-1.8008,-1.8008,-1.8008,-1.8008,-1.8008,-1.8008,-1.8008,-1.8008,-1.8008,-1.8008,-1.8008,-1.8008,-1.8008,-1.8008,-1.8008,-1.8008,-1.8008,-1.8008,-1.3445,-1.573,-1.5825,-1.5825,-1.5825,-1.5825,-1.5825,-1.5825,-1.5825,-1.5825,-1.5825,-1.5825,-1.5825,-1.5825,-1.5825,-1.5825,-1.5825,-1.5825,-1.5825,-1.5825,-1.5825,-1.5825,-1.5825,-1.5967,-1.6615,-1.7225,-1.7544,-1.777,-1.8902,-1.9588,-2.0079,-2.08,-2.1266,-2.1987,-2.2403,-2.2906,-2.3018,-2.2945,-2.2666,-2.2412,-2.206,-2.1483,-2.1152,-2.085,-2.0732,-2.0615,-2.0615,-2.0615,-2.0615,-2.0537,-2.0137,-1.9717,-1.9326,-1.9014,-1.8666,-1.8656,-1.8734,-1.8715,-1.8617,-1.8598,-1.852,-1.8403,-1.851,-1.8818,-1.8955,-1.9014,-1.9104,-1.9241,-1.9248,-1.9102,-1.9004,-1.8965,-1.8916,-1.8806,-1.8734,-1.8576,-1.8247,-1.8364,-1.8416,-1.8256,-1.8105,-1.8008,-1.8008,-1.8008,-1.8008,-1.8008,-1.8008,-1.8008,-1.8008,-1.8008,-1.8008,-1.8008,-1.8008,-1.8008,-1.8008,-1.8008,-1.8008,-1.8008,-1.8008,-1.8008,-1.8008,-1.8008,-1.8008,-1.8008,-1.8008,-1.8008,-1.8008,-1.8008,-1.8008,-1.8008,-1.8008,-1.8008,-1.8008,-1.8008,-1.8008,-1.3403,-1.5683,-1.5825,-1.5825,-1.5825,-1.5825,-1.5825,-1.5825,-1.5825,-1.5825,-1.5825,-1.5825,-1.5825,-1.5825,-1.5825,-1.5825,-1.5825,-1.5825,-1.5825,-1.5825,-1.5825,-1.5825,-1.5872,-1.6386,-1.7397,-1.8002,-1.8596,-1.8993,-2.0034,-2.0305,-2.0711,-2.1987,-2.258,-2.2677,-2.2911,-2.2872,-2.2818,-2.2725,-2.251,-2.2266,-2.1885,-2.1406,-2.0947,-2.081,-2.0723,-2.0615,-2.0615,-2.0615,-2.0615,-2.0498,-2.0059,-1.958,-1.916,-1.8734,-1.8529,-1.852,-1.8617,-1.8637,-1.8598,-1.8598,-1.8598,-1.8559,-1.849,-1.873,-1.8896,-1.8965,-1.9043,-1.9102,-1.8822,-1.8627,-1.8584,-1.8516,-1.8447,-1.8354,-1.8383,-1.8412,-1.849,-1.8652,-1.8525,-1.8295,-1.8174,-1.8047,-1.8008,-1.8008,-1.8008,-1.8008,-1.8008,-1.8008,-1.8008,-1.8008,-1.8008,-1.8008,-1.8008,-1.8008,-1.8008,-1.8008,-1.8008,-1.8008,-1.8008,-1.8008,-1.8008,-1.8008,-1.8008,-1.8008,-1.8008,-1.8008,-1.8008,-1.8008,-1.8008,-1.8008,-1.8008,-1.8008,-1.8008,-1.8008,-1.8008,-1.3451,-1.5825,-1.5825,-1.5825,-1.5825,-1.5825,-1.5825,-1.5825,-1.5825,-1.5825,-1.5825,-1.5825,-1.5825,-1.5825,-1.5825,-1.5825,-1.5825,-1.5825,-1.5825,-1.5825,-1.5825,-1.592,-1.648,-1.7131,-1.818,-1.9131,-1.9807,-2.0223,-2.0845,-2.1159,-2.1667,-2.295,-2.2262,-2.2306,-2.2955,-2.2721,-2.2627,-2.2549,-2.2197,-2.1865,-2.1855,-2.1348,-2.0742,-2.0977,-2.081,-2.0615,-2.0615,-2.0615,-2.0605,-2.0331,-1.9969,-1.9443,-1.8955,-1.8525,-1.8354,-1.8364,-1.8442,-1.8442,-1.8481,-1.8529,-1.8656,-1.8549,-1.8315,-1.8662,-1.8896,-1.8711,-1.8682,-1.8965,-1.8792,-1.8715,-1.8691,-1.874,-1.8711,-1.8623,-1.8594,-1.8437,-1.8256,-1.8418,-1.8412,-1.8227,-1.8135,-1.8027,-1.8008,-1.8008,-1.8008,-1.8008,-1.8008,-1.8008,-1.8008,-1.8008,-1.8008,-1.8008,-1.8008,-1.8008,-1.8008,-1.8008,-1.8008,-1.8008,-1.8008,-1.8008,-1.8008,-1.8008,-1.8008,-1.8008,-1.8008,-1.8008,-1.8008,-1.8008,-1.8008,-1.8008,-1.8008,-1.8008,-1.8008,-1.8008,-1.8008,-1.3445,-1.5778,-1.5825,-1.5825,-1.5825,-1.5825,-1.5825,-1.5825,-1.5825,-1.5825,-1.5825,-1.5825,-1.5825,-1.5825,-1.5825,-1.5825,-1.592,-1.5872,-1.5825,-1.5967,-1.6015,-1.6615,-1.7178,-1.7909,-1.9001,-2.0277,-2.1042,-2.1445,-2.2085,-2.2271,-2.2271,-2.2984,-2.257,-2.2809,-2.295,-2.2656,-2.2432,-2.2383,-2.1777,-2.1455,-2.1406,-2.1094,-2.0693,-2.0723,-2.0615,-2.0615,-2.0615,-2.0615,-2.0615,-2.0488,-2.0059,-1.9482,-1.8783,-1.8291,-1.8096,-1.811,-1.8178,-1.8208,-1.8295,-1.8461,-1.8666,-1.8822,-1.8799,-1.8926,-1.8857,-1.8428,-1.8359,-1.8711,-1.8896,-1.8838,-1.8828,-1.8906,-1.8984,-1.8887,-1.8776,-1.8398,-1.8066,-1.8174,-1.8311,-1.8208,-1.8071,-1.8037,-1.8018,-1.8008,-1.8008,-1.8008,-1.8008,-1.8008,-1.8008,-1.8008,-1.8008,-1.8008,-1.8008,-1.8008,-1.8008,-1.8008,-1.8008,-1.8008,-1.8008,-1.8008,-1.8008,-1.8008,-1.8008,-1.8008,-1.8008,-1.8008,-1.8008,-1.8008,-1.8008,-1.8008,-1.8008,-1.8008,-1.8008,-1.8008,-1.8008,-1.398,-1.573,-1.5825,-1.5825,-1.5825,-1.5825,-1.5825,-1.5825,-1.5825,-1.5825,-1.5825,-1.5825,-1.5825,-1.5825,-1.5825,-1.6244,-1.6339,-1.6015,-1.6788,-1.7109,-1.6936,-1.7537,-1.8133,-1.8902,-1.9951,-2.1177,-2.1898,-2.2492,-2.3047,-2.3028,-2.2965,-2.2916,-2.2935,-2.2984,-2.2818,-2.248,-2.2256,-2.2187,-2.1377,-2.1035,-2.0967,-2.0723,-2.0615,-2.0615,-2.0615,-2.0615,-2.0615,-2.0615,-2.0615,-2.04,-1.9979,-1.9346,-1.8695,-1.8252,-1.8047,-1.8027,-1.8057,-1.8052,-1.8198,-1.8393,-1.873,-1.8936,-1.8691,-1.8594,-1.8705,-1.8325,-1.8125,-1.8437,-1.8666,-1.8656,-1.8685,-1.8763,-1.8984,-1.9004,-1.8838,-1.8591,-1.8374,-1.836,-1.8434,-1.8422,-1.8227,-1.8027,-1.8008,-1.8008,-1.8008,-1.8018,-1.8018,-1.8008,-1.8008,-1.8008,-1.8008,-1.8008,-1.8008,-1.8008,-1.8008,-1.8008,-1.8008,-1.8008,-1.8008,-1.8008,-1.8008,-1.8008,-1.8008,-1.8008,-1.8008,-1.8008,-1.8008,-1.8008,-1.8008,-1.8008,-1.8008,-1.8008,-1.8008,-1.8008,-1.8008,-1.4609,-1.573,-1.5825,-1.5825,-1.5825,-1.5825,-1.5825,-1.5825,-1.5825,-1.5825,-1.5872,-1.6015,-1.5967,-1.5825,-1.5872,-1.6709,-1.7084,-1.6669,-1.7623,-1.8218,-1.818,-1.8495,-1.9351,-2.0477,-2.1168,-2.1765,-2.2492,-2.2818,-2.3091,-2.2994,-2.2799,-2.2604,-2.2672,-2.2852,-2.2441,-2.2129,-2.1924,-2.165,-2.1133,-2.0732,-2.0625,-2.0615,-2.0615,-2.0615,-2.0615,-2.0615,-2.0615,-2.0615,-2.0615,-2.0351,-1.993,-1.9268,-1.8734,-1.835,-1.81,-1.8057,-1.8008,-1.8164,-1.8359,-1.8418,-1.8769,-1.8906,-1.8418,-1.8344,-1.8598,-1.851,-1.8311,-1.8359,-1.8588,-1.8754,-1.8783,-1.888,-1.9121,-1.9069,-1.8904,-1.8654,-1.856,-1.8452,-1.8468,-1.85,-1.8325,-1.8076,-1.8174,-1.8154,-1.8066,-1.8066,-1.8047,-1.8018,-1.8008,-1.8008,-1.8008,-1.8008,-1.8008,-1.8008,-1.8008,-1.8008,-1.8008,-1.8008,-1.8008,-1.8008,-1.8008,-1.8008,-1.8008,-1.8008,-1.8008,-1.8008,-1.8008,-1.8008,-1.8008,-1.8008,-1.8008,-1.8008,-1.8008,-1.8008,-1.8008,-1.4657,-1.5825,-1.5825,-1.5825,-1.5825,-1.5825,-1.5825,-1.5825,-1.5825,-1.5825,-1.6062,-1.681,-1.685,-1.5825,-1.5825,-1.6655,-1.8041,-1.7537,-1.7404,-1.7824,-1.9001,-1.9351,-1.9943,-2.1203,-2.1898,-2.2492,-2.2916,-2.3003,-2.3071,-2.2808,-2.2584,-2.2506,-2.2568,-2.248,-2.209,-2.1846,-2.1728,-2.1377,-2.0986,-2.0615,-2.0615,-2.0615,-2.0615,-2.0615,-2.0615,-2.0615,-2.0615,-2.0615,-2.0615,-2.0449,-2.0029,-1.9365,-1.8906,-1.8535,-1.8295,-1.8169,-1.8144,-1.8252,-1.8418,-1.8633,-1.8994,-1.918,-1.8945,-1.918,-1.9268,-1.9131,-1.8975,-1.8936,-1.916,-1.9336,-1.9414,-1.9512,-1.9639,-1.9157,-1.8838,-1.8532,-1.8311,-1.8277,-1.8296,-1.8344,-1.8334,-1.8467,-1.8789,-1.8633,-1.833,-1.8311,-1.8271,-1.8252,-1.8232,-1.8144,-1.8047,-1.8047,-1.8057,-1.8008,-1.8008,-1.8008,-1.8008,-1.8008,-1.8008,-1.8008,-1.8008,-1.8008,-1.8008,-1.8008,-1.8008,-1.8008,-1.8008,-1.8008,-1.8008,-1.8008,-1.8008,-1.8008,-1.8008,-1.8008,-1.8008]}]]